<?xml version="1.0" encoding="UTF-8" standalone="no" ?>
<gpx xmlns="http://www.topografix.com/GPX/1/1" xmlns:xsi="http://www.w3.org/2001/XMLSchema-instance" xsi:schemaLocation="http://www.topografix.com/GPX/1/1 http://www.topografix.com/GPX/1/1/gpx.xsd" version="1.1" creator="VisuGPX - https://www.visugpx.com">
  <metadata>
    <name>Marigné Laillé Arnage</name>
    <desc><![CDATA[6ème étape du circuit Tours Mont St Michel]]></desc>
  </metadata>
  <trk>
    <name><![CDATA[2016-06-18-01]]></name>
    <trkseg>
      <trkpt lat="47.81507" lon="0.33354">
        <ele>25.1</ele>
        <time>2016-06-18T05:30:01Z</time>
      </trkpt>
      <trkpt lat="47.81506" lon="0.33355">
        <ele>24.8</ele>
        <time>2016-06-18T05:30:02Z</time>
      </trkpt>
      <trkpt lat="47.81515" lon="0.3336">
        <ele>27.1</ele>
        <time>2016-06-18T05:30:12Z</time>
      </trkpt>
      <trkpt lat="47.81524" lon="0.33365">
        <ele>26.6</ele>
        <time>2016-06-18T05:30:21Z</time>
      </trkpt>
      <trkpt lat="47.81533" lon="0.33371">
        <ele>23.2</ele>
        <time>2016-06-18T05:30:32Z</time>
      </trkpt>
      <trkpt lat="47.81541" lon="0.33362">
        <ele>115.5</ele>
        <time>2016-06-18T05:30:42Z</time>
      </trkpt>
      <trkpt lat="47.8155" lon="0.33362">
        <ele>145</ele>
        <time>2016-06-18T05:30:52Z</time>
      </trkpt>
      <trkpt lat="47.81561" lon="0.33362">
        <ele>151.5</ele>
        <time>2016-06-18T05:31:01Z</time>
      </trkpt>
      <trkpt lat="47.81571" lon="0.33363">
        <ele>152.7</ele>
        <time>2016-06-18T05:31:10Z</time>
      </trkpt>
      <trkpt lat="47.81581" lon="0.33361">
        <ele>151.9</ele>
        <time>2016-06-18T05:31:18Z</time>
      </trkpt>
      <trkpt lat="47.8159" lon="0.33361">
        <ele>152.3</ele>
        <time>2016-06-18T05:31:26Z</time>
      </trkpt>
      <trkpt lat="47.816" lon="0.33361">
        <ele>150.9</ele>
        <time>2016-06-18T05:31:35Z</time>
      </trkpt>
      <trkpt lat="47.8161" lon="0.33362">
        <ele>153.1</ele>
        <time>2016-06-18T05:31:42Z</time>
      </trkpt>
      <trkpt lat="47.81619" lon="0.33363">
        <ele>155.5</ele>
        <time>2016-06-18T05:31:51Z</time>
      </trkpt>
      <trkpt lat="47.81627" lon="0.33371">
        <ele>153.6</ele>
        <time>2016-06-18T05:32:00Z</time>
      </trkpt>
      <trkpt lat="47.81633" lon="0.33383">
        <ele>153.4</ele>
        <time>2016-06-18T05:32:09Z</time>
      </trkpt>
      <trkpt lat="47.81635" lon="0.33396">
        <ele>154.4</ele>
        <time>2016-06-18T05:32:17Z</time>
      </trkpt>
      <trkpt lat="47.8164" lon="0.33409">
        <ele>154.8</ele>
        <time>2016-06-18T05:32:26Z</time>
      </trkpt>
      <trkpt lat="47.81645" lon="0.33421">
        <ele>152.7</ele>
        <time>2016-06-18T05:32:34Z</time>
      </trkpt>
      <trkpt lat="47.81647" lon="0.33435">
        <ele>155.4</ele>
        <time>2016-06-18T05:32:43Z</time>
      </trkpt>
      <trkpt lat="47.8165" lon="0.33448">
        <ele>155</ele>
        <time>2016-06-18T05:32:52Z</time>
      </trkpt>
      <trkpt lat="47.81653" lon="0.33461">
        <ele>151.9</ele>
        <time>2016-06-18T05:33:01Z</time>
      </trkpt>
      <trkpt lat="47.81653" lon="0.33474">
        <ele>154.9</ele>
        <time>2016-06-18T05:33:10Z</time>
      </trkpt>
      <trkpt lat="47.81653" lon="0.33489">
        <ele>152.8</ele>
        <time>2016-06-18T05:33:18Z</time>
      </trkpt>
      <trkpt lat="47.81651" lon="0.33502">
        <ele>153.5</ele>
        <time>2016-06-18T05:33:26Z</time>
      </trkpt>
      <trkpt lat="47.81651" lon="0.33516">
        <ele>154.4</ele>
        <time>2016-06-18T05:33:34Z</time>
      </trkpt>
      <trkpt lat="47.81651" lon="0.33529">
        <ele>152.5</ele>
        <time>2016-06-18T05:33:42Z</time>
      </trkpt>
      <trkpt lat="47.81649" lon="0.33544">
        <ele>151.7</ele>
        <time>2016-06-18T05:33:50Z</time>
      </trkpt>
      <trkpt lat="47.81649" lon="0.33558">
        <ele>148.1</ele>
        <time>2016-06-18T05:33:59Z</time>
      </trkpt>
      <trkpt lat="47.81647" lon="0.33573">
        <ele>152</ele>
        <time>2016-06-18T05:34:07Z</time>
      </trkpt>
      <trkpt lat="47.81648" lon="0.33588">
        <ele>152.3</ele>
        <time>2016-06-18T05:34:16Z</time>
      </trkpt>
      <trkpt lat="47.81649" lon="0.33601">
        <ele>153.6</ele>
        <time>2016-06-18T05:34:24Z</time>
      </trkpt>
      <trkpt lat="47.8165" lon="0.33615">
        <ele>153.3</ele>
        <time>2016-06-18T05:34:32Z</time>
      </trkpt>
      <trkpt lat="47.81649" lon="0.33629">
        <ele>150</ele>
        <time>2016-06-18T05:34:40Z</time>
      </trkpt>
      <trkpt lat="47.81648" lon="0.33645">
        <ele>149.9</ele>
        <time>2016-06-18T05:34:48Z</time>
      </trkpt>
      <trkpt lat="47.81648" lon="0.3366">
        <ele>152.6</ele>
        <time>2016-06-18T05:34:57Z</time>
      </trkpt>
      <trkpt lat="47.8165" lon="0.33674">
        <ele>154.6</ele>
        <time>2016-06-18T05:35:06Z</time>
      </trkpt>
      <trkpt lat="47.81652" lon="0.33688">
        <ele>153.4</ele>
        <time>2016-06-18T05:35:14Z</time>
      </trkpt>
      <trkpt lat="47.81652" lon="0.33703">
        <ele>152.4</ele>
        <time>2016-06-18T05:35:23Z</time>
      </trkpt>
      <trkpt lat="47.81654" lon="0.33717">
        <ele>149.6</ele>
        <time>2016-06-18T05:35:33Z</time>
      </trkpt>
      <trkpt lat="47.8166" lon="0.33728">
        <ele>153.1</ele>
        <time>2016-06-18T05:35:40Z</time>
      </trkpt>
      <trkpt lat="47.81664" lon="0.33741">
        <ele>154</ele>
        <time>2016-06-18T05:35:48Z</time>
      </trkpt>
      <trkpt lat="47.81669" lon="0.33754">
        <ele>153.6</ele>
        <time>2016-06-18T05:35:55Z</time>
      </trkpt>
      <trkpt lat="47.81673" lon="0.33766">
        <ele>154.4</ele>
        <time>2016-06-18T05:36:03Z</time>
      </trkpt>
      <trkpt lat="47.81678" lon="0.33779">
        <ele>149.8</ele>
        <time>2016-06-18T05:36:11Z</time>
      </trkpt>
      <trkpt lat="47.81681" lon="0.33793">
        <ele>154.3</ele>
        <time>2016-06-18T05:36:21Z</time>
      </trkpt>
      <trkpt lat="47.81686" lon="0.33805">
        <ele>152.5</ele>
        <time>2016-06-18T05:36:29Z</time>
      </trkpt>
      <trkpt lat="47.81688" lon="0.33818">
        <ele>153.9</ele>
        <time>2016-06-18T05:36:37Z</time>
      </trkpt>
      <trkpt lat="47.81691" lon="0.33832">
        <ele>153.2</ele>
        <time>2016-06-18T05:36:45Z</time>
      </trkpt>
      <trkpt lat="47.81695" lon="0.33845">
        <ele>155.9</ele>
        <time>2016-06-18T05:36:53Z</time>
      </trkpt>
      <trkpt lat="47.81699" lon="0.33859">
        <ele>152.2</ele>
        <time>2016-06-18T05:37:02Z</time>
      </trkpt>
      <trkpt lat="47.81703" lon="0.33872">
        <ele>156</ele>
        <time>2016-06-18T05:37:11Z</time>
      </trkpt>
      <trkpt lat="47.81706" lon="0.33884">
        <ele>154.5</ele>
        <time>2016-06-18T05:37:19Z</time>
      </trkpt>
      <trkpt lat="47.8171" lon="0.33898">
        <ele>155.1</ele>
        <time>2016-06-18T05:37:28Z</time>
      </trkpt>
      <trkpt lat="47.81713" lon="0.33912">
        <ele>156.6</ele>
        <time>2016-06-18T05:37:36Z</time>
      </trkpt>
      <trkpt lat="47.81719" lon="0.33924">
        <ele>152.9</ele>
        <time>2016-06-18T05:37:44Z</time>
      </trkpt>
      <trkpt lat="47.81726" lon="0.33934">
        <ele>155.4</ele>
        <time>2016-06-18T05:37:55Z</time>
      </trkpt>
      <trkpt lat="47.81735" lon="0.3394">
        <ele>155.6</ele>
        <time>2016-06-18T05:38:02Z</time>
      </trkpt>
      <trkpt lat="47.81743" lon="0.33947">
        <ele>151.8</ele>
        <time>2016-06-18T05:38:10Z</time>
      </trkpt>
      <trkpt lat="47.81751" lon="0.33955">
        <ele>155.6</ele>
        <time>2016-06-18T05:38:19Z</time>
      </trkpt>
      <trkpt lat="47.81759" lon="0.33963">
        <ele>154.3</ele>
        <time>2016-06-18T05:38:27Z</time>
      </trkpt>
      <trkpt lat="47.81769" lon="0.33968">
        <ele>155.1</ele>
        <time>2016-06-18T05:38:38Z</time>
      </trkpt>
      <trkpt lat="47.81777" lon="0.33975">
        <ele>157.2</ele>
        <time>2016-06-18T05:38:45Z</time>
      </trkpt>
      <trkpt lat="47.81785" lon="0.33981">
        <ele>154.6</ele>
        <time>2016-06-18T05:38:53Z</time>
      </trkpt>
      <trkpt lat="47.81795" lon="0.33983">
        <ele>158.9</ele>
        <time>2016-06-18T05:39:13Z</time>
      </trkpt>
      <trkpt lat="47.81806" lon="0.33982">
        <ele>152.4</ele>
        <time>2016-06-18T05:39:19Z</time>
      </trkpt>
      <trkpt lat="47.81815" lon="0.33985">
        <ele>153.7</ele>
        <time>2016-06-18T05:39:38Z</time>
      </trkpt>
      <trkpt lat="47.81824" lon="0.33991">
        <ele>157.1</ele>
        <time>2016-06-18T05:39:47Z</time>
      </trkpt>
      <trkpt lat="47.81833" lon="0.33994">
        <ele>158.8</ele>
        <time>2016-06-18T05:40:19Z</time>
      </trkpt>
      <trkpt lat="47.81842" lon="0.33991">
        <ele>159.5</ele>
        <time>2016-06-18T05:40:26Z</time>
      </trkpt>
      <trkpt lat="47.81834" lon="0.33983">
        <ele>156.2</ele>
        <time>2016-06-18T05:42:02Z</time>
      </trkpt>
      <trkpt lat="47.81825" lon="0.33981">
        <ele>158</ele>
        <time>2016-06-18T05:42:12Z</time>
      </trkpt>
      <trkpt lat="47.81816" lon="0.33976">
        <ele>156.8</ele>
        <time>2016-06-18T05:42:28Z</time>
      </trkpt>
      <trkpt lat="47.81807" lon="0.33979">
        <ele>156.9</ele>
        <time>2016-06-18T05:42:48Z</time>
      </trkpt>
      <trkpt lat="47.81798" lon="0.33973">
        <ele>156.2</ele>
        <time>2016-06-18T05:43:05Z</time>
      </trkpt>
      <trkpt lat="47.81807" lon="0.33981">
        <ele>156.1</ele>
        <time>2016-06-18T05:43:40Z</time>
      </trkpt>
      <trkpt lat="47.81816" lon="0.33983">
        <ele>157</ele>
        <time>2016-06-18T05:43:51Z</time>
      </trkpt>
      <trkpt lat="47.81825" lon="0.33983">
        <ele>156.5</ele>
        <time>2016-06-18T05:44:03Z</time>
      </trkpt>
      <trkpt lat="47.81834" lon="0.33986">
        <ele>156.8</ele>
        <time>2016-06-18T05:44:17Z</time>
      </trkpt>
      <trkpt lat="47.81844" lon="0.33985">
        <ele>156.4</ele>
        <time>2016-06-18T05:44:37Z</time>
      </trkpt>
      <trkpt lat="47.81853" lon="0.33989">
        <ele>156</ele>
        <time>2016-06-18T05:55:29Z</time>
      </trkpt>
      <trkpt lat="47.81844" lon="0.33989">
        <ele>156.8</ele>
        <time>2016-06-18T05:55:38Z</time>
      </trkpt>
      <trkpt lat="47.81834" lon="0.33986">
        <ele>155.5</ele>
        <time>2016-06-18T05:56:44Z</time>
      </trkpt>
      <trkpt lat="47.81825" lon="0.33987">
        <ele>158.7</ele>
        <time>2016-06-18T05:56:52Z</time>
      </trkpt>
      <trkpt lat="47.81815" lon="0.33988">
        <ele>156</ele>
        <time>2016-06-18T05:57:01Z</time>
      </trkpt>
      <trkpt lat="47.81806" lon="0.33983">
        <ele>157.5</ele>
        <time>2016-06-18T05:57:10Z</time>
      </trkpt>
      <trkpt lat="47.81796" lon="0.33978">
        <ele>152.8</ele>
        <time>2016-06-18T05:57:20Z</time>
      </trkpt>
      <trkpt lat="47.81787" lon="0.33973">
        <ele>154.5</ele>
        <time>2016-06-18T05:57:28Z</time>
      </trkpt>
      <trkpt lat="47.81777" lon="0.33969">
        <ele>152.7</ele>
        <time>2016-06-18T05:57:44Z</time>
      </trkpt>
      <trkpt lat="47.8177" lon="0.33962">
        <ele>154.4</ele>
        <time>2016-06-18T05:57:53Z</time>
      </trkpt>
      <trkpt lat="47.81761" lon="0.33955">
        <ele>152.7</ele>
        <time>2016-06-18T05:58:02Z</time>
      </trkpt>
      <trkpt lat="47.81753" lon="0.3395">
        <ele>154.4</ele>
        <time>2016-06-18T05:58:11Z</time>
      </trkpt>
      <trkpt lat="47.81744" lon="0.33944">
        <ele>154.8</ele>
        <time>2016-06-18T05:58:19Z</time>
      </trkpt>
      <trkpt lat="47.81735" lon="0.33937">
        <ele>149.6</ele>
        <time>2016-06-18T05:58:28Z</time>
      </trkpt>
      <trkpt lat="47.81727" lon="0.3393">
        <ele>154.2</ele>
        <time>2016-06-18T05:58:36Z</time>
      </trkpt>
      <trkpt lat="47.81735" lon="0.33939">
        <ele>153</ele>
        <time>2016-06-18T05:59:41Z</time>
      </trkpt>
      <trkpt lat="47.81742" lon="0.33948">
        <ele>152</ele>
        <time>2016-06-18T05:59:50Z</time>
      </trkpt>
      <trkpt lat="47.8175" lon="0.33957">
        <ele>154.8</ele>
        <time>2016-06-18T05:59:59Z</time>
      </trkpt>
      <trkpt lat="47.8176" lon="0.3396">
        <ele>153.4</ele>
        <time>2016-06-18T06:00:08Z</time>
      </trkpt>
      <trkpt lat="47.81769" lon="0.33968">
        <ele>153.6</ele>
        <time>2016-06-18T06:00:17Z</time>
      </trkpt>
      <trkpt lat="47.81778" lon="0.33976">
        <ele>155.8</ele>
        <time>2016-06-18T06:00:23Z</time>
      </trkpt>
      <trkpt lat="47.81787" lon="0.3398">
        <ele>149.8</ele>
        <time>2016-06-18T06:00:30Z</time>
      </trkpt>
      <trkpt lat="47.81796" lon="0.33986">
        <ele>152.6</ele>
        <time>2016-06-18T06:00:43Z</time>
      </trkpt>
      <trkpt lat="47.81805" lon="0.33983">
        <ele>155.2</ele>
        <time>2016-06-18T06:00:48Z</time>
      </trkpt>
      <trkpt lat="47.81814" lon="0.3399">
        <ele>155.8</ele>
        <time>2016-06-18T06:00:59Z</time>
      </trkpt>
      <trkpt lat="47.81823" lon="0.33996">
        <ele>154.8</ele>
        <time>2016-06-18T06:01:09Z</time>
      </trkpt>
      <trkpt lat="47.81833" lon="0.33999">
        <ele>157</ele>
        <time>2016-06-18T06:01:15Z</time>
      </trkpt>
      <trkpt lat="47.81841" lon="0.34005">
        <ele>157.5</ele>
        <time>2016-06-18T06:01:23Z</time>
      </trkpt>
      <trkpt lat="47.8185" lon="0.34008">
        <ele>151.6</ele>
        <time>2016-06-18T06:01:29Z</time>
      </trkpt>
      <trkpt lat="47.81859" lon="0.34012">
        <ele>158.3</ele>
        <time>2016-06-18T06:01:37Z</time>
      </trkpt>
      <trkpt lat="47.81868" lon="0.34013">
        <ele>156.3</ele>
        <time>2016-06-18T06:01:46Z</time>
      </trkpt>
      <trkpt lat="47.81874" lon="0.34002">
        <ele>159.3</ele>
        <time>2016-06-18T06:01:55Z</time>
      </trkpt>
      <trkpt lat="47.81876" lon="0.33988">
        <ele>157.8</ele>
        <time>2016-06-18T06:02:02Z</time>
      </trkpt>
      <trkpt lat="47.81873" lon="0.33973">
        <ele>159.4</ele>
        <time>2016-06-18T06:02:21Z</time>
      </trkpt>
      <trkpt lat="47.81879" lon="0.33963">
        <ele>158.3</ele>
        <time>2016-06-18T06:02:27Z</time>
      </trkpt>
      <trkpt lat="47.81879" lon="0.33949">
        <ele>160.2</ele>
        <time>2016-06-18T06:02:35Z</time>
      </trkpt>
      <trkpt lat="47.81878" lon="0.33935">
        <ele>159.4</ele>
        <time>2016-06-18T06:02:43Z</time>
      </trkpt>
      <trkpt lat="47.81877" lon="0.3392">
        <ele>160.5</ele>
        <time>2016-06-18T06:02:52Z</time>
      </trkpt>
      <trkpt lat="47.81877" lon="0.33905">
        <ele>161.3</ele>
        <time>2016-06-18T06:03:01Z</time>
      </trkpt>
      <trkpt lat="47.81876" lon="0.33892">
        <ele>158.3</ele>
        <time>2016-06-18T06:03:09Z</time>
      </trkpt>
      <trkpt lat="47.81874" lon="0.33877">
        <ele>160</ele>
        <time>2016-06-18T06:03:17Z</time>
      </trkpt>
      <trkpt lat="47.81874" lon="0.33862">
        <ele>162.7</ele>
        <time>2016-06-18T06:03:25Z</time>
      </trkpt>
      <trkpt lat="47.81871" lon="0.33849">
        <ele>155.3</ele>
        <time>2016-06-18T06:03:33Z</time>
      </trkpt>
      <trkpt lat="47.81868" lon="0.33836">
        <ele>162.4</ele>
        <time>2016-06-18T06:03:41Z</time>
      </trkpt>
      <trkpt lat="47.81864" lon="0.33822">
        <ele>163.6</ele>
        <time>2016-06-18T06:03:49Z</time>
      </trkpt>
      <trkpt lat="47.81861" lon="0.33808">
        <ele>161.3</ele>
        <time>2016-06-18T06:03:57Z</time>
      </trkpt>
      <trkpt lat="47.81858" lon="0.33794">
        <ele>164.5</ele>
        <time>2016-06-18T06:04:05Z</time>
      </trkpt>
      <trkpt lat="47.81855" lon="0.3378">
        <ele>164.4</ele>
        <time>2016-06-18T06:04:13Z</time>
      </trkpt>
      <trkpt lat="47.81852" lon="0.33766">
        <ele>158.5</ele>
        <time>2016-06-18T06:04:21Z</time>
      </trkpt>
      <trkpt lat="47.81852" lon="0.3375">
        <ele>164.6</ele>
        <time>2016-06-18T06:04:29Z</time>
      </trkpt>
      <trkpt lat="47.81851" lon="0.33736">
        <ele>164.8</ele>
        <time>2016-06-18T06:04:37Z</time>
      </trkpt>
      <trkpt lat="47.81847" lon="0.33724">
        <ele>166.6</ele>
        <time>2016-06-18T06:04:44Z</time>
      </trkpt>
      <trkpt lat="47.81845" lon="0.3371">
        <ele>166.1</ele>
        <time>2016-06-18T06:04:51Z</time>
      </trkpt>
      <trkpt lat="47.81847" lon="0.33697">
        <ele>163.1</ele>
        <time>2016-06-18T06:04:59Z</time>
      </trkpt>
      <trkpt lat="47.81854" lon="0.33689">
        <ele>164.1</ele>
        <time>2016-06-18T06:05:05Z</time>
      </trkpt>
      <trkpt lat="47.81862" lon="0.33679">
        <ele>164.1</ele>
        <time>2016-06-18T06:05:43Z</time>
      </trkpt>
      <trkpt lat="47.81868" lon="0.33668">
        <ele>167.2</ele>
        <time>2016-06-18T06:05:52Z</time>
      </trkpt>
      <trkpt lat="47.81874" lon="0.33657">
        <ele>164.8</ele>
        <time>2016-06-18T06:06:01Z</time>
      </trkpt>
      <trkpt lat="47.8188" lon="0.33647">
        <ele>164.8</ele>
        <time>2016-06-18T06:06:09Z</time>
      </trkpt>
      <trkpt lat="47.81886" lon="0.33636">
        <ele>166</ele>
        <time>2016-06-18T06:06:17Z</time>
      </trkpt>
      <trkpt lat="47.81892" lon="0.33625">
        <ele>172.1</ele>
        <time>2016-06-18T06:06:25Z</time>
      </trkpt>
      <trkpt lat="47.81901" lon="0.33619">
        <ele>169.2</ele>
        <time>2016-06-18T06:06:30Z</time>
      </trkpt>
      <trkpt lat="47.81905" lon="0.33607">
        <ele>173.9</ele>
        <time>2016-06-18T06:06:39Z</time>
      </trkpt>
      <trkpt lat="47.81911" lon="0.33594">
        <ele>173.5</ele>
        <time>2016-06-18T06:06:49Z</time>
      </trkpt>
      <trkpt lat="47.81918" lon="0.33583">
        <ele>171.9</ele>
        <time>2016-06-18T06:06:57Z</time>
      </trkpt>
      <trkpt lat="47.81922" lon="0.33571">
        <ele>176.4</ele>
        <time>2016-06-18T06:07:06Z</time>
      </trkpt>
      <trkpt lat="47.8193" lon="0.33562">
        <ele>176.5</ele>
        <time>2016-06-18T06:07:27Z</time>
      </trkpt>
      <trkpt lat="47.81938" lon="0.33555">
        <ele>173.4</ele>
        <time>2016-06-18T06:07:34Z</time>
      </trkpt>
      <trkpt lat="47.81946" lon="0.33548">
        <ele>177.8</ele>
        <time>2016-06-18T06:07:41Z</time>
      </trkpt>
      <trkpt lat="47.81954" lon="0.3354">
        <ele>178.1</ele>
        <time>2016-06-18T06:07:51Z</time>
      </trkpt>
      <trkpt lat="47.81963" lon="0.33535">
        <ele>174.3</ele>
        <time>2016-06-18T06:08:03Z</time>
      </trkpt>
      <trkpt lat="47.81972" lon="0.33533">
        <ele>178.3</ele>
        <time>2016-06-18T06:08:12Z</time>
      </trkpt>
      <trkpt lat="47.81981" lon="0.33529">
        <ele>177.6</ele>
        <time>2016-06-18T06:08:20Z</time>
      </trkpt>
      <trkpt lat="47.81991" lon="0.33528">
        <ele>180</ele>
        <time>2016-06-18T06:08:29Z</time>
      </trkpt>
      <trkpt lat="47.82" lon="0.33525">
        <ele>181.8</ele>
        <time>2016-06-18T06:08:39Z</time>
      </trkpt>
      <trkpt lat="47.8201" lon="0.33522">
        <ele>182.6</ele>
        <time>2016-06-18T06:08:56Z</time>
      </trkpt>
      <trkpt lat="47.82019" lon="0.33518">
        <ele>182.8</ele>
        <time>2016-06-18T06:09:04Z</time>
      </trkpt>
      <trkpt lat="47.82028" lon="0.33515">
        <ele>178.9</ele>
        <time>2016-06-18T06:09:12Z</time>
      </trkpt>
      <trkpt lat="47.82038" lon="0.33512">
        <ele>182.5</ele>
        <time>2016-06-18T06:09:20Z</time>
      </trkpt>
      <trkpt lat="47.82047" lon="0.33508">
        <ele>187.3</ele>
        <time>2016-06-18T06:09:28Z</time>
      </trkpt>
      <trkpt lat="47.82056" lon="0.33508">
        <ele>187.7</ele>
        <time>2016-06-18T06:09:37Z</time>
      </trkpt>
      <trkpt lat="47.82066" lon="0.33507">
        <ele>187.5</ele>
        <time>2016-06-18T06:09:45Z</time>
      </trkpt>
      <trkpt lat="47.82075" lon="0.33508">
        <ele>182.9</ele>
        <time>2016-06-18T06:09:54Z</time>
      </trkpt>
      <trkpt lat="47.82085" lon="0.33508">
        <ele>187.6</ele>
        <time>2016-06-18T06:10:03Z</time>
      </trkpt>
      <trkpt lat="47.82095" lon="0.33509">
        <ele>187.6</ele>
        <time>2016-06-18T06:10:13Z</time>
      </trkpt>
      <trkpt lat="47.82102" lon="0.33519">
        <ele>189.4</ele>
        <time>2016-06-18T06:10:36Z</time>
      </trkpt>
      <trkpt lat="47.82112" lon="0.33523">
        <ele>189</ele>
        <time>2016-06-18T06:10:45Z</time>
      </trkpt>
      <trkpt lat="47.82121" lon="0.33525">
        <ele>190.7</ele>
        <time>2016-06-18T06:10:53Z</time>
      </trkpt>
      <trkpt lat="47.8213" lon="0.33529">
        <ele>189.2</ele>
        <time>2016-06-18T06:11:02Z</time>
      </trkpt>
      <trkpt lat="47.82139" lon="0.33532">
        <ele>190.7</ele>
        <time>2016-06-18T06:11:10Z</time>
      </trkpt>
      <trkpt lat="47.82149" lon="0.33534">
        <ele>189.8</ele>
        <time>2016-06-18T06:11:19Z</time>
      </trkpt>
      <trkpt lat="47.82158" lon="0.33536">
        <ele>192.3</ele>
        <time>2016-06-18T06:11:27Z</time>
      </trkpt>
      <trkpt lat="47.82168" lon="0.3354">
        <ele>192.7</ele>
        <time>2016-06-18T06:11:36Z</time>
      </trkpt>
      <trkpt lat="47.82178" lon="0.33541">
        <ele>190.6</ele>
        <time>2016-06-18T06:11:44Z</time>
      </trkpt>
      <trkpt lat="47.82187" lon="0.33544">
        <ele>194.2</ele>
        <time>2016-06-18T06:11:53Z</time>
      </trkpt>
      <trkpt lat="47.82197" lon="0.33548">
        <ele>193</ele>
        <time>2016-06-18T06:12:02Z</time>
      </trkpt>
      <trkpt lat="47.82206" lon="0.33552">
        <ele>190.3</ele>
        <time>2016-06-18T06:12:10Z</time>
      </trkpt>
      <trkpt lat="47.82215" lon="0.33556">
        <ele>194.9</ele>
        <time>2016-06-18T06:12:19Z</time>
      </trkpt>
      <trkpt lat="47.82224" lon="0.33561">
        <ele>194.3</ele>
        <time>2016-06-18T06:12:27Z</time>
      </trkpt>
      <trkpt lat="47.82233" lon="0.33568">
        <ele>191.1</ele>
        <time>2016-06-18T06:12:36Z</time>
      </trkpt>
      <trkpt lat="47.82242" lon="0.33572">
        <ele>195.8</ele>
        <time>2016-06-18T06:12:44Z</time>
      </trkpt>
      <trkpt lat="47.82251" lon="0.33576">
        <ele>192.2</ele>
        <time>2016-06-18T06:12:52Z</time>
      </trkpt>
      <trkpt lat="47.82261" lon="0.33578">
        <ele>196.6</ele>
        <time>2016-06-18T06:13:00Z</time>
      </trkpt>
      <trkpt lat="47.82271" lon="0.33582">
        <ele>193.9</ele>
        <time>2016-06-18T06:13:10Z</time>
      </trkpt>
      <trkpt lat="47.8228" lon="0.33584">
        <ele>196.4</ele>
        <time>2016-06-18T06:13:17Z</time>
      </trkpt>
      <trkpt lat="47.82289" lon="0.33586">
        <ele>197.2</ele>
        <time>2016-06-18T06:13:24Z</time>
      </trkpt>
      <trkpt lat="47.82299" lon="0.33587">
        <ele>193.4</ele>
        <time>2016-06-18T06:13:32Z</time>
      </trkpt>
      <trkpt lat="47.82308" lon="0.33588">
        <ele>196.2</ele>
        <time>2016-06-18T06:13:40Z</time>
      </trkpt>
      <trkpt lat="47.82317" lon="0.33585">
        <ele>198.9</ele>
        <time>2016-06-18T06:13:48Z</time>
      </trkpt>
      <trkpt lat="47.82326" lon="0.33581">
        <ele>195.2</ele>
        <time>2016-06-18T06:13:55Z</time>
      </trkpt>
      <trkpt lat="47.82335" lon="0.33577">
        <ele>198</ele>
        <time>2016-06-18T06:14:05Z</time>
      </trkpt>
      <trkpt lat="47.82344" lon="0.33576">
        <ele>197.3</ele>
        <time>2016-06-18T06:14:19Z</time>
      </trkpt>
      <trkpt lat="47.82354" lon="0.33576">
        <ele>199.5</ele>
        <time>2016-06-18T06:14:31Z</time>
      </trkpt>
      <trkpt lat="47.82364" lon="0.3358">
        <ele>201.2</ele>
        <time>2016-06-18T06:14:43Z</time>
      </trkpt>
      <trkpt lat="47.82373" lon="0.33584">
        <ele>198.5</ele>
        <time>2016-06-18T06:14:51Z</time>
      </trkpt>
      <trkpt lat="47.82382" lon="0.33588">
        <ele>197.1</ele>
        <time>2016-06-18T06:14:58Z</time>
      </trkpt>
      <trkpt lat="47.82391" lon="0.33593">
        <ele>199.8</ele>
        <time>2016-06-18T06:15:06Z</time>
      </trkpt>
      <trkpt lat="47.824" lon="0.33598">
        <ele>197.3</ele>
        <time>2016-06-18T06:15:14Z</time>
      </trkpt>
      <trkpt lat="47.82409" lon="0.33603">
        <ele>198.4</ele>
        <time>2016-06-18T06:15:21Z</time>
      </trkpt>
      <trkpt lat="47.82418" lon="0.3361">
        <ele>201.6</ele>
        <time>2016-06-18T06:15:29Z</time>
      </trkpt>
      <trkpt lat="47.82426" lon="0.33617">
        <ele>197.1</ele>
        <time>2016-06-18T06:15:37Z</time>
      </trkpt>
      <trkpt lat="47.82434" lon="0.33625">
        <ele>200.8</ele>
        <time>2016-06-18T06:15:45Z</time>
      </trkpt>
      <trkpt lat="47.82443" lon="0.33632">
        <ele>198</ele>
        <time>2016-06-18T06:15:53Z</time>
      </trkpt>
      <trkpt lat="47.82452" lon="0.33638">
        <ele>200</ele>
        <time>2016-06-18T06:16:01Z</time>
      </trkpt>
      <trkpt lat="47.8246" lon="0.33645">
        <ele>200.5</ele>
        <time>2016-06-18T06:16:09Z</time>
      </trkpt>
      <trkpt lat="47.82469" lon="0.33648">
        <ele>196.3</ele>
        <time>2016-06-18T06:16:16Z</time>
      </trkpt>
      <trkpt lat="47.82478" lon="0.33651">
        <ele>201.2</ele>
        <time>2016-06-18T06:16:24Z</time>
      </trkpt>
      <trkpt lat="47.82488" lon="0.33656">
        <ele>199.2</ele>
        <time>2016-06-18T06:16:32Z</time>
      </trkpt>
      <trkpt lat="47.82498" lon="0.33661">
        <ele>202.5</ele>
        <time>2016-06-18T06:16:40Z</time>
      </trkpt>
      <trkpt lat="47.82506" lon="0.33665">
        <ele>196.1</ele>
        <time>2016-06-18T06:16:49Z</time>
      </trkpt>
      <trkpt lat="47.82515" lon="0.33668">
        <ele>202.9</ele>
        <time>2016-06-18T06:16:57Z</time>
      </trkpt>
      <trkpt lat="47.82523" lon="0.33674">
        <ele>202.2</ele>
        <time>2016-06-18T06:17:05Z</time>
      </trkpt>
      <trkpt lat="47.82533" lon="0.3368">
        <ele>202.4</ele>
        <time>2016-06-18T06:17:14Z</time>
      </trkpt>
      <trkpt lat="47.82542" lon="0.33684">
        <ele>201.5</ele>
        <time>2016-06-18T06:17:23Z</time>
      </trkpt>
      <trkpt lat="47.82552" lon="0.33688">
        <ele>202.6</ele>
        <time>2016-06-18T06:17:31Z</time>
      </trkpt>
      <trkpt lat="47.82561" lon="0.33691">
        <ele>201.8</ele>
        <time>2016-06-18T06:17:39Z</time>
      </trkpt>
      <trkpt lat="47.82571" lon="0.33693">
        <ele>202.1</ele>
        <time>2016-06-18T06:17:46Z</time>
      </trkpt>
      <trkpt lat="47.8258" lon="0.33697">
        <ele>198.1</ele>
        <time>2016-06-18T06:17:55Z</time>
      </trkpt>
      <trkpt lat="47.8259" lon="0.33698">
        <ele>201.6</ele>
        <time>2016-06-18T06:18:03Z</time>
      </trkpt>
      <trkpt lat="47.82599" lon="0.337">
        <ele>202.1</ele>
        <time>2016-06-18T06:18:10Z</time>
      </trkpt>
      <trkpt lat="47.82608" lon="0.33701">
        <ele>194.2</ele>
        <time>2016-06-18T06:18:18Z</time>
      </trkpt>
      <trkpt lat="47.82618" lon="0.33703">
        <ele>198.8</ele>
        <time>2016-06-18T06:18:27Z</time>
      </trkpt>
      <trkpt lat="47.82628" lon="0.33703">
        <ele>199.5</ele>
        <time>2016-06-18T06:18:34Z</time>
      </trkpt>
      <trkpt lat="47.82638" lon="0.33707">
        <ele>193.6</ele>
        <time>2016-06-18T06:18:42Z</time>
      </trkpt>
      <trkpt lat="47.82647" lon="0.33711">
        <ele>194.1</ele>
        <time>2016-06-18T06:18:50Z</time>
      </trkpt>
      <trkpt lat="47.82656" lon="0.33717">
        <ele>196.9</ele>
        <time>2016-06-18T06:18:59Z</time>
      </trkpt>
      <trkpt lat="47.82665" lon="0.3372">
        <ele>197.6</ele>
        <time>2016-06-18T06:19:06Z</time>
      </trkpt>
      <trkpt lat="47.82675" lon="0.33725">
        <ele>194.5</ele>
        <time>2016-06-18T06:19:14Z</time>
      </trkpt>
      <trkpt lat="47.82684" lon="0.33726">
        <ele>189.3</ele>
        <time>2016-06-18T06:19:22Z</time>
      </trkpt>
      <trkpt lat="47.82694" lon="0.33728">
        <ele>193.7</ele>
        <time>2016-06-18T06:19:30Z</time>
      </trkpt>
      <trkpt lat="47.82702" lon="0.33732">
        <ele>191.2</ele>
        <time>2016-06-18T06:19:38Z</time>
      </trkpt>
      <trkpt lat="47.82711" lon="0.33736">
        <ele>191.8</ele>
        <time>2016-06-18T06:19:47Z</time>
      </trkpt>
      <trkpt lat="47.8272" lon="0.33743">
        <ele>187.2</ele>
        <time>2016-06-18T06:19:56Z</time>
      </trkpt>
      <trkpt lat="47.82729" lon="0.33749">
        <ele>189.6</ele>
        <time>2016-06-18T06:20:04Z</time>
      </trkpt>
      <trkpt lat="47.82738" lon="0.33757">
        <ele>189.5</ele>
        <time>2016-06-18T06:20:12Z</time>
      </trkpt>
      <trkpt lat="47.82746" lon="0.33764">
        <ele>185.6</ele>
        <time>2016-06-18T06:20:19Z</time>
      </trkpt>
      <trkpt lat="47.82754" lon="0.33772">
        <ele>184.1</ele>
        <time>2016-06-18T06:20:27Z</time>
      </trkpt>
      <trkpt lat="47.82762" lon="0.3378">
        <ele>186.5</ele>
        <time>2016-06-18T06:20:36Z</time>
      </trkpt>
      <trkpt lat="47.8277" lon="0.33788">
        <ele>186.7</ele>
        <time>2016-06-18T06:20:43Z</time>
      </trkpt>
      <trkpt lat="47.82777" lon="0.33798">
        <ele>183.8</ele>
        <time>2016-06-18T06:20:51Z</time>
      </trkpt>
      <trkpt lat="47.82785" lon="0.33807">
        <ele>181.9</ele>
        <time>2016-06-18T06:20:59Z</time>
      </trkpt>
      <trkpt lat="47.82792" lon="0.33818">
        <ele>182.3</ele>
        <time>2016-06-18T06:21:07Z</time>
      </trkpt>
      <trkpt lat="47.828" lon="0.33825">
        <ele>183.2</ele>
        <time>2016-06-18T06:21:14Z</time>
      </trkpt>
      <trkpt lat="47.82806" lon="0.33835">
        <ele>177.1</ele>
        <time>2016-06-18T06:21:21Z</time>
      </trkpt>
      <trkpt lat="47.82814" lon="0.33843">
        <ele>179.6</ele>
        <time>2016-06-18T06:21:29Z</time>
      </trkpt>
      <trkpt lat="47.82822" lon="0.33848">
        <ele>180</ele>
        <time>2016-06-18T06:21:36Z</time>
      </trkpt>
      <trkpt lat="47.82831" lon="0.33856">
        <ele>177.1</ele>
        <time>2016-06-18T06:21:44Z</time>
      </trkpt>
      <trkpt lat="47.8284" lon="0.33861">
        <ele>178.4</ele>
        <time>2016-06-18T06:21:52Z</time>
      </trkpt>
      <trkpt lat="47.82848" lon="0.33868">
        <ele>178.7</ele>
        <time>2016-06-18T06:21:59Z</time>
      </trkpt>
      <trkpt lat="47.82857" lon="0.33876">
        <ele>171.3</ele>
        <time>2016-06-18T06:22:07Z</time>
      </trkpt>
      <trkpt lat="47.82864" lon="0.33885">
        <ele>174.9</ele>
        <time>2016-06-18T06:22:15Z</time>
      </trkpt>
      <trkpt lat="47.82868" lon="0.33899">
        <ele>174.9</ele>
        <time>2016-06-18T06:22:23Z</time>
      </trkpt>
      <trkpt lat="47.8287" lon="0.33913">
        <ele>174.1</ele>
        <time>2016-06-18T06:22:30Z</time>
      </trkpt>
      <trkpt lat="47.8287" lon="0.33928">
        <ele>172.9</ele>
        <time>2016-06-18T06:22:38Z</time>
      </trkpt>
      <trkpt lat="47.82873" lon="0.3394">
        <ele>167.2</ele>
        <time>2016-06-18T06:23:25Z</time>
      </trkpt>
      <trkpt lat="47.82882" lon="0.33938">
        <ele>166.2</ele>
        <time>2016-06-18T06:23:35Z</time>
      </trkpt>
      <trkpt lat="47.82891" lon="0.33938">
        <ele>163.4</ele>
        <time>2016-06-18T06:23:43Z</time>
      </trkpt>
      <trkpt lat="47.829" lon="0.33934">
        <ele>165.8</ele>
        <time>2016-06-18T06:23:51Z</time>
      </trkpt>
      <trkpt lat="47.82907" lon="0.33925">
        <ele>164.5</ele>
        <time>2016-06-18T06:23:59Z</time>
      </trkpt>
      <trkpt lat="47.82915" lon="0.33917">
        <ele>167.3</ele>
        <time>2016-06-18T06:24:07Z</time>
      </trkpt>
      <trkpt lat="47.82922" lon="0.33907">
        <ele>166.5</ele>
        <time>2016-06-18T06:24:16Z</time>
      </trkpt>
      <trkpt lat="47.8293" lon="0.339">
        <ele>166.3</ele>
        <time>2016-06-18T06:24:26Z</time>
      </trkpt>
      <trkpt lat="47.82938" lon="0.33892">
        <ele>164.9</ele>
        <time>2016-06-18T06:24:35Z</time>
      </trkpt>
      <trkpt lat="47.82947" lon="0.33886">
        <ele>166.6</ele>
        <time>2016-06-18T06:24:45Z</time>
      </trkpt>
      <trkpt lat="47.82956" lon="0.33879">
        <ele>166</ele>
        <time>2016-06-18T06:24:54Z</time>
      </trkpt>
      <trkpt lat="47.82964" lon="0.33874">
        <ele>163.9</ele>
        <time>2016-06-18T06:25:03Z</time>
      </trkpt>
      <trkpt lat="47.82972" lon="0.33867">
        <ele>167.3</ele>
        <time>2016-06-18T06:25:12Z</time>
      </trkpt>
      <trkpt lat="47.8298" lon="0.33859">
        <ele>165.9</ele>
        <time>2016-06-18T06:25:22Z</time>
      </trkpt>
      <trkpt lat="47.82982" lon="0.33845">
        <ele>164.8</ele>
        <time>2016-06-18T06:25:34Z</time>
      </trkpt>
      <trkpt lat="47.82983" lon="0.33832">
        <ele>163.3</ele>
        <time>2016-06-18T06:25:45Z</time>
      </trkpt>
      <trkpt lat="47.82986" lon="0.33818">
        <ele>163.4</ele>
        <time>2016-06-18T06:26:02Z</time>
      </trkpt>
      <trkpt lat="47.82985" lon="0.33805">
        <ele>162.4</ele>
        <time>2016-06-18T06:26:15Z</time>
      </trkpt>
      <trkpt lat="47.82986" lon="0.33791">
        <ele>166.4</ele>
        <time>2016-06-18T06:26:29Z</time>
      </trkpt>
      <trkpt lat="47.82987" lon="0.33777">
        <ele>163.6</ele>
        <time>2016-06-18T06:26:40Z</time>
      </trkpt>
      <trkpt lat="47.82988" lon="0.33762">
        <ele>166.7</ele>
        <time>2016-06-18T06:26:53Z</time>
      </trkpt>
      <trkpt lat="47.82987" lon="0.33748">
        <ele>165.1</ele>
        <time>2016-06-18T06:27:04Z</time>
      </trkpt>
      <trkpt lat="47.82985" lon="0.33734">
        <ele>164.4</ele>
        <time>2016-06-18T06:27:15Z</time>
      </trkpt>
      <trkpt lat="47.82988" lon="0.33719">
        <ele>167</ele>
        <time>2016-06-18T06:27:32Z</time>
      </trkpt>
      <trkpt lat="47.82989" lon="0.33706">
        <ele>168</ele>
        <time>2016-06-18T06:27:42Z</time>
      </trkpt>
      <trkpt lat="47.82991" lon="0.33693">
        <ele>168.2</ele>
        <time>2016-06-18T06:27:53Z</time>
      </trkpt>
      <trkpt lat="47.82993" lon="0.33677">
        <ele>170.3</ele>
        <time>2016-06-18T06:28:07Z</time>
      </trkpt>
      <trkpt lat="47.82995" lon="0.33662">
        <ele>172.3</ele>
        <time>2016-06-18T06:28:19Z</time>
      </trkpt>
      <trkpt lat="47.83002" lon="0.33651">
        <ele>169.6</ele>
        <time>2016-06-18T06:28:29Z</time>
      </trkpt>
      <trkpt lat="47.83004" lon="0.33637">
        <ele>169.9</ele>
        <time>2016-06-18T06:28:38Z</time>
      </trkpt>
      <trkpt lat="47.83008" lon="0.33625">
        <ele>170.3</ele>
        <time>2016-06-18T06:28:51Z</time>
      </trkpt>
      <trkpt lat="47.83007" lon="0.33611">
        <ele>169.1</ele>
        <time>2016-06-18T06:29:04Z</time>
      </trkpt>
      <trkpt lat="47.83008" lon="0.33597">
        <ele>169.7</ele>
        <time>2016-06-18T06:29:13Z</time>
      </trkpt>
      <trkpt lat="47.83008" lon="0.33583">
        <ele>169.1</ele>
        <time>2016-06-18T06:29:23Z</time>
      </trkpt>
      <trkpt lat="47.83006" lon="0.33569">
        <ele>169</ele>
        <time>2016-06-18T06:29:31Z</time>
      </trkpt>
      <trkpt lat="47.83003" lon="0.33555">
        <ele>169.4</ele>
        <time>2016-06-18T06:29:41Z</time>
      </trkpt>
      <trkpt lat="47.82997" lon="0.33545">
        <ele>168.9</ele>
        <time>2016-06-18T06:29:50Z</time>
      </trkpt>
      <trkpt lat="47.82991" lon="0.33533">
        <ele>172.2</ele>
        <time>2016-06-18T06:29:59Z</time>
      </trkpt>
      <trkpt lat="47.82983" lon="0.33525">
        <ele>169.9</ele>
        <time>2016-06-18T06:30:07Z</time>
      </trkpt>
      <trkpt lat="47.82976" lon="0.33516">
        <ele>172.1</ele>
        <time>2016-06-18T06:30:16Z</time>
      </trkpt>
      <trkpt lat="47.8297" lon="0.33504">
        <ele>173.8</ele>
        <time>2016-06-18T06:30:25Z</time>
      </trkpt>
      <trkpt lat="47.82964" lon="0.33493">
        <ele>169.7</ele>
        <time>2016-06-18T06:30:33Z</time>
      </trkpt>
      <trkpt lat="47.8296" lon="0.33481">
        <ele>170.4</ele>
        <time>2016-06-18T06:30:42Z</time>
      </trkpt>
      <trkpt lat="47.82956" lon="0.33467">
        <ele>172.4</ele>
        <time>2016-06-18T06:30:52Z</time>
      </trkpt>
      <trkpt lat="47.82953" lon="0.33452">
        <ele>170.9</ele>
        <time>2016-06-18T06:31:17Z</time>
      </trkpt>
      <trkpt lat="47.82952" lon="0.33439">
        <ele>168.9</ele>
        <time>2016-06-18T06:31:24Z</time>
      </trkpt>
      <trkpt lat="47.82951" lon="0.33426">
        <ele>171.9</ele>
        <time>2016-06-18T06:31:32Z</time>
      </trkpt>
      <trkpt lat="47.82949" lon="0.33411">
        <ele>166.6</ele>
        <time>2016-06-18T06:31:40Z</time>
      </trkpt>
      <trkpt lat="47.82947" lon="0.33397">
        <ele>170.5</ele>
        <time>2016-06-18T06:31:48Z</time>
      </trkpt>
      <trkpt lat="47.82946" lon="0.33383">
        <ele>172.1</ele>
        <time>2016-06-18T06:31:55Z</time>
      </trkpt>
      <trkpt lat="47.82946" lon="0.33369">
        <ele>168.8</ele>
        <time>2016-06-18T06:32:03Z</time>
      </trkpt>
      <trkpt lat="47.82945" lon="0.33353">
        <ele>167.6</ele>
        <time>2016-06-18T06:32:11Z</time>
      </trkpt>
      <trkpt lat="47.82947" lon="0.33339">
        <ele>169.1</ele>
        <time>2016-06-18T06:32:19Z</time>
      </trkpt>
      <trkpt lat="47.82948" lon="0.33326">
        <ele>170</ele>
        <time>2016-06-18T06:32:26Z</time>
      </trkpt>
      <trkpt lat="47.82951" lon="0.33313">
        <ele>169.9</ele>
        <time>2016-06-18T06:32:33Z</time>
      </trkpt>
      <trkpt lat="47.82954" lon="0.33299">
        <ele>166.2</ele>
        <time>2016-06-18T06:32:41Z</time>
      </trkpt>
      <trkpt lat="47.82958" lon="0.33286">
        <ele>163.3</ele>
        <time>2016-06-18T06:32:48Z</time>
      </trkpt>
      <trkpt lat="47.82961" lon="0.33273">
        <ele>165.6</ele>
        <time>2016-06-18T06:32:56Z</time>
      </trkpt>
      <trkpt lat="47.82964" lon="0.33258">
        <ele>167.5</ele>
        <time>2016-06-18T06:33:04Z</time>
      </trkpt>
      <trkpt lat="47.82967" lon="0.33244">
        <ele>164.8</ele>
        <time>2016-06-18T06:33:13Z</time>
      </trkpt>
      <trkpt lat="47.82968" lon="0.33229">
        <ele>165.8</ele>
        <time>2016-06-18T06:33:23Z</time>
      </trkpt>
      <trkpt lat="47.82968" lon="0.33215">
        <ele>164.8</ele>
        <time>2016-06-18T06:33:31Z</time>
      </trkpt>
      <trkpt lat="47.82966" lon="0.33202">
        <ele>164.5</ele>
        <time>2016-06-18T06:33:40Z</time>
      </trkpt>
      <trkpt lat="47.82975" lon="0.33198">
        <ele>165.5</ele>
        <time>2016-06-18T06:35:53Z</time>
      </trkpt>
      <trkpt lat="47.82984" lon="0.33195">
        <ele>163</ele>
        <time>2016-06-18T06:36:00Z</time>
      </trkpt>
      <trkpt lat="47.82994" lon="0.33192">
        <ele>160.7</ele>
        <time>2016-06-18T06:36:08Z</time>
      </trkpt>
      <trkpt lat="47.83003" lon="0.33188">
        <ele>158.1</ele>
        <time>2016-06-18T06:36:15Z</time>
      </trkpt>
      <trkpt lat="47.83013" lon="0.33187">
        <ele>156.7</ele>
        <time>2016-06-18T06:36:22Z</time>
      </trkpt>
      <trkpt lat="47.83023" lon="0.33186">
        <ele>159</ele>
        <time>2016-06-18T06:36:29Z</time>
      </trkpt>
      <trkpt lat="47.83032" lon="0.33187">
        <ele>159.3</ele>
        <time>2016-06-18T06:36:36Z</time>
      </trkpt>
      <trkpt lat="47.83041" lon="0.33187">
        <ele>154.7</ele>
        <time>2016-06-18T06:36:43Z</time>
      </trkpt>
      <trkpt lat="47.83051" lon="0.33189">
        <ele>156.6</ele>
        <time>2016-06-18T06:36:50Z</time>
      </trkpt>
      <trkpt lat="47.8306" lon="0.3319">
        <ele>156</ele>
        <time>2016-06-18T06:36:57Z</time>
      </trkpt>
      <trkpt lat="47.8307" lon="0.33193">
        <ele>153.3</ele>
        <time>2016-06-18T06:37:04Z</time>
      </trkpt>
      <trkpt lat="47.83079" lon="0.33195">
        <ele>152.3</ele>
        <time>2016-06-18T06:37:11Z</time>
      </trkpt>
      <trkpt lat="47.83089" lon="0.33197">
        <ele>154.1</ele>
        <time>2016-06-18T06:37:18Z</time>
      </trkpt>
      <trkpt lat="47.83098" lon="0.33199">
        <ele>152.8</ele>
        <time>2016-06-18T06:37:25Z</time>
      </trkpt>
      <trkpt lat="47.83107" lon="0.332">
        <ele>152.3</ele>
        <time>2016-06-18T06:37:32Z</time>
      </trkpt>
      <trkpt lat="47.83116" lon="0.33202">
        <ele>151.6</ele>
        <time>2016-06-18T06:37:39Z</time>
      </trkpt>
      <trkpt lat="47.83126" lon="0.33203">
        <ele>150.7</ele>
        <time>2016-06-18T06:37:46Z</time>
      </trkpt>
      <trkpt lat="47.83135" lon="0.33203">
        <ele>150.1</ele>
        <time>2016-06-18T06:37:53Z</time>
      </trkpt>
      <trkpt lat="47.83144" lon="0.33205">
        <ele>149.1</ele>
        <time>2016-06-18T06:38:00Z</time>
      </trkpt>
      <trkpt lat="47.83154" lon="0.33207">
        <ele>148.1</ele>
        <time>2016-06-18T06:38:08Z</time>
      </trkpt>
      <trkpt lat="47.83164" lon="0.3321">
        <ele>147.5</ele>
        <time>2016-06-18T06:38:16Z</time>
      </trkpt>
      <trkpt lat="47.83174" lon="0.33212">
        <ele>147.6</ele>
        <time>2016-06-18T06:38:24Z</time>
      </trkpt>
      <trkpt lat="47.83184" lon="0.33213">
        <ele>147.5</ele>
        <time>2016-06-18T06:38:32Z</time>
      </trkpt>
      <trkpt lat="47.83194" lon="0.33214">
        <ele>147.2</ele>
        <time>2016-06-18T06:38:40Z</time>
      </trkpt>
      <trkpt lat="47.83203" lon="0.33213">
        <ele>147</ele>
        <time>2016-06-18T06:38:47Z</time>
      </trkpt>
      <trkpt lat="47.83212" lon="0.33211">
        <ele>145.9</ele>
        <time>2016-06-18T06:38:54Z</time>
      </trkpt>
      <trkpt lat="47.83222" lon="0.33212">
        <ele>145.2</ele>
        <time>2016-06-18T06:39:02Z</time>
      </trkpt>
      <trkpt lat="47.83231" lon="0.33212">
        <ele>145.1</ele>
        <time>2016-06-18T06:39:09Z</time>
      </trkpt>
      <trkpt lat="47.83241" lon="0.33211">
        <ele>144.6</ele>
        <time>2016-06-18T06:39:17Z</time>
      </trkpt>
      <trkpt lat="47.83251" lon="0.33209">
        <ele>145.3</ele>
        <time>2016-06-18T06:39:24Z</time>
      </trkpt>
      <trkpt lat="47.8326" lon="0.33211">
        <ele>142.9</ele>
        <time>2016-06-18T06:39:34Z</time>
      </trkpt>
      <trkpt lat="47.83269" lon="0.33208">
        <ele>141.2</ele>
        <time>2016-06-18T06:39:42Z</time>
      </trkpt>
      <trkpt lat="47.83279" lon="0.33207">
        <ele>143.1</ele>
        <time>2016-06-18T06:39:49Z</time>
      </trkpt>
      <trkpt lat="47.83288" lon="0.33205">
        <ele>142.7</ele>
        <time>2016-06-18T06:39:57Z</time>
      </trkpt>
      <trkpt lat="47.83298" lon="0.332">
        <ele>146.5</ele>
        <time>2016-06-18T06:40:05Z</time>
      </trkpt>
      <trkpt lat="47.83308" lon="0.33196">
        <ele>147.6</ele>
        <time>2016-06-18T06:40:13Z</time>
      </trkpt>
      <trkpt lat="47.83317" lon="0.33191">
        <ele>147.5</ele>
        <time>2016-06-18T06:40:21Z</time>
      </trkpt>
      <trkpt lat="47.83326" lon="0.33187">
        <ele>140.3</ele>
        <time>2016-06-18T06:40:27Z</time>
      </trkpt>
      <trkpt lat="47.83335" lon="0.33182">
        <ele>146.4</ele>
        <time>2016-06-18T06:40:35Z</time>
      </trkpt>
      <trkpt lat="47.83344" lon="0.33179">
        <ele>149.5</ele>
        <time>2016-06-18T06:40:43Z</time>
      </trkpt>
      <trkpt lat="47.83354" lon="0.33172">
        <ele>145.4</ele>
        <time>2016-06-18T06:40:50Z</time>
      </trkpt>
      <trkpt lat="47.83363" lon="0.33169">
        <ele>150.1</ele>
        <time>2016-06-18T06:41:00Z</time>
      </trkpt>
      <trkpt lat="47.83372" lon="0.33163">
        <ele>149</ele>
        <time>2016-06-18T06:41:10Z</time>
      </trkpt>
      <trkpt lat="47.83381" lon="0.33159">
        <ele>151.1</ele>
        <time>2016-06-18T06:41:19Z</time>
      </trkpt>
      <trkpt lat="47.8339" lon="0.33154">
        <ele>150.1</ele>
        <time>2016-06-18T06:41:27Z</time>
      </trkpt>
      <trkpt lat="47.83399" lon="0.3315">
        <ele>150.5</ele>
        <time>2016-06-18T06:41:36Z</time>
      </trkpt>
      <trkpt lat="47.83408" lon="0.33142">
        <ele>152.4</ele>
        <time>2016-06-18T06:41:44Z</time>
      </trkpt>
      <trkpt lat="47.83416" lon="0.33135">
        <ele>150.1</ele>
        <time>2016-06-18T06:41:51Z</time>
      </trkpt>
      <trkpt lat="47.83424" lon="0.33128">
        <ele>151.9</ele>
        <time>2016-06-18T06:41:59Z</time>
      </trkpt>
      <trkpt lat="47.83432" lon="0.3312">
        <ele>151.4</ele>
        <time>2016-06-18T06:42:08Z</time>
      </trkpt>
      <trkpt lat="47.83441" lon="0.33113">
        <ele>152.3</ele>
        <time>2016-06-18T06:42:17Z</time>
      </trkpt>
      <trkpt lat="47.8345" lon="0.33106">
        <ele>144.1</ele>
        <time>2016-06-18T06:42:26Z</time>
      </trkpt>
      <trkpt lat="47.83457" lon="0.331">
        <ele>150.2</ele>
        <time>2016-06-18T06:42:34Z</time>
      </trkpt>
      <trkpt lat="47.83465" lon="0.33093">
        <ele>149.6</ele>
        <time>2016-06-18T06:42:42Z</time>
      </trkpt>
      <trkpt lat="47.83473" lon="0.33084">
        <ele>150.8</ele>
        <time>2016-06-18T06:42:50Z</time>
      </trkpt>
      <trkpt lat="47.83481" lon="0.33076">
        <ele>152.6</ele>
        <time>2016-06-18T06:42:58Z</time>
      </trkpt>
      <trkpt lat="47.83488" lon="0.33069">
        <ele>152.9</ele>
        <time>2016-06-18T06:43:04Z</time>
      </trkpt>
      <trkpt lat="47.83497" lon="0.33061">
        <ele>149.5</ele>
        <time>2016-06-18T06:43:12Z</time>
      </trkpt>
      <trkpt lat="47.83505" lon="0.33055">
        <ele>151.5</ele>
        <time>2016-06-18T06:43:20Z</time>
      </trkpt>
      <trkpt lat="47.83513" lon="0.33047">
        <ele>152.3</ele>
        <time>2016-06-18T06:43:27Z</time>
      </trkpt>
      <trkpt lat="47.83522" lon="0.3304">
        <ele>153.2</ele>
        <time>2016-06-18T06:43:34Z</time>
      </trkpt>
      <trkpt lat="47.8353" lon="0.33034">
        <ele>150.6</ele>
        <time>2016-06-18T06:43:42Z</time>
      </trkpt>
      <trkpt lat="47.83538" lon="0.33028">
        <ele>148.8</ele>
        <time>2016-06-18T06:43:50Z</time>
      </trkpt>
      <trkpt lat="47.83547" lon="0.33022">
        <ele>152.1</ele>
        <time>2016-06-18T06:43:59Z</time>
      </trkpt>
      <trkpt lat="47.83555" lon="0.33016">
        <ele>152.5</ele>
        <time>2016-06-18T06:44:06Z</time>
      </trkpt>
      <trkpt lat="47.83563" lon="0.3301">
        <ele>148.1</ele>
        <time>2016-06-18T06:44:13Z</time>
      </trkpt>
      <trkpt lat="47.83573" lon="0.33005">
        <ele>149.7</ele>
        <time>2016-06-18T06:44:21Z</time>
      </trkpt>
      <trkpt lat="47.83582" lon="0.32998">
        <ele>152.5</ele>
        <time>2016-06-18T06:44:28Z</time>
      </trkpt>
      <trkpt lat="47.83591" lon="0.32994">
        <ele>153.4</ele>
        <time>2016-06-18T06:44:35Z</time>
      </trkpt>
      <trkpt lat="47.83598" lon="0.32987">
        <ele>150.7</ele>
        <time>2016-06-18T06:44:41Z</time>
      </trkpt>
      <trkpt lat="47.83607" lon="0.32982">
        <ele>151.3</ele>
        <time>2016-06-18T06:44:49Z</time>
      </trkpt>
      <trkpt lat="47.83616" lon="0.32975">
        <ele>150</ele>
        <time>2016-06-18T06:44:56Z</time>
      </trkpt>
      <trkpt lat="47.8362" lon="0.32962">
        <ele>148.2</ele>
        <time>2016-06-18T06:45:56Z</time>
      </trkpt>
      <trkpt lat="47.83616" lon="0.32949">
        <ele>147.1</ele>
        <time>2016-06-18T06:46:04Z</time>
      </trkpt>
      <trkpt lat="47.83613" lon="0.32935">
        <ele>148.9</ele>
        <time>2016-06-18T06:46:12Z</time>
      </trkpt>
      <trkpt lat="47.8361" lon="0.32921">
        <ele>149.4</ele>
        <time>2016-06-18T06:46:20Z</time>
      </trkpt>
      <trkpt lat="47.83609" lon="0.32907">
        <ele>146</ele>
        <time>2016-06-18T06:46:27Z</time>
      </trkpt>
      <trkpt lat="47.83607" lon="0.32893">
        <ele>147.5</ele>
        <time>2016-06-18T06:46:35Z</time>
      </trkpt>
      <trkpt lat="47.83603" lon="0.32881">
        <ele>149.9</ele>
        <time>2016-06-18T06:46:42Z</time>
      </trkpt>
      <trkpt lat="47.83599" lon="0.32868">
        <ele>146.7</ele>
        <time>2016-06-18T06:46:50Z</time>
      </trkpt>
      <trkpt lat="47.83596" lon="0.32854">
        <ele>147.2</ele>
        <time>2016-06-18T06:46:58Z</time>
      </trkpt>
      <trkpt lat="47.83592" lon="0.32842">
        <ele>149.8</ele>
        <time>2016-06-18T06:47:06Z</time>
      </trkpt>
      <trkpt lat="47.83588" lon="0.32829">
        <ele>151</ele>
        <time>2016-06-18T06:47:14Z</time>
      </trkpt>
      <trkpt lat="47.83585" lon="0.32815">
        <ele>145</ele>
        <time>2016-06-18T06:47:22Z</time>
      </trkpt>
      <trkpt lat="47.83581" lon="0.32803">
        <ele>151.5</ele>
        <time>2016-06-18T06:47:30Z</time>
      </trkpt>
      <trkpt lat="47.83576" lon="0.32791">
        <ele>153.3</ele>
        <time>2016-06-18T06:47:37Z</time>
      </trkpt>
      <trkpt lat="47.8357" lon="0.32779">
        <ele>151.3</ele>
        <time>2016-06-18T06:47:44Z</time>
      </trkpt>
      <trkpt lat="47.83567" lon="0.32765">
        <ele>148.6</ele>
        <time>2016-06-18T06:47:53Z</time>
      </trkpt>
      <trkpt lat="47.83564" lon="0.3275">
        <ele>153.3</ele>
        <time>2016-06-18T06:48:01Z</time>
      </trkpt>
      <trkpt lat="47.83559" lon="0.32738">
        <ele>148.9</ele>
        <time>2016-06-18T06:48:08Z</time>
      </trkpt>
      <trkpt lat="47.83556" lon="0.32726">
        <ele>151</ele>
        <time>2016-06-18T06:48:15Z</time>
      </trkpt>
      <trkpt lat="47.83553" lon="0.32713">
        <ele>154.9</ele>
        <time>2016-06-18T06:48:23Z</time>
      </trkpt>
      <trkpt lat="47.83549" lon="0.32699">
        <ele>156.5</ele>
        <time>2016-06-18T06:48:30Z</time>
      </trkpt>
      <trkpt lat="47.83546" lon="0.32685">
        <ele>153.3</ele>
        <time>2016-06-18T06:48:38Z</time>
      </trkpt>
      <trkpt lat="47.83544" lon="0.32672">
        <ele>155</ele>
        <time>2016-06-18T06:48:46Z</time>
      </trkpt>
      <trkpt lat="47.83543" lon="0.32657">
        <ele>155.7</ele>
        <time>2016-06-18T06:48:54Z</time>
      </trkpt>
      <trkpt lat="47.83541" lon="0.32642">
        <ele>155.6</ele>
        <time>2016-06-18T06:49:02Z</time>
      </trkpt>
      <trkpt lat="47.8354" lon="0.32627">
        <ele>155.6</ele>
        <time>2016-06-18T06:49:10Z</time>
      </trkpt>
      <trkpt lat="47.83541" lon="0.32613">
        <ele>155.9</ele>
        <time>2016-06-18T06:49:32Z</time>
      </trkpt>
      <trkpt lat="47.8354" lon="0.32599">
        <ele>156.2</ele>
        <time>2016-06-18T06:49:44Z</time>
      </trkpt>
      <trkpt lat="47.83539" lon="0.32585">
        <ele>156.7</ele>
        <time>2016-06-18T06:49:55Z</time>
      </trkpt>
      <trkpt lat="47.8354" lon="0.3257">
        <ele>154.8</ele>
        <time>2016-06-18T06:50:05Z</time>
      </trkpt>
      <trkpt lat="47.83541" lon="0.32556">
        <ele>156.8</ele>
        <time>2016-06-18T06:50:14Z</time>
      </trkpt>
      <trkpt lat="47.83543" lon="0.32542">
        <ele>155.5</ele>
        <time>2016-06-18T06:50:26Z</time>
      </trkpt>
      <trkpt lat="47.83544" lon="0.32529">
        <ele>154.3</ele>
        <time>2016-06-18T06:50:34Z</time>
      </trkpt>
      <trkpt lat="47.83543" lon="0.32514">
        <ele>155.8</ele>
        <time>2016-06-18T06:50:44Z</time>
      </trkpt>
      <trkpt lat="47.83543" lon="0.32499">
        <ele>158</ele>
        <time>2016-06-18T06:50:53Z</time>
      </trkpt>
      <trkpt lat="47.83543" lon="0.32485">
        <ele>156.5</ele>
        <time>2016-06-18T06:51:02Z</time>
      </trkpt>
      <trkpt lat="47.83543" lon="0.32471">
        <ele>157</ele>
        <time>2016-06-18T06:51:11Z</time>
      </trkpt>
      <trkpt lat="47.83543" lon="0.32456">
        <ele>156.5</ele>
        <time>2016-06-18T06:51:20Z</time>
      </trkpt>
      <trkpt lat="47.83543" lon="0.32442">
        <ele>156.9</ele>
        <time>2016-06-18T06:51:29Z</time>
      </trkpt>
      <trkpt lat="47.83542" lon="0.32428">
        <ele>157.3</ele>
        <time>2016-06-18T06:51:40Z</time>
      </trkpt>
      <trkpt lat="47.83545" lon="0.32416">
        <ele>157.3</ele>
        <time>2016-06-18T06:51:52Z</time>
      </trkpt>
      <trkpt lat="47.83551" lon="0.32405">
        <ele>157.6</ele>
        <time>2016-06-18T06:52:02Z</time>
      </trkpt>
      <trkpt lat="47.83555" lon="0.32391">
        <ele>156.3</ele>
        <time>2016-06-18T06:52:14Z</time>
      </trkpt>
      <trkpt lat="47.83556" lon="0.32377">
        <ele>156.1</ele>
        <time>2016-06-18T06:52:24Z</time>
      </trkpt>
      <trkpt lat="47.83554" lon="0.32364">
        <ele>155.6</ele>
        <time>2016-06-18T06:52:43Z</time>
      </trkpt>
      <trkpt lat="47.83551" lon="0.32351">
        <ele>159.1</ele>
        <time>2016-06-18T06:52:51Z</time>
      </trkpt>
      <trkpt lat="47.83547" lon="0.32338">
        <ele>159</ele>
        <time>2016-06-18T06:53:04Z</time>
      </trkpt>
      <trkpt lat="47.83542" lon="0.32326">
        <ele>158.6</ele>
        <time>2016-06-18T06:53:17Z</time>
      </trkpt>
      <trkpt lat="47.83539" lon="0.32313">
        <ele>159.8</ele>
        <time>2016-06-18T06:53:25Z</time>
      </trkpt>
      <trkpt lat="47.83535" lon="0.323">
        <ele>158.5</ele>
        <time>2016-06-18T06:53:33Z</time>
      </trkpt>
      <trkpt lat="47.83532" lon="0.32286">
        <ele>159.7</ele>
        <time>2016-06-18T06:53:47Z</time>
      </trkpt>
      <trkpt lat="47.83529" lon="0.32272">
        <ele>156.8</ele>
        <time>2016-06-18T06:54:02Z</time>
      </trkpt>
      <trkpt lat="47.83528" lon="0.32257">
        <ele>156.1</ele>
        <time>2016-06-18T06:54:18Z</time>
      </trkpt>
      <trkpt lat="47.83532" lon="0.32245">
        <ele>159.8</ele>
        <time>2016-06-18T06:54:27Z</time>
      </trkpt>
      <trkpt lat="47.83534" lon="0.32231">
        <ele>160.5</ele>
        <time>2016-06-18T06:54:40Z</time>
      </trkpt>
      <trkpt lat="47.83538" lon="0.32217">
        <ele>159</ele>
        <time>2016-06-18T06:54:58Z</time>
      </trkpt>
      <trkpt lat="47.83541" lon="0.32204">
        <ele>158.4</ele>
        <time>2016-06-18T06:55:12Z</time>
      </trkpt>
      <trkpt lat="47.83547" lon="0.32192">
        <ele>159.2</ele>
        <time>2016-06-18T06:55:27Z</time>
      </trkpt>
      <trkpt lat="47.83551" lon="0.3218">
        <ele>160.3</ele>
        <time>2016-06-18T06:55:37Z</time>
      </trkpt>
      <trkpt lat="47.83555" lon="0.32167">
        <ele>159</ele>
        <time>2016-06-18T06:55:47Z</time>
      </trkpt>
      <trkpt lat="47.83561" lon="0.32156">
        <ele>159.4</ele>
        <time>2016-06-18T06:55:56Z</time>
      </trkpt>
      <trkpt lat="47.83568" lon="0.32148">
        <ele>159.4</ele>
        <time>2016-06-18T06:56:08Z</time>
      </trkpt>
      <trkpt lat="47.83567" lon="0.32134">
        <ele>159.3</ele>
        <time>2016-06-18T06:56:24Z</time>
      </trkpt>
      <trkpt lat="47.83569" lon="0.32121">
        <ele>158.2</ele>
        <time>2016-06-18T06:56:39Z</time>
      </trkpt>
      <trkpt lat="47.8357" lon="0.32106">
        <ele>158.6</ele>
        <time>2016-06-18T06:56:51Z</time>
      </trkpt>
      <trkpt lat="47.83574" lon="0.32092">
        <ele>158.4</ele>
        <time>2016-06-18T06:57:03Z</time>
      </trkpt>
      <trkpt lat="47.83577" lon="0.3208">
        <ele>157.6</ele>
        <time>2016-06-18T06:57:20Z</time>
      </trkpt>
      <trkpt lat="47.83579" lon="0.32065">
        <ele>158.4</ele>
        <time>2016-06-18T06:57:29Z</time>
      </trkpt>
      <trkpt lat="47.83582" lon="0.32051">
        <ele>158.8</ele>
        <time>2016-06-18T06:57:40Z</time>
      </trkpt>
      <trkpt lat="47.83587" lon="0.32037">
        <ele>158.5</ele>
        <time>2016-06-18T06:57:47Z</time>
      </trkpt>
      <trkpt lat="47.83591" lon="0.32025">
        <ele>157.5</ele>
        <time>2016-06-18T06:57:54Z</time>
      </trkpt>
      <trkpt lat="47.836" lon="0.32018">
        <ele>158.5</ele>
        <time>2016-06-18T06:58:17Z</time>
      </trkpt>
      <trkpt lat="47.83609" lon="0.32023">
        <ele>158</ele>
        <time>2016-06-18T06:58:53Z</time>
      </trkpt>
      <trkpt lat="47.83618" lon="0.3203">
        <ele>159.9</ele>
        <time>2016-06-18T06:59:04Z</time>
      </trkpt>
      <trkpt lat="47.83627" lon="0.32036">
        <ele>158.9</ele>
        <time>2016-06-18T06:59:17Z</time>
      </trkpt>
      <trkpt lat="47.83636" lon="0.32041">
        <ele>157.7</ele>
        <time>2016-06-18T06:59:29Z</time>
      </trkpt>
      <trkpt lat="47.83646" lon="0.32045">
        <ele>160.7</ele>
        <time>2016-06-18T06:59:35Z</time>
      </trkpt>
      <trkpt lat="47.83656" lon="0.32047">
        <ele>154.2</ele>
        <time>2016-06-18T06:59:39Z</time>
      </trkpt>
      <trkpt lat="47.83666" lon="0.3205">
        <ele>153.4</ele>
        <time>2016-06-18T06:59:45Z</time>
      </trkpt>
      <trkpt lat="47.83675" lon="0.32054">
        <ele>157.3</ele>
        <time>2016-06-18T06:59:52Z</time>
      </trkpt>
      <trkpt lat="47.83684" lon="0.32057">
        <ele>157.3</ele>
        <time>2016-06-18T07:00:03Z</time>
      </trkpt>
      <trkpt lat="47.83693" lon="0.32057">
        <ele>157.1</ele>
        <time>2016-06-18T07:00:12Z</time>
      </trkpt>
      <trkpt lat="47.83703" lon="0.3206">
        <ele>158.3</ele>
        <time>2016-06-18T07:00:23Z</time>
      </trkpt>
      <trkpt lat="47.83712" lon="0.32065">
        <ele>153.2</ele>
        <time>2016-06-18T07:00:33Z</time>
      </trkpt>
      <trkpt lat="47.83721" lon="0.32071">
        <ele>157.3</ele>
        <time>2016-06-18T07:00:43Z</time>
      </trkpt>
      <trkpt lat="47.8373" lon="0.32074">
        <ele>154</ele>
        <time>2016-06-18T07:00:52Z</time>
      </trkpt>
      <trkpt lat="47.8374" lon="0.32075">
        <ele>147.8</ele>
        <time>2016-06-18T07:00:59Z</time>
      </trkpt>
      <trkpt lat="47.8375" lon="0.32074">
        <ele>147.8</ele>
        <time>2016-06-18T07:01:09Z</time>
      </trkpt>
      <trkpt lat="47.83759" lon="0.32079">
        <ele>154.6</ele>
        <time>2016-06-18T07:01:40Z</time>
      </trkpt>
      <trkpt lat="47.83768" lon="0.32073">
        <ele>155.8</ele>
        <time>2016-06-18T07:01:54Z</time>
      </trkpt>
      <trkpt lat="47.83777" lon="0.3207">
        <ele>155.9</ele>
        <time>2016-06-18T07:02:15Z</time>
      </trkpt>
      <trkpt lat="47.83786" lon="0.32073">
        <ele>156.8</ele>
        <time>2016-06-18T07:02:24Z</time>
      </trkpt>
      <trkpt lat="47.83795" lon="0.32077">
        <ele>154.8</ele>
        <time>2016-06-18T07:02:34Z</time>
      </trkpt>
      <trkpt lat="47.83804" lon="0.32075">
        <ele>156</ele>
        <time>2016-06-18T07:02:43Z</time>
      </trkpt>
      <trkpt lat="47.83814" lon="0.32073">
        <ele>157.1</ele>
        <time>2016-06-18T07:02:53Z</time>
      </trkpt>
      <trkpt lat="47.83824" lon="0.32074">
        <ele>157.8</ele>
        <time>2016-06-18T07:03:02Z</time>
      </trkpt>
      <trkpt lat="47.83834" lon="0.32073">
        <ele>157.3</ele>
        <time>2016-06-18T07:03:14Z</time>
      </trkpt>
      <trkpt lat="47.83844" lon="0.32074">
        <ele>157.3</ele>
        <time>2016-06-18T07:03:23Z</time>
      </trkpt>
      <trkpt lat="47.83853" lon="0.32074">
        <ele>158.8</ele>
        <time>2016-06-18T07:03:31Z</time>
      </trkpt>
      <trkpt lat="47.83863" lon="0.32075">
        <ele>158.7</ele>
        <time>2016-06-18T07:03:41Z</time>
      </trkpt>
      <trkpt lat="47.83871" lon="0.32072">
        <ele>156.7</ele>
        <time>2016-06-18T07:03:48Z</time>
      </trkpt>
      <trkpt lat="47.83881" lon="0.3207">
        <ele>157.8</ele>
        <time>2016-06-18T07:03:55Z</time>
      </trkpt>
      <trkpt lat="47.8389" lon="0.32069">
        <ele>157.2</ele>
        <time>2016-06-18T07:04:03Z</time>
      </trkpt>
      <trkpt lat="47.839" lon="0.32068">
        <ele>155.9</ele>
        <time>2016-06-18T07:04:11Z</time>
      </trkpt>
      <trkpt lat="47.83909" lon="0.32066">
        <ele>159.7</ele>
        <time>2016-06-18T07:04:19Z</time>
      </trkpt>
      <trkpt lat="47.83919" lon="0.32065">
        <ele>157.8</ele>
        <time>2016-06-18T07:04:26Z</time>
      </trkpt>
      <trkpt lat="47.83928" lon="0.3206">
        <ele>154</ele>
        <time>2016-06-18T07:04:44Z</time>
      </trkpt>
      <trkpt lat="47.83937" lon="0.32058">
        <ele>160.4</ele>
        <time>2016-06-18T07:04:55Z</time>
      </trkpt>
      <trkpt lat="47.83947" lon="0.32059">
        <ele>156</ele>
        <time>2016-06-18T07:05:03Z</time>
      </trkpt>
      <trkpt lat="47.83956" lon="0.32057">
        <ele>159.9</ele>
        <time>2016-06-18T07:05:11Z</time>
      </trkpt>
      <trkpt lat="47.83965" lon="0.32056">
        <ele>155</ele>
        <time>2016-06-18T07:05:19Z</time>
      </trkpt>
      <trkpt lat="47.83975" lon="0.32054">
        <ele>156.3</ele>
        <time>2016-06-18T07:05:28Z</time>
      </trkpt>
      <trkpt lat="47.83986" lon="0.3205">
        <ele>160.2</ele>
        <time>2016-06-18T07:05:37Z</time>
      </trkpt>
      <trkpt lat="47.83995" lon="0.3205">
        <ele>161.1</ele>
        <time>2016-06-18T07:05:43Z</time>
      </trkpt>
      <trkpt lat="47.84004" lon="0.32057">
        <ele>159.5</ele>
        <time>2016-06-18T07:05:49Z</time>
      </trkpt>
      <trkpt lat="47.84014" lon="0.32054">
        <ele>152.5</ele>
        <time>2016-06-18T07:05:55Z</time>
      </trkpt>
      <trkpt lat="47.84023" lon="0.32053">
        <ele>157.7</ele>
        <time>2016-06-18T07:06:02Z</time>
      </trkpt>
      <trkpt lat="47.84034" lon="0.32049">
        <ele>160.8</ele>
        <time>2016-06-18T07:06:11Z</time>
      </trkpt>
      <trkpt lat="47.84042" lon="0.32044">
        <ele>160.3</ele>
        <time>2016-06-18T07:06:21Z</time>
      </trkpt>
      <trkpt lat="47.84051" lon="0.32042">
        <ele>160.1</ele>
        <time>2016-06-18T07:06:28Z</time>
      </trkpt>
      <trkpt lat="47.84061" lon="0.32037">
        <ele>153.6</ele>
        <time>2016-06-18T07:06:35Z</time>
      </trkpt>
      <trkpt lat="47.84071" lon="0.32035">
        <ele>154</ele>
        <time>2016-06-18T07:06:42Z</time>
      </trkpt>
      <trkpt lat="47.8408" lon="0.32034">
        <ele>157.6</ele>
        <time>2016-06-18T07:06:49Z</time>
      </trkpt>
      <trkpt lat="47.84089" lon="0.32032">
        <ele>159</ele>
        <time>2016-06-18T07:06:55Z</time>
      </trkpt>
      <trkpt lat="47.84098" lon="0.3203">
        <ele>159.3</ele>
        <time>2016-06-18T07:07:04Z</time>
      </trkpt>
      <trkpt lat="47.84108" lon="0.32029">
        <ele>159.5</ele>
        <time>2016-06-18T07:07:11Z</time>
      </trkpt>
      <trkpt lat="47.84117" lon="0.32028">
        <ele>159.8</ele>
        <time>2016-06-18T07:07:18Z</time>
      </trkpt>
      <trkpt lat="47.84127" lon="0.32025">
        <ele>159.3</ele>
        <time>2016-06-18T07:07:25Z</time>
      </trkpt>
      <trkpt lat="47.84137" lon="0.32022">
        <ele>155.3</ele>
        <time>2016-06-18T07:07:32Z</time>
      </trkpt>
      <trkpt lat="47.84147" lon="0.32021">
        <ele>153.5</ele>
        <time>2016-06-18T07:07:40Z</time>
      </trkpt>
      <trkpt lat="47.84156" lon="0.32015">
        <ele>156.6</ele>
        <time>2016-06-18T07:08:02Z</time>
      </trkpt>
      <trkpt lat="47.84165" lon="0.32013">
        <ele>157.1</ele>
        <time>2016-06-18T07:08:10Z</time>
      </trkpt>
      <trkpt lat="47.84174" lon="0.32011">
        <ele>157.6</ele>
        <time>2016-06-18T07:08:17Z</time>
      </trkpt>
      <trkpt lat="47.84184" lon="0.32008">
        <ele>158.2</ele>
        <time>2016-06-18T07:08:25Z</time>
      </trkpt>
      <trkpt lat="47.84193" lon="0.32008">
        <ele>149.7</ele>
        <time>2016-06-18T07:08:34Z</time>
      </trkpt>
      <trkpt lat="47.84202" lon="0.32005">
        <ele>153.2</ele>
        <time>2016-06-18T07:08:40Z</time>
      </trkpt>
      <trkpt lat="47.84211" lon="0.32004">
        <ele>155.5</ele>
        <time>2016-06-18T07:08:48Z</time>
      </trkpt>
      <trkpt lat="47.8422" lon="0.32007">
        <ele>155.5</ele>
        <time>2016-06-18T07:08:56Z</time>
      </trkpt>
      <trkpt lat="47.84231" lon="0.32005">
        <ele>155.6</ele>
        <time>2016-06-18T07:09:02Z</time>
      </trkpt>
      <trkpt lat="47.84241" lon="0.32008">
        <ele>155.5</ele>
        <time>2016-06-18T07:09:10Z</time>
      </trkpt>
      <trkpt lat="47.8425" lon="0.32013">
        <ele>154</ele>
        <time>2016-06-18T07:09:17Z</time>
      </trkpt>
      <trkpt lat="47.84259" lon="0.32009">
        <ele>153</ele>
        <time>2016-06-18T07:09:25Z</time>
      </trkpt>
      <trkpt lat="47.8427" lon="0.32008">
        <ele>147.1</ele>
        <time>2016-06-18T07:09:32Z</time>
      </trkpt>
      <trkpt lat="47.84279" lon="0.32007">
        <ele>148.1</ele>
        <time>2016-06-18T07:09:38Z</time>
      </trkpt>
      <trkpt lat="47.84289" lon="0.32006">
        <ele>152.9</ele>
        <time>2016-06-18T07:09:46Z</time>
      </trkpt>
      <trkpt lat="47.84299" lon="0.32003">
        <ele>153.7</ele>
        <time>2016-06-18T07:09:55Z</time>
      </trkpt>
      <trkpt lat="47.84308" lon="0.32003">
        <ele>153.7</ele>
        <time>2016-06-18T07:10:04Z</time>
      </trkpt>
      <trkpt lat="47.84318" lon="0.32">
        <ele>152.2</ele>
        <time>2016-06-18T07:10:10Z</time>
      </trkpt>
      <trkpt lat="47.84327" lon="0.32002">
        <ele>147.1</ele>
        <time>2016-06-18T07:10:18Z</time>
      </trkpt>
      <trkpt lat="47.84337" lon="0.32001">
        <ele>143.9</ele>
        <time>2016-06-18T07:10:26Z</time>
      </trkpt>
      <trkpt lat="47.84346" lon="0.32004">
        <ele>144.3</ele>
        <time>2016-06-18T07:10:32Z</time>
      </trkpt>
      <trkpt lat="47.84355" lon="0.32005">
        <ele>148</ele>
        <time>2016-06-18T07:10:39Z</time>
      </trkpt>
      <trkpt lat="47.84365" lon="0.32003">
        <ele>149.8</ele>
        <time>2016-06-18T07:10:47Z</time>
      </trkpt>
      <trkpt lat="47.84375" lon="0.32001">
        <ele>150.4</ele>
        <time>2016-06-18T07:10:55Z</time>
      </trkpt>
      <trkpt lat="47.84384" lon="0.31999">
        <ele>150</ele>
        <time>2016-06-18T07:11:03Z</time>
      </trkpt>
      <trkpt lat="47.84394" lon="0.32001">
        <ele>149.7</ele>
        <time>2016-06-18T07:11:11Z</time>
      </trkpt>
      <trkpt lat="47.84403" lon="0.31999">
        <ele>149.8</ele>
        <time>2016-06-18T07:11:17Z</time>
      </trkpt>
      <trkpt lat="47.84412" lon="0.31997">
        <ele>150.3</ele>
        <time>2016-06-18T07:11:24Z</time>
      </trkpt>
      <trkpt lat="47.84421" lon="0.31994">
        <ele>149.8</ele>
        <time>2016-06-18T07:11:30Z</time>
      </trkpt>
      <trkpt lat="47.8443" lon="0.31992">
        <ele>149.5</ele>
        <time>2016-06-18T07:11:37Z</time>
      </trkpt>
      <trkpt lat="47.84439" lon="0.31986">
        <ele>149.6</ele>
        <time>2016-06-18T07:11:45Z</time>
      </trkpt>
      <trkpt lat="47.84448" lon="0.31982">
        <ele>147.3</ele>
        <time>2016-06-18T07:11:58Z</time>
      </trkpt>
      <trkpt lat="47.84456" lon="0.31977">
        <ele>146.1</ele>
        <time>2016-06-18T07:12:08Z</time>
      </trkpt>
      <trkpt lat="47.84465" lon="0.31973">
        <ele>147.5</ele>
        <time>2016-06-18T07:12:15Z</time>
      </trkpt>
      <trkpt lat="47.84475" lon="0.31973">
        <ele>142.7</ele>
        <time>2016-06-18T07:12:23Z</time>
      </trkpt>
      <trkpt lat="47.84482" lon="0.31964">
        <ele>146</ele>
        <time>2016-06-18T07:13:45Z</time>
      </trkpt>
      <trkpt lat="47.84486" lon="0.31951">
        <ele>145.7</ele>
        <time>2016-06-18T07:13:52Z</time>
      </trkpt>
      <trkpt lat="47.84489" lon="0.31936">
        <ele>147.6</ele>
        <time>2016-06-18T07:13:59Z</time>
      </trkpt>
      <trkpt lat="47.84488" lon="0.31921">
        <ele>147.2</ele>
        <time>2016-06-18T07:14:07Z</time>
      </trkpt>
      <trkpt lat="47.84489" lon="0.31906">
        <ele>146.7</ele>
        <time>2016-06-18T07:14:16Z</time>
      </trkpt>
      <trkpt lat="47.8449" lon="0.31891">
        <ele>146.4</ele>
        <time>2016-06-18T07:14:24Z</time>
      </trkpt>
      <trkpt lat="47.84487" lon="0.31878">
        <ele>147.3</ele>
        <time>2016-06-18T07:15:28Z</time>
      </trkpt>
      <trkpt lat="47.84488" lon="0.31864">
        <ele>146.3</ele>
        <time>2016-06-18T07:15:35Z</time>
      </trkpt>
      <trkpt lat="47.84492" lon="0.31851">
        <ele>145.9</ele>
        <time>2016-06-18T07:15:42Z</time>
      </trkpt>
      <trkpt lat="47.84493" lon="0.31837">
        <ele>145.4</ele>
        <time>2016-06-18T07:15:49Z</time>
      </trkpt>
      <trkpt lat="47.84497" lon="0.31823">
        <ele>147.5</ele>
        <time>2016-06-18T07:15:56Z</time>
      </trkpt>
      <trkpt lat="47.84497" lon="0.31809">
        <ele>146.2</ele>
        <time>2016-06-18T07:16:01Z</time>
      </trkpt>
      <trkpt lat="47.84498" lon="0.31794">
        <ele>146.5</ele>
        <time>2016-06-18T07:16:08Z</time>
      </trkpt>
      <trkpt lat="47.84496" lon="0.31779">
        <ele>148.1</ele>
        <time>2016-06-18T07:16:15Z</time>
      </trkpt>
      <trkpt lat="47.84496" lon="0.31765">
        <ele>143.5</ele>
        <time>2016-06-18T07:16:23Z</time>
      </trkpt>
      <trkpt lat="47.84496" lon="0.31751">
        <ele>145.9</ele>
        <time>2016-06-18T07:16:31Z</time>
      </trkpt>
      <trkpt lat="47.84497" lon="0.31736">
        <ele>145.5</ele>
        <time>2016-06-18T07:16:39Z</time>
      </trkpt>
      <trkpt lat="47.845" lon="0.31724">
        <ele>146.7</ele>
        <time>2016-06-18T07:16:47Z</time>
      </trkpt>
      <trkpt lat="47.84502" lon="0.3171">
        <ele>148.7</ele>
        <time>2016-06-18T07:16:54Z</time>
      </trkpt>
      <trkpt lat="47.84501" lon="0.31697">
        <ele>147.7</ele>
        <time>2016-06-18T07:17:01Z</time>
      </trkpt>
      <trkpt lat="47.84499" lon="0.31683">
        <ele>148.3</ele>
        <time>2016-06-18T07:17:07Z</time>
      </trkpt>
      <trkpt lat="47.84499" lon="0.31669">
        <ele>146.2</ele>
        <time>2016-06-18T07:17:15Z</time>
      </trkpt>
      <trkpt lat="47.84499" lon="0.31654">
        <ele>144.6</ele>
        <time>2016-06-18T07:17:36Z</time>
      </trkpt>
      <trkpt lat="47.84498" lon="0.3164">
        <ele>148.4</ele>
        <time>2016-06-18T07:18:39Z</time>
      </trkpt>
      <trkpt lat="47.84497" lon="0.31627">
        <ele>148.1</ele>
        <time>2016-06-18T07:19:07Z</time>
      </trkpt>
      <trkpt lat="47.84499" lon="0.31613">
        <ele>147.6</ele>
        <time>2016-06-18T07:19:14Z</time>
      </trkpt>
      <trkpt lat="47.845" lon="0.316">
        <ele>150.4</ele>
        <time>2016-06-18T07:19:21Z</time>
      </trkpt>
      <trkpt lat="47.845" lon="0.31586">
        <ele>149</ele>
        <time>2016-06-18T07:19:28Z</time>
      </trkpt>
      <trkpt lat="47.84501" lon="0.31572">
        <ele>148.5</ele>
        <time>2016-06-18T07:19:37Z</time>
      </trkpt>
      <trkpt lat="47.84503" lon="0.31558">
        <ele>151.9</ele>
        <time>2016-06-18T07:19:45Z</time>
      </trkpt>
      <trkpt lat="47.84505" lon="0.31544">
        <ele>148.8</ele>
        <time>2016-06-18T07:19:53Z</time>
      </trkpt>
      <trkpt lat="47.84505" lon="0.31529">
        <ele>151.9</ele>
        <time>2016-06-18T07:20:02Z</time>
      </trkpt>
      <trkpt lat="47.84506" lon="0.31514">
        <ele>151.1</ele>
        <time>2016-06-18T07:20:10Z</time>
      </trkpt>
      <trkpt lat="47.84506" lon="0.31499">
        <ele>150.4</ele>
        <time>2016-06-18T07:20:19Z</time>
      </trkpt>
      <trkpt lat="47.84507" lon="0.31484">
        <ele>152.8</ele>
        <time>2016-06-18T07:20:28Z</time>
      </trkpt>
      <trkpt lat="47.84508" lon="0.3147">
        <ele>153.4</ele>
        <time>2016-06-18T07:20:36Z</time>
      </trkpt>
      <trkpt lat="47.84508" lon="0.31455">
        <ele>152.7</ele>
        <time>2016-06-18T07:20:45Z</time>
      </trkpt>
      <trkpt lat="47.84507" lon="0.31442">
        <ele>149.9</ele>
        <time>2016-06-18T07:20:53Z</time>
      </trkpt>
      <trkpt lat="47.84505" lon="0.31427">
        <ele>152.4</ele>
        <time>2016-06-18T07:21:02Z</time>
      </trkpt>
      <trkpt lat="47.84501" lon="0.31414">
        <ele>153.7</ele>
        <time>2016-06-18T07:21:09Z</time>
      </trkpt>
      <trkpt lat="47.84497" lon="0.31402">
        <ele>153.2</ele>
        <time>2016-06-18T07:21:16Z</time>
      </trkpt>
      <trkpt lat="47.84497" lon="0.31388">
        <ele>152.6</ele>
        <time>2016-06-18T07:21:25Z</time>
      </trkpt>
      <trkpt lat="47.84496" lon="0.31374">
        <ele>154.2</ele>
        <time>2016-06-18T07:21:32Z</time>
      </trkpt>
      <trkpt lat="47.84496" lon="0.3136">
        <ele>152.7</ele>
        <time>2016-06-18T07:21:39Z</time>
      </trkpt>
      <trkpt lat="47.84494" lon="0.31345">
        <ele>156.2</ele>
        <time>2016-06-18T07:21:48Z</time>
      </trkpt>
      <trkpt lat="47.84492" lon="0.31331">
        <ele>155.8</ele>
        <time>2016-06-18T07:21:56Z</time>
      </trkpt>
      <trkpt lat="47.8449" lon="0.31317">
        <ele>156</ele>
        <time>2016-06-18T07:22:04Z</time>
      </trkpt>
      <trkpt lat="47.84491" lon="0.31302">
        <ele>154.9</ele>
        <time>2016-06-18T07:22:13Z</time>
      </trkpt>
      <trkpt lat="47.8449" lon="0.31287">
        <ele>156.9</ele>
        <time>2016-06-18T07:22:22Z</time>
      </trkpt>
      <trkpt lat="47.84488" lon="0.31274">
        <ele>157.1</ele>
        <time>2016-06-18T07:22:30Z</time>
      </trkpt>
      <trkpt lat="47.84487" lon="0.3126">
        <ele>158.2</ele>
        <time>2016-06-18T07:22:38Z</time>
      </trkpt>
      <trkpt lat="47.84489" lon="0.31247">
        <ele>159</ele>
        <time>2016-06-18T07:22:46Z</time>
      </trkpt>
      <trkpt lat="47.84489" lon="0.31232">
        <ele>161.5</ele>
        <time>2016-06-18T07:22:57Z</time>
      </trkpt>
      <trkpt lat="47.84491" lon="0.31218">
        <ele>161.1</ele>
        <time>2016-06-18T07:23:06Z</time>
      </trkpt>
      <trkpt lat="47.84492" lon="0.31204">
        <ele>159.6</ele>
        <time>2016-06-18T07:23:14Z</time>
      </trkpt>
      <trkpt lat="47.84493" lon="0.3119">
        <ele>160.8</ele>
        <time>2016-06-18T07:23:23Z</time>
      </trkpt>
      <trkpt lat="47.84491" lon="0.31176">
        <ele>161.5</ele>
        <time>2016-06-18T07:23:31Z</time>
      </trkpt>
      <trkpt lat="47.84487" lon="0.31164">
        <ele>163.3</ele>
        <time>2016-06-18T07:23:38Z</time>
      </trkpt>
      <trkpt lat="47.84483" lon="0.31151">
        <ele>161.8</ele>
        <time>2016-06-18T07:23:46Z</time>
      </trkpt>
      <trkpt lat="47.84479" lon="0.31139">
        <ele>163.1</ele>
        <time>2016-06-18T07:23:53Z</time>
      </trkpt>
      <trkpt lat="47.84477" lon="0.31125">
        <ele>164.3</ele>
        <time>2016-06-18T07:24:01Z</time>
      </trkpt>
      <trkpt lat="47.84475" lon="0.31111">
        <ele>161</ele>
        <time>2016-06-18T07:24:09Z</time>
      </trkpt>
      <trkpt lat="47.84472" lon="0.31097">
        <ele>165.1</ele>
        <time>2016-06-18T07:24:17Z</time>
      </trkpt>
      <trkpt lat="47.84469" lon="0.31085">
        <ele>164.7</ele>
        <time>2016-06-18T07:24:25Z</time>
      </trkpt>
      <trkpt lat="47.84463" lon="0.31072">
        <ele>164.8</ele>
        <time>2016-06-18T07:24:33Z</time>
      </trkpt>
      <trkpt lat="47.84461" lon="0.31058">
        <ele>165.5</ele>
        <time>2016-06-18T07:24:41Z</time>
      </trkpt>
      <trkpt lat="47.84457" lon="0.31045">
        <ele>165.8</ele>
        <time>2016-06-18T07:24:49Z</time>
      </trkpt>
      <trkpt lat="47.84452" lon="0.31033">
        <ele>161.1</ele>
        <time>2016-06-18T07:24:57Z</time>
      </trkpt>
      <trkpt lat="47.84445" lon="0.31024">
        <ele>166.8</ele>
        <time>2016-06-18T07:25:05Z</time>
      </trkpt>
      <trkpt lat="47.84438" lon="0.31013">
        <ele>166.3</ele>
        <time>2016-06-18T07:25:13Z</time>
      </trkpt>
      <trkpt lat="47.84432" lon="0.31002">
        <ele>166.2</ele>
        <time>2016-06-18T07:25:21Z</time>
      </trkpt>
      <trkpt lat="47.84425" lon="0.30992">
        <ele>165.7</ele>
        <time>2016-06-18T07:25:29Z</time>
      </trkpt>
      <trkpt lat="47.84421" lon="0.30978">
        <ele>167.3</ele>
        <time>2016-06-18T07:25:37Z</time>
      </trkpt>
      <trkpt lat="47.84416" lon="0.30967">
        <ele>167.2</ele>
        <time>2016-06-18T07:25:45Z</time>
      </trkpt>
      <trkpt lat="47.84411" lon="0.30954">
        <ele>166.1</ele>
        <time>2016-06-18T07:26:02Z</time>
      </trkpt>
      <trkpt lat="47.84406" lon="0.30942">
        <ele>168.2</ele>
        <time>2016-06-18T07:26:10Z</time>
      </trkpt>
      <trkpt lat="47.84404" lon="0.30928">
        <ele>167.6</ele>
        <time>2016-06-18T07:26:18Z</time>
      </trkpt>
      <trkpt lat="47.84399" lon="0.30917">
        <ele>167.4</ele>
        <time>2016-06-18T07:26:26Z</time>
      </trkpt>
      <trkpt lat="47.84393" lon="0.30905">
        <ele>166.7</ele>
        <time>2016-06-18T07:26:34Z</time>
      </trkpt>
      <trkpt lat="47.84389" lon="0.30893">
        <ele>168.8</ele>
        <time>2016-06-18T07:26:42Z</time>
      </trkpt>
      <trkpt lat="47.84384" lon="0.30879">
        <ele>168.9</ele>
        <time>2016-06-18T07:26:50Z</time>
      </trkpt>
      <trkpt lat="47.84384" lon="0.30865">
        <ele>168.5</ele>
        <time>2016-06-18T07:27:00Z</time>
      </trkpt>
      <trkpt lat="47.84381" lon="0.3085">
        <ele>167.1</ele>
        <time>2016-06-18T07:27:08Z</time>
      </trkpt>
      <trkpt lat="47.84377" lon="0.30838">
        <ele>167.9</ele>
        <time>2016-06-18T07:27:19Z</time>
      </trkpt>
      <trkpt lat="47.84386" lon="0.30835">
        <ele>168.4</ele>
        <time>2016-06-18T07:28:39Z</time>
      </trkpt>
      <trkpt lat="47.84395" lon="0.30827">
        <ele>169.7</ele>
        <time>2016-06-18T07:28:47Z</time>
      </trkpt>
      <trkpt lat="47.84404" lon="0.30821">
        <ele>165.9</ele>
        <time>2016-06-18T07:28:55Z</time>
      </trkpt>
      <trkpt lat="47.84412" lon="0.30817">
        <ele>169.6</ele>
        <time>2016-06-18T07:29:03Z</time>
      </trkpt>
      <trkpt lat="47.84422" lon="0.30813">
        <ele>166.6</ele>
        <time>2016-06-18T07:29:11Z</time>
      </trkpt>
      <trkpt lat="47.84431" lon="0.30807">
        <ele>168.6</ele>
        <time>2016-06-18T07:29:20Z</time>
      </trkpt>
      <trkpt lat="47.84439" lon="0.30797">
        <ele>169.8</ele>
        <time>2016-06-18T07:29:29Z</time>
      </trkpt>
      <trkpt lat="47.84448" lon="0.30794">
        <ele>160.3</ele>
        <time>2016-06-18T07:29:36Z</time>
      </trkpt>
      <trkpt lat="47.84457" lon="0.30786">
        <ele>165.8</ele>
        <time>2016-06-18T07:29:44Z</time>
      </trkpt>
      <trkpt lat="47.84466" lon="0.30778">
        <ele>165.3</ele>
        <time>2016-06-18T07:29:53Z</time>
      </trkpt>
      <trkpt lat="47.84475" lon="0.30772">
        <ele>167.1</ele>
        <time>2016-06-18T07:30:03Z</time>
      </trkpt>
      <trkpt lat="47.84481" lon="0.30762">
        <ele>168</ele>
        <time>2016-06-18T07:30:12Z</time>
      </trkpt>
      <trkpt lat="47.84489" lon="0.30755">
        <ele>167.2</ele>
        <time>2016-06-18T07:30:19Z</time>
      </trkpt>
      <trkpt lat="47.84497" lon="0.30745">
        <ele>166.7</ele>
        <time>2016-06-18T07:30:38Z</time>
      </trkpt>
      <trkpt lat="47.84506" lon="0.30738">
        <ele>167.9</ele>
        <time>2016-06-18T07:30:45Z</time>
      </trkpt>
      <trkpt lat="47.84514" lon="0.3073">
        <ele>169.1</ele>
        <time>2016-06-18T07:30:53Z</time>
      </trkpt>
      <trkpt lat="47.84523" lon="0.30726">
        <ele>166.1</ele>
        <time>2016-06-18T07:31:00Z</time>
      </trkpt>
      <trkpt lat="47.8453" lon="0.30717">
        <ele>168.8</ele>
        <time>2016-06-18T07:31:09Z</time>
      </trkpt>
      <trkpt lat="47.84538" lon="0.3071">
        <ele>167.3</ele>
        <time>2016-06-18T07:31:19Z</time>
      </trkpt>
      <trkpt lat="47.84546" lon="0.30702">
        <ele>169.6</ele>
        <time>2016-06-18T07:31:25Z</time>
      </trkpt>
      <trkpt lat="47.84554" lon="0.30692">
        <ele>164.3</ele>
        <time>2016-06-18T07:31:31Z</time>
      </trkpt>
      <trkpt lat="47.84562" lon="0.30687">
        <ele>169.7</ele>
        <time>2016-06-18T07:31:41Z</time>
      </trkpt>
      <trkpt lat="47.84571" lon="0.30679">
        <ele>165.5</ele>
        <time>2016-06-18T07:31:47Z</time>
      </trkpt>
      <trkpt lat="47.84578" lon="0.30669">
        <ele>168.9</ele>
        <time>2016-06-18T07:31:55Z</time>
      </trkpt>
      <trkpt lat="47.84581" lon="0.30655">
        <ele>171.1</ele>
        <time>2016-06-18T07:32:01Z</time>
      </trkpt>
      <trkpt lat="47.84589" lon="0.30647">
        <ele>171.2</ele>
        <time>2016-06-18T07:32:09Z</time>
      </trkpt>
      <trkpt lat="47.84597" lon="0.3064">
        <ele>170.7</ele>
        <time>2016-06-18T07:32:19Z</time>
      </trkpt>
      <trkpt lat="47.84605" lon="0.30631">
        <ele>169.2</ele>
        <time>2016-06-18T07:32:28Z</time>
      </trkpt>
      <trkpt lat="47.84614" lon="0.30627">
        <ele>173.5</ele>
        <time>2016-06-18T07:32:36Z</time>
      </trkpt>
      <trkpt lat="47.84621" lon="0.30619">
        <ele>172</ele>
        <time>2016-06-18T07:32:47Z</time>
      </trkpt>
      <trkpt lat="47.84628" lon="0.30609">
        <ele>174.3</ele>
        <time>2016-06-18T07:32:54Z</time>
      </trkpt>
      <trkpt lat="47.84636" lon="0.30602">
        <ele>170.2</ele>
        <time>2016-06-18T07:33:00Z</time>
      </trkpt>
      <trkpt lat="47.84646" lon="0.30598">
        <ele>173.2</ele>
        <time>2016-06-18T07:33:10Z</time>
      </trkpt>
      <trkpt lat="47.84653" lon="0.30588">
        <ele>174.5</ele>
        <time>2016-06-18T07:33:16Z</time>
      </trkpt>
      <trkpt lat="47.84662" lon="0.30581">
        <ele>173.8</ele>
        <time>2016-06-18T07:33:25Z</time>
      </trkpt>
      <trkpt lat="47.8467" lon="0.30573">
        <ele>175.3</ele>
        <time>2016-06-18T07:33:31Z</time>
      </trkpt>
      <trkpt lat="47.8468" lon="0.30566">
        <ele>170.7</ele>
        <time>2016-06-18T07:33:40Z</time>
      </trkpt>
      <trkpt lat="47.84688" lon="0.30561">
        <ele>174</ele>
        <time>2016-06-18T07:33:47Z</time>
      </trkpt>
      <trkpt lat="47.84696" lon="0.30552">
        <ele>175.3</ele>
        <time>2016-06-18T07:33:54Z</time>
      </trkpt>
      <trkpt lat="47.84703" lon="0.30539">
        <ele>175.3</ele>
        <time>2016-06-18T07:34:11Z</time>
      </trkpt>
      <trkpt lat="47.84711" lon="0.30532">
        <ele>173.1</ele>
        <time>2016-06-18T07:34:24Z</time>
      </trkpt>
      <trkpt lat="47.84718" lon="0.30524">
        <ele>173.1</ele>
        <time>2016-06-18T07:34:33Z</time>
      </trkpt>
      <trkpt lat="47.84727" lon="0.30518">
        <ele>171.4</ele>
        <time>2016-06-18T07:34:42Z</time>
      </trkpt>
      <trkpt lat="47.84735" lon="0.3051">
        <ele>170.1</ele>
        <time>2016-06-18T07:34:49Z</time>
      </trkpt>
      <trkpt lat="47.84742" lon="0.30502">
        <ele>174.4</ele>
        <time>2016-06-18T07:34:57Z</time>
      </trkpt>
      <trkpt lat="47.84751" lon="0.30496">
        <ele>174.7</ele>
        <time>2016-06-18T07:35:04Z</time>
      </trkpt>
      <trkpt lat="47.8476" lon="0.30493">
        <ele>173.3</ele>
        <time>2016-06-18T07:35:11Z</time>
      </trkpt>
      <trkpt lat="47.84769" lon="0.30488">
        <ele>170.3</ele>
        <time>2016-06-18T07:35:18Z</time>
      </trkpt>
      <trkpt lat="47.84777" lon="0.30481">
        <ele>172.6</ele>
        <time>2016-06-18T07:35:25Z</time>
      </trkpt>
      <trkpt lat="47.84785" lon="0.30474">
        <ele>173.3</ele>
        <time>2016-06-18T07:35:33Z</time>
      </trkpt>
      <trkpt lat="47.84793" lon="0.30468">
        <ele>173.6</ele>
        <time>2016-06-18T07:35:41Z</time>
      </trkpt>
      <trkpt lat="47.84801" lon="0.30459">
        <ele>171.1</ele>
        <time>2016-06-18T07:35:49Z</time>
      </trkpt>
      <trkpt lat="47.84809" lon="0.30451">
        <ele>170.4</ele>
        <time>2016-06-18T07:35:56Z</time>
      </trkpt>
      <trkpt lat="47.84817" lon="0.30442">
        <ele>172.1</ele>
        <time>2016-06-18T07:36:04Z</time>
      </trkpt>
      <trkpt lat="47.84826" lon="0.30436">
        <ele>171.4</ele>
        <time>2016-06-18T07:36:13Z</time>
      </trkpt>
      <trkpt lat="47.84833" lon="0.30427">
        <ele>172.1</ele>
        <time>2016-06-18T07:36:21Z</time>
      </trkpt>
      <trkpt lat="47.84841" lon="0.30421">
        <ele>173.5</ele>
        <time>2016-06-18T07:36:29Z</time>
      </trkpt>
      <trkpt lat="47.84849" lon="0.30413">
        <ele>173.9</ele>
        <time>2016-06-18T07:36:36Z</time>
      </trkpt>
      <trkpt lat="47.84857" lon="0.30406">
        <ele>169.9</ele>
        <time>2016-06-18T07:36:45Z</time>
      </trkpt>
      <trkpt lat="47.84865" lon="0.30397">
        <ele>167.9</ele>
        <time>2016-06-18T07:36:53Z</time>
      </trkpt>
      <trkpt lat="47.84873" lon="0.3039">
        <ele>172.3</ele>
        <time>2016-06-18T07:37:02Z</time>
      </trkpt>
      <trkpt lat="47.84884" lon="0.30387">
        <ele>173.1</ele>
        <time>2016-06-18T07:37:08Z</time>
      </trkpt>
      <trkpt lat="47.84893" lon="0.3038">
        <ele>172.1</ele>
        <time>2016-06-18T07:37:15Z</time>
      </trkpt>
      <trkpt lat="47.84901" lon="0.30374">
        <ele>168.2</ele>
        <time>2016-06-18T07:37:22Z</time>
      </trkpt>
      <trkpt lat="47.8491" lon="0.30368">
        <ele>171</ele>
        <time>2016-06-18T07:37:29Z</time>
      </trkpt>
      <trkpt lat="47.84919" lon="0.30362">
        <ele>167.6</ele>
        <time>2016-06-18T07:37:36Z</time>
      </trkpt>
      <trkpt lat="47.84927" lon="0.30355">
        <ele>168</ele>
        <time>2016-06-18T07:37:45Z</time>
      </trkpt>
      <trkpt lat="47.84936" lon="0.30347">
        <ele>163</ele>
        <time>2016-06-18T07:37:53Z</time>
      </trkpt>
      <trkpt lat="47.84943" lon="0.30339">
        <ele>167.8</ele>
        <time>2016-06-18T07:38:01Z</time>
      </trkpt>
      <trkpt lat="47.84951" lon="0.30332">
        <ele>169.9</ele>
        <time>2016-06-18T07:38:08Z</time>
      </trkpt>
      <trkpt lat="47.84959" lon="0.30324">
        <ele>169.8</ele>
        <time>2016-06-18T07:38:15Z</time>
      </trkpt>
      <trkpt lat="47.84966" lon="0.30315">
        <ele>166.2</ele>
        <time>2016-06-18T07:38:23Z</time>
      </trkpt>
      <trkpt lat="47.84974" lon="0.30308">
        <ele>169.1</ele>
        <time>2016-06-18T07:38:31Z</time>
      </trkpt>
      <trkpt lat="47.84981" lon="0.303">
        <ele>169.6</ele>
        <time>2016-06-18T07:38:39Z</time>
      </trkpt>
      <trkpt lat="47.84989" lon="0.30293">
        <ele>166.9</ele>
        <time>2016-06-18T07:38:46Z</time>
      </trkpt>
      <trkpt lat="47.84997" lon="0.30284">
        <ele>168.2</ele>
        <time>2016-06-18T07:38:54Z</time>
      </trkpt>
      <trkpt lat="47.85005" lon="0.30278">
        <ele>169.3</ele>
        <time>2016-06-18T07:39:01Z</time>
      </trkpt>
      <trkpt lat="47.85013" lon="0.3027">
        <ele>169.5</ele>
        <time>2016-06-18T07:39:09Z</time>
      </trkpt>
      <trkpt lat="47.85022" lon="0.30262">
        <ele>160.2</ele>
        <time>2016-06-18T07:39:17Z</time>
      </trkpt>
      <trkpt lat="47.85031" lon="0.30255">
        <ele>166.7</ele>
        <time>2016-06-18T07:39:25Z</time>
      </trkpt>
      <trkpt lat="47.85039" lon="0.30248">
        <ele>169.2</ele>
        <time>2016-06-18T07:39:32Z</time>
      </trkpt>
      <trkpt lat="47.85047" lon="0.30241">
        <ele>166.3</ele>
        <time>2016-06-18T07:39:39Z</time>
      </trkpt>
      <trkpt lat="47.85056" lon="0.30234">
        <ele>166.2</ele>
        <time>2016-06-18T07:39:48Z</time>
      </trkpt>
      <trkpt lat="47.85065" lon="0.30229">
        <ele>164.8</ele>
        <time>2016-06-18T07:39:56Z</time>
      </trkpt>
      <trkpt lat="47.85073" lon="0.30224">
        <ele>165.2</ele>
        <time>2016-06-18T07:40:04Z</time>
      </trkpt>
      <trkpt lat="47.85083" lon="0.30221">
        <ele>167.5</ele>
        <time>2016-06-18T07:40:12Z</time>
      </trkpt>
      <trkpt lat="47.85092" lon="0.30215">
        <ele>159.2</ele>
        <time>2016-06-18T07:40:20Z</time>
      </trkpt>
      <trkpt lat="47.85101" lon="0.3021">
        <ele>165.8</ele>
        <time>2016-06-18T07:40:28Z</time>
      </trkpt>
      <trkpt lat="47.8511" lon="0.30208">
        <ele>166.8</ele>
        <time>2016-06-18T07:40:35Z</time>
      </trkpt>
      <trkpt lat="47.85119" lon="0.30205">
        <ele>162.7</ele>
        <time>2016-06-18T07:40:45Z</time>
      </trkpt>
      <trkpt lat="47.85128" lon="0.30199">
        <ele>163.3</ele>
        <time>2016-06-18T07:41:06Z</time>
      </trkpt>
      <trkpt lat="47.85136" lon="0.30193">
        <ele>164.6</ele>
        <time>2016-06-18T07:41:18Z</time>
      </trkpt>
      <trkpt lat="47.85145" lon="0.30189">
        <ele>162.2</ele>
        <time>2016-06-18T07:42:00Z</time>
      </trkpt>
      <trkpt lat="47.85154" lon="0.30187">
        <ele>160</ele>
        <time>2016-06-18T07:42:07Z</time>
      </trkpt>
      <trkpt lat="47.85163" lon="0.30187">
        <ele>162.8</ele>
        <time>2016-06-18T07:42:14Z</time>
      </trkpt>
      <trkpt lat="47.85173" lon="0.30185">
        <ele>164.1</ele>
        <time>2016-06-18T07:42:21Z</time>
      </trkpt>
      <trkpt lat="47.85182" lon="0.30185">
        <ele>163.8</ele>
        <time>2016-06-18T07:42:28Z</time>
      </trkpt>
      <trkpt lat="47.85191" lon="0.30183">
        <ele>163.1</ele>
        <time>2016-06-18T07:42:37Z</time>
      </trkpt>
      <trkpt lat="47.85201" lon="0.30181">
        <ele>162.7</ele>
        <time>2016-06-18T07:42:44Z</time>
      </trkpt>
      <trkpt lat="47.8521" lon="0.30178">
        <ele>156.6</ele>
        <time>2016-06-18T07:42:51Z</time>
      </trkpt>
      <trkpt lat="47.8522" lon="0.30175">
        <ele>158.2</ele>
        <time>2016-06-18T07:42:59Z</time>
      </trkpt>
      <trkpt lat="47.85228" lon="0.30168">
        <ele>157.2</ele>
        <time>2016-06-18T07:43:08Z</time>
      </trkpt>
      <trkpt lat="47.85236" lon="0.30159">
        <ele>156.3</ele>
        <time>2016-06-18T07:43:16Z</time>
      </trkpt>
      <trkpt lat="47.8524" lon="0.30146">
        <ele>153.4</ele>
        <time>2016-06-18T07:43:26Z</time>
      </trkpt>
      <trkpt lat="47.85244" lon="0.30132">
        <ele>151.8</ele>
        <time>2016-06-18T07:43:44Z</time>
      </trkpt>
      <trkpt lat="47.8525" lon="0.3012">
        <ele>150.9</ele>
        <time>2016-06-18T07:43:52Z</time>
      </trkpt>
      <trkpt lat="47.85258" lon="0.30112">
        <ele>150.2</ele>
        <time>2016-06-18T07:44:00Z</time>
      </trkpt>
      <trkpt lat="47.85266" lon="0.30105">
        <ele>148.3</ele>
        <time>2016-06-18T07:44:08Z</time>
      </trkpt>
      <trkpt lat="47.85274" lon="0.30097">
        <ele>146.2</ele>
        <time>2016-06-18T07:44:16Z</time>
      </trkpt>
      <trkpt lat="47.85281" lon="0.30087">
        <ele>144.1</ele>
        <time>2016-06-18T07:44:24Z</time>
      </trkpt>
      <trkpt lat="47.85285" lon="0.30074">
        <ele>142.4</ele>
        <time>2016-06-18T07:44:32Z</time>
      </trkpt>
      <trkpt lat="47.8529" lon="0.30062">
        <ele>140.9</ele>
        <time>2016-06-18T07:44:40Z</time>
      </trkpt>
      <trkpt lat="47.85293" lon="0.30048">
        <ele>139.3</ele>
        <time>2016-06-18T07:44:49Z</time>
      </trkpt>
      <trkpt lat="47.85298" lon="0.30037">
        <ele>139.6</ele>
        <time>2016-06-18T07:44:57Z</time>
      </trkpt>
      <trkpt lat="47.85306" lon="0.30029">
        <ele>138.7</ele>
        <time>2016-06-18T07:45:04Z</time>
      </trkpt>
      <trkpt lat="47.85314" lon="0.30021">
        <ele>131.9</ele>
        <time>2016-06-18T07:45:12Z</time>
      </trkpt>
      <trkpt lat="47.85323" lon="0.30014">
        <ele>131.3</ele>
        <time>2016-06-18T07:45:19Z</time>
      </trkpt>
      <trkpt lat="47.85332" lon="0.3001">
        <ele>132.8</ele>
        <time>2016-06-18T07:45:27Z</time>
      </trkpt>
      <trkpt lat="47.85341" lon="0.30008">
        <ele>133.7</ele>
        <time>2016-06-18T07:45:34Z</time>
      </trkpt>
      <trkpt lat="47.85351" lon="0.30008">
        <ele>133.3</ele>
        <time>2016-06-18T07:45:41Z</time>
      </trkpt>
      <trkpt lat="47.85361" lon="0.30009">
        <ele>133.2</ele>
        <time>2016-06-18T07:45:49Z</time>
      </trkpt>
      <trkpt lat="47.8537" lon="0.30014">
        <ele>132.1</ele>
        <time>2016-06-18T07:45:57Z</time>
      </trkpt>
      <trkpt lat="47.85379" lon="0.30023">
        <ele>131.5</ele>
        <time>2016-06-18T07:46:05Z</time>
      </trkpt>
      <trkpt lat="47.85387" lon="0.30033">
        <ele>131.4</ele>
        <time>2016-06-18T07:46:13Z</time>
      </trkpt>
      <trkpt lat="47.85394" lon="0.30042">
        <ele>131.4</ele>
        <time>2016-06-18T07:46:20Z</time>
      </trkpt>
      <trkpt lat="47.85402" lon="0.30049">
        <ele>130.7</ele>
        <time>2016-06-18T07:46:27Z</time>
      </trkpt>
      <trkpt lat="47.85411" lon="0.30058">
        <ele>127.9</ele>
        <time>2016-06-18T07:46:35Z</time>
      </trkpt>
      <trkpt lat="47.85419" lon="0.30065">
        <ele>125.5</ele>
        <time>2016-06-18T07:46:42Z</time>
      </trkpt>
      <trkpt lat="47.85427" lon="0.30071">
        <ele>122.3</ele>
        <time>2016-06-18T07:46:50Z</time>
      </trkpt>
      <trkpt lat="47.85435" lon="0.30077">
        <ele>120</ele>
        <time>2016-06-18T07:46:58Z</time>
      </trkpt>
      <trkpt lat="47.85444" lon="0.30079">
        <ele>125.7</ele>
        <time>2016-06-18T07:47:07Z</time>
      </trkpt>
      <trkpt lat="47.8545" lon="0.30069">
        <ele>126.7</ele>
        <time>2016-06-18T07:47:18Z</time>
      </trkpt>
      <trkpt lat="47.85456" lon="0.30057">
        <ele>122.3</ele>
        <time>2016-06-18T07:47:25Z</time>
      </trkpt>
      <trkpt lat="47.85461" lon="0.30047">
        <ele>123.2</ele>
        <time>2016-06-18T07:47:32Z</time>
      </trkpt>
      <trkpt lat="47.85465" lon="0.30035">
        <ele>121.3</ele>
        <time>2016-06-18T07:47:38Z</time>
      </trkpt>
      <trkpt lat="47.85467" lon="0.30021">
        <ele>120.1</ele>
        <time>2016-06-18T07:47:45Z</time>
      </trkpt>
      <trkpt lat="47.8547" lon="0.30008">
        <ele>115.9</ele>
        <time>2016-06-18T07:47:52Z</time>
      </trkpt>
      <trkpt lat="47.85473" lon="0.29995">
        <ele>122.1</ele>
        <time>2016-06-18T07:47:59Z</time>
      </trkpt>
      <trkpt lat="47.85476" lon="0.29983">
        <ele>118.3</ele>
        <time>2016-06-18T07:48:05Z</time>
      </trkpt>
      <trkpt lat="47.85476" lon="0.29969">
        <ele>120.9</ele>
        <time>2016-06-18T07:48:12Z</time>
      </trkpt>
      <trkpt lat="47.85481" lon="0.29956">
        <ele>120.8</ele>
        <time>2016-06-18T07:48:20Z</time>
      </trkpt>
      <trkpt lat="47.85484" lon="0.29943">
        <ele>123.2</ele>
        <time>2016-06-18T07:48:28Z</time>
      </trkpt>
      <trkpt lat="47.85485" lon="0.29929">
        <ele>122.8</ele>
        <time>2016-06-18T07:48:35Z</time>
      </trkpt>
      <trkpt lat="47.85486" lon="0.29915">
        <ele>120.5</ele>
        <time>2016-06-18T07:48:43Z</time>
      </trkpt>
      <trkpt lat="47.85487" lon="0.29902">
        <ele>120.7</ele>
        <time>2016-06-18T07:48:51Z</time>
      </trkpt>
      <trkpt lat="47.85491" lon="0.2989">
        <ele>121.4</ele>
        <time>2016-06-18T07:48:59Z</time>
      </trkpt>
      <trkpt lat="47.85494" lon="0.29876">
        <ele>121.5</ele>
        <time>2016-06-18T07:49:08Z</time>
      </trkpt>
      <trkpt lat="47.855" lon="0.29864">
        <ele>121.4</ele>
        <time>2016-06-18T07:49:16Z</time>
      </trkpt>
      <trkpt lat="47.85503" lon="0.29851">
        <ele>121.3</ele>
        <time>2016-06-18T07:49:24Z</time>
      </trkpt>
      <trkpt lat="47.8551" lon="0.29843">
        <ele>122.6</ele>
        <time>2016-06-18T07:49:30Z</time>
      </trkpt>
      <trkpt lat="47.8551" lon="0.29829">
        <ele>121.3</ele>
        <time>2016-06-18T07:49:37Z</time>
      </trkpt>
      <trkpt lat="47.8552" lon="0.29829">
        <ele>121.9</ele>
        <time>2016-06-18T07:49:58Z</time>
      </trkpt>
      <trkpt lat="47.8553" lon="0.29827">
        <ele>122</ele>
        <time>2016-06-18T07:50:04Z</time>
      </trkpt>
      <trkpt lat="47.85539" lon="0.29824">
        <ele>121.7</ele>
        <time>2016-06-18T07:50:11Z</time>
      </trkpt>
      <trkpt lat="47.85548" lon="0.29827">
        <ele>121.4</ele>
        <time>2016-06-18T07:50:20Z</time>
      </trkpt>
      <trkpt lat="47.85557" lon="0.29829">
        <ele>121.9</ele>
        <time>2016-06-18T07:50:28Z</time>
      </trkpt>
      <trkpt lat="47.85567" lon="0.29831">
        <ele>120.9</ele>
        <time>2016-06-18T07:50:38Z</time>
      </trkpt>
      <trkpt lat="47.85577" lon="0.29831">
        <ele>123.9</ele>
        <time>2016-06-18T07:50:47Z</time>
      </trkpt>
      <trkpt lat="47.85587" lon="0.29832">
        <ele>123</ele>
        <time>2016-06-18T07:50:56Z</time>
      </trkpt>
      <trkpt lat="47.85596" lon="0.29832">
        <ele>123.5</ele>
        <time>2016-06-18T07:51:06Z</time>
      </trkpt>
      <trkpt lat="47.85605" lon="0.29833">
        <ele>124.4</ele>
        <time>2016-06-18T07:51:15Z</time>
      </trkpt>
      <trkpt lat="47.85615" lon="0.29835">
        <ele>122.3</ele>
        <time>2016-06-18T07:51:22Z</time>
      </trkpt>
      <trkpt lat="47.85625" lon="0.29835">
        <ele>125.6</ele>
        <time>2016-06-18T07:51:31Z</time>
      </trkpt>
      <trkpt lat="47.85635" lon="0.29835">
        <ele>125.6</ele>
        <time>2016-06-18T07:51:39Z</time>
      </trkpt>
      <trkpt lat="47.85644" lon="0.29833">
        <ele>122.7</ele>
        <time>2016-06-18T07:51:47Z</time>
      </trkpt>
      <trkpt lat="47.85653" lon="0.29832">
        <ele>124.3</ele>
        <time>2016-06-18T07:51:55Z</time>
      </trkpt>
      <trkpt lat="47.85663" lon="0.29831">
        <ele>122.6</ele>
        <time>2016-06-18T07:52:05Z</time>
      </trkpt>
      <trkpt lat="47.85672" lon="0.29831">
        <ele>119.6</ele>
        <time>2016-06-18T07:52:14Z</time>
      </trkpt>
      <trkpt lat="47.85681" lon="0.29831">
        <ele>118.6</ele>
        <time>2016-06-18T07:52:23Z</time>
      </trkpt>
      <trkpt lat="47.8569" lon="0.2983">
        <ele>119</ele>
        <time>2016-06-18T07:52:33Z</time>
      </trkpt>
      <trkpt lat="47.857" lon="0.29829">
        <ele>116.6</ele>
        <time>2016-06-18T07:52:41Z</time>
      </trkpt>
      <trkpt lat="47.85709" lon="0.29829">
        <ele>116</ele>
        <time>2016-06-18T07:52:52Z</time>
      </trkpt>
      <trkpt lat="47.85718" lon="0.29829">
        <ele>114.1</ele>
        <time>2016-06-18T07:53:01Z</time>
      </trkpt>
      <trkpt lat="47.85727" lon="0.29829">
        <ele>113</ele>
        <time>2016-06-18T07:53:09Z</time>
      </trkpt>
      <trkpt lat="47.85737" lon="0.2983">
        <ele>110.4</ele>
        <time>2016-06-18T07:53:20Z</time>
      </trkpt>
      <trkpt lat="47.85747" lon="0.29832">
        <ele>110.1</ele>
        <time>2016-06-18T07:53:30Z</time>
      </trkpt>
      <trkpt lat="47.85756" lon="0.2983">
        <ele>108.3</ele>
        <time>2016-06-18T07:53:40Z</time>
      </trkpt>
      <trkpt lat="47.85766" lon="0.2983">
        <ele>105.8</ele>
        <time>2016-06-18T07:53:51Z</time>
      </trkpt>
      <trkpt lat="47.85776" lon="0.2983">
        <ele>102.9</ele>
        <time>2016-06-18T07:54:01Z</time>
      </trkpt>
      <trkpt lat="47.85785" lon="0.29824">
        <ele>105.2</ele>
        <time>2016-06-18T07:54:09Z</time>
      </trkpt>
      <trkpt lat="47.85794" lon="0.29821">
        <ele>101.6</ele>
        <time>2016-06-18T07:54:18Z</time>
      </trkpt>
      <trkpt lat="47.85803" lon="0.29818">
        <ele>103.3</ele>
        <time>2016-06-18T07:54:27Z</time>
      </trkpt>
      <trkpt lat="47.85812" lon="0.29814">
        <ele>100.5</ele>
        <time>2016-06-18T07:54:35Z</time>
      </trkpt>
      <trkpt lat="47.85821" lon="0.29809">
        <ele>99.8</ele>
        <time>2016-06-18T07:54:42Z</time>
      </trkpt>
      <trkpt lat="47.85828" lon="0.29801">
        <ele>96</ele>
        <time>2016-06-18T07:54:50Z</time>
      </trkpt>
      <trkpt lat="47.85826" lon="0.29786">
        <ele>98.8</ele>
        <time>2016-06-18T07:54:57Z</time>
      </trkpt>
      <trkpt lat="47.85821" lon="0.29773">
        <ele>100.6</ele>
        <time>2016-06-18T07:55:12Z</time>
      </trkpt>
      <trkpt lat="47.8582" lon="0.29759">
        <ele>100.8</ele>
        <time>2016-06-18T07:55:16Z</time>
      </trkpt>
      <trkpt lat="47.85819" lon="0.29743">
        <ele>99.8</ele>
        <time>2016-06-18T07:55:20Z</time>
      </trkpt>
      <trkpt lat="47.85815" lon="0.29729">
        <ele>99.1</ele>
        <time>2016-06-18T07:55:28Z</time>
      </trkpt>
      <trkpt lat="47.85809" lon="0.29719">
        <ele>98.7</ele>
        <time>2016-06-18T07:55:35Z</time>
      </trkpt>
      <trkpt lat="47.858" lon="0.29714">
        <ele>97.6</ele>
        <time>2016-06-18T07:56:03Z</time>
      </trkpt>
      <trkpt lat="47.85796" lon="0.29701">
        <ele>102.6</ele>
        <time>2016-06-18T07:56:12Z</time>
      </trkpt>
      <trkpt lat="47.85794" lon="0.29687">
        <ele>103.7</ele>
        <time>2016-06-18T07:56:19Z</time>
      </trkpt>
      <trkpt lat="47.8579" lon="0.29675">
        <ele>104.4</ele>
        <time>2016-06-18T07:56:26Z</time>
      </trkpt>
      <trkpt lat="47.85786" lon="0.29661">
        <ele>104.2</ele>
        <time>2016-06-18T07:56:34Z</time>
      </trkpt>
      <trkpt lat="47.85782" lon="0.29648">
        <ele>104.6</ele>
        <time>2016-06-18T07:56:41Z</time>
      </trkpt>
      <trkpt lat="47.85777" lon="0.29636">
        <ele>104.5</ele>
        <time>2016-06-18T07:56:49Z</time>
      </trkpt>
      <trkpt lat="47.85772" lon="0.29622">
        <ele>104.9</ele>
        <time>2016-06-18T07:56:57Z</time>
      </trkpt>
      <trkpt lat="47.85767" lon="0.2961">
        <ele>98.9</ele>
        <time>2016-06-18T07:57:04Z</time>
      </trkpt>
      <trkpt lat="47.85762" lon="0.29597">
        <ele>101</ele>
        <time>2016-06-18T07:57:11Z</time>
      </trkpt>
      <trkpt lat="47.85755" lon="0.29587">
        <ele>104</ele>
        <time>2016-06-18T07:57:18Z</time>
      </trkpt>
      <trkpt lat="47.8575" lon="0.29575">
        <ele>104.4</ele>
        <time>2016-06-18T07:57:25Z</time>
      </trkpt>
      <trkpt lat="47.85753" lon="0.29561">
        <ele>99.5</ele>
        <time>2016-06-18T07:57:32Z</time>
      </trkpt>
      <trkpt lat="47.85748" lon="0.29549">
        <ele>101.6</ele>
        <time>2016-06-18T07:57:39Z</time>
      </trkpt>
      <trkpt lat="47.85745" lon="0.29537">
        <ele>104.3</ele>
        <time>2016-06-18T07:57:46Z</time>
      </trkpt>
      <trkpt lat="47.8574" lon="0.29523">
        <ele>103.9</ele>
        <time>2016-06-18T07:57:53Z</time>
      </trkpt>
      <trkpt lat="47.85734" lon="0.29512">
        <ele>104</ele>
        <time>2016-06-18T07:58:01Z</time>
      </trkpt>
      <trkpt lat="47.85731" lon="0.29499">
        <ele>98.8</ele>
        <time>2016-06-18T07:58:08Z</time>
      </trkpt>
      <trkpt lat="47.85726" lon="0.29488">
        <ele>103.1</ele>
        <time>2016-06-18T07:58:15Z</time>
      </trkpt>
      <trkpt lat="47.85721" lon="0.29475">
        <ele>104.5</ele>
        <time>2016-06-18T07:58:23Z</time>
      </trkpt>
      <trkpt lat="47.85717" lon="0.29463">
        <ele>103.5</ele>
        <time>2016-06-18T07:58:30Z</time>
      </trkpt>
      <trkpt lat="47.85712" lon="0.2945">
        <ele>100.6</ele>
        <time>2016-06-18T07:58:37Z</time>
      </trkpt>
      <trkpt lat="47.8571" lon="0.29434">
        <ele>103.9</ele>
        <time>2016-06-18T07:58:47Z</time>
      </trkpt>
      <trkpt lat="47.85706" lon="0.29422">
        <ele>103.8</ele>
        <time>2016-06-18T07:58:55Z</time>
      </trkpt>
      <trkpt lat="47.85704" lon="0.29409">
        <ele>103.6</ele>
        <time>2016-06-18T07:59:02Z</time>
      </trkpt>
      <trkpt lat="47.85698" lon="0.29396">
        <ele>99.7</ele>
        <time>2016-06-18T07:59:10Z</time>
      </trkpt>
      <trkpt lat="47.85693" lon="0.29384">
        <ele>102.9</ele>
        <time>2016-06-18T07:59:17Z</time>
      </trkpt>
      <trkpt lat="47.85689" lon="0.2937">
        <ele>103.1</ele>
        <time>2016-06-18T07:59:24Z</time>
      </trkpt>
      <trkpt lat="47.85684" lon="0.29358">
        <ele>102.5</ele>
        <time>2016-06-18T07:59:32Z</time>
      </trkpt>
      <trkpt lat="47.85683" lon="0.29342">
        <ele>103.4</ele>
        <time>2016-06-18T07:59:41Z</time>
      </trkpt>
      <trkpt lat="47.85678" lon="0.2933">
        <ele>103.2</ele>
        <time>2016-06-18T07:59:47Z</time>
      </trkpt>
      <trkpt lat="47.85674" lon="0.29318">
        <ele>99.2</ele>
        <time>2016-06-18T07:59:54Z</time>
      </trkpt>
      <trkpt lat="47.85667" lon="0.29309">
        <ele>98.2</ele>
        <time>2016-06-18T08:00:00Z</time>
      </trkpt>
      <trkpt lat="47.85663" lon="0.29295">
        <ele>102.2</ele>
        <time>2016-06-18T08:00:08Z</time>
      </trkpt>
      <trkpt lat="47.85657" lon="0.29283">
        <ele>102.9</ele>
        <time>2016-06-18T08:00:15Z</time>
      </trkpt>
      <trkpt lat="47.85654" lon="0.29269">
        <ele>103</ele>
        <time>2016-06-18T08:00:23Z</time>
      </trkpt>
      <trkpt lat="47.8565" lon="0.29257">
        <ele>103.1</ele>
        <time>2016-06-18T08:00:31Z</time>
      </trkpt>
      <trkpt lat="47.85653" lon="0.29243">
        <ele>103.1</ele>
        <time>2016-06-18T08:00:41Z</time>
      </trkpt>
      <trkpt lat="47.85656" lon="0.29229">
        <ele>101.1</ele>
        <time>2016-06-18T08:00:50Z</time>
      </trkpt>
      <trkpt lat="47.85659" lon="0.29216">
        <ele>101.4</ele>
        <time>2016-06-18T08:02:02Z</time>
      </trkpt>
      <trkpt lat="47.85664" lon="0.29205">
        <ele>102.6</ele>
        <time>2016-06-18T08:02:10Z</time>
      </trkpt>
      <trkpt lat="47.85669" lon="0.29192">
        <ele>103.6</ele>
        <time>2016-06-18T08:02:19Z</time>
      </trkpt>
      <trkpt lat="47.85675" lon="0.2918">
        <ele>99.2</ele>
        <time>2016-06-18T08:02:31Z</time>
      </trkpt>
      <trkpt lat="47.85679" lon="0.29167">
        <ele>97.9</ele>
        <time>2016-06-18T08:02:39Z</time>
      </trkpt>
      <trkpt lat="47.85685" lon="0.29155">
        <ele>96.4</ele>
        <time>2016-06-18T08:02:45Z</time>
      </trkpt>
      <trkpt lat="47.8569" lon="0.29142">
        <ele>95.4</ele>
        <time>2016-06-18T08:02:51Z</time>
      </trkpt>
      <trkpt lat="47.85695" lon="0.29129">
        <ele>98.1</ele>
        <time>2016-06-18T08:02:58Z</time>
      </trkpt>
      <trkpt lat="47.85699" lon="0.29117">
        <ele>98</ele>
        <time>2016-06-18T08:03:04Z</time>
      </trkpt>
      <trkpt lat="47.85701" lon="0.29102">
        <ele>100.1</ele>
        <time>2016-06-18T08:03:11Z</time>
      </trkpt>
      <trkpt lat="47.85704" lon="0.29087">
        <ele>100.9</ele>
        <time>2016-06-18T08:03:18Z</time>
      </trkpt>
      <trkpt lat="47.85708" lon="0.29074">
        <ele>101.2</ele>
        <time>2016-06-18T08:03:25Z</time>
      </trkpt>
      <trkpt lat="47.8571" lon="0.2906">
        <ele>101</ele>
        <time>2016-06-18T08:03:32Z</time>
      </trkpt>
      <trkpt lat="47.85713" lon="0.29046">
        <ele>96.7</ele>
        <time>2016-06-18T08:03:40Z</time>
      </trkpt>
      <trkpt lat="47.85716" lon="0.29032">
        <ele>97.6</ele>
        <time>2016-06-18T08:03:48Z</time>
      </trkpt>
      <trkpt lat="47.8572" lon="0.2902">
        <ele>99.9</ele>
        <time>2016-06-18T08:03:56Z</time>
      </trkpt>
      <trkpt lat="47.85725" lon="0.29007">
        <ele>100.2</ele>
        <time>2016-06-18T08:04:30Z</time>
      </trkpt>
      <trkpt lat="47.85729" lon="0.28993">
        <ele>100.6</ele>
        <time>2016-06-18T08:04:37Z</time>
      </trkpt>
      <trkpt lat="47.85733" lon="0.2898">
        <ele>98.2</ele>
        <time>2016-06-18T08:04:45Z</time>
      </trkpt>
      <trkpt lat="47.85739" lon="0.28967">
        <ele>97.6</ele>
        <time>2016-06-18T08:04:52Z</time>
      </trkpt>
      <trkpt lat="47.85741" lon="0.28952">
        <ele>100.7</ele>
        <time>2016-06-18T08:04:59Z</time>
      </trkpt>
      <trkpt lat="47.8574" lon="0.28938">
        <ele>100.7</ele>
        <time>2016-06-18T08:05:07Z</time>
      </trkpt>
      <trkpt lat="47.85741" lon="0.28925">
        <ele>100.2</ele>
        <time>2016-06-18T08:05:15Z</time>
      </trkpt>
      <trkpt lat="47.8574" lon="0.2891">
        <ele>99.8</ele>
        <time>2016-06-18T08:05:22Z</time>
      </trkpt>
      <trkpt lat="47.85736" lon="0.28896">
        <ele>95.6</ele>
        <time>2016-06-18T08:05:29Z</time>
      </trkpt>
      <trkpt lat="47.85734" lon="0.28882">
        <ele>95.6</ele>
        <time>2016-06-18T08:05:37Z</time>
      </trkpt>
      <trkpt lat="47.85732" lon="0.28867">
        <ele>98</ele>
        <time>2016-06-18T08:05:44Z</time>
      </trkpt>
      <trkpt lat="47.8573" lon="0.28854">
        <ele>99.1</ele>
        <time>2016-06-18T08:05:51Z</time>
      </trkpt>
      <trkpt lat="47.85727" lon="0.28841">
        <ele>99.3</ele>
        <time>2016-06-18T08:05:57Z</time>
      </trkpt>
      <trkpt lat="47.85724" lon="0.28826">
        <ele>98.3</ele>
        <time>2016-06-18T08:06:05Z</time>
      </trkpt>
      <trkpt lat="47.85725" lon="0.28813">
        <ele>98.7</ele>
        <time>2016-06-18T08:06:13Z</time>
      </trkpt>
      <trkpt lat="47.85722" lon="0.28799">
        <ele>93.1</ele>
        <time>2016-06-18T08:06:20Z</time>
      </trkpt>
      <trkpt lat="47.8572" lon="0.28786">
        <ele>95.5</ele>
        <time>2016-06-18T08:06:26Z</time>
      </trkpt>
      <trkpt lat="47.85718" lon="0.28773">
        <ele>97.5</ele>
        <time>2016-06-18T08:06:33Z</time>
      </trkpt>
      <trkpt lat="47.85716" lon="0.28757">
        <ele>96.9</ele>
        <time>2016-06-18T08:06:40Z</time>
      </trkpt>
      <trkpt lat="47.85716" lon="0.28744">
        <ele>97.4</ele>
        <time>2016-06-18T08:06:47Z</time>
      </trkpt>
      <trkpt lat="47.85715" lon="0.28728">
        <ele>97.1</ele>
        <time>2016-06-18T08:06:55Z</time>
      </trkpt>
      <trkpt lat="47.85715" lon="0.28714">
        <ele>97.3</ele>
        <time>2016-06-18T08:07:03Z</time>
      </trkpt>
      <trkpt lat="47.85716" lon="0.28699">
        <ele>97.4</ele>
        <time>2016-06-18T08:07:11Z</time>
      </trkpt>
      <trkpt lat="47.85716" lon="0.28684">
        <ele>97.1</ele>
        <time>2016-06-18T08:07:19Z</time>
      </trkpt>
      <trkpt lat="47.85718" lon="0.2867">
        <ele>97.5</ele>
        <time>2016-06-18T08:07:27Z</time>
      </trkpt>
      <trkpt lat="47.85717" lon="0.28655">
        <ele>96.8</ele>
        <time>2016-06-18T08:07:35Z</time>
      </trkpt>
      <trkpt lat="47.85716" lon="0.28641">
        <ele>96.7</ele>
        <time>2016-06-18T08:07:43Z</time>
      </trkpt>
      <trkpt lat="47.85717" lon="0.28627">
        <ele>96.8</ele>
        <time>2016-06-18T08:07:51Z</time>
      </trkpt>
      <trkpt lat="47.85719" lon="0.28613">
        <ele>95.8</ele>
        <time>2016-06-18T08:07:58Z</time>
      </trkpt>
      <trkpt lat="47.85719" lon="0.286">
        <ele>96</ele>
        <time>2016-06-18T08:08:05Z</time>
      </trkpt>
      <trkpt lat="47.8572" lon="0.28586">
        <ele>95.7</ele>
        <time>2016-06-18T08:08:15Z</time>
      </trkpt>
      <trkpt lat="47.85727" lon="0.28577">
        <ele>95.4</ele>
        <time>2016-06-18T08:08:38Z</time>
      </trkpt>
      <trkpt lat="47.85737" lon="0.28571">
        <ele>95.9</ele>
        <time>2016-06-18T08:08:47Z</time>
      </trkpt>
      <trkpt lat="47.85746" lon="0.28568">
        <ele>93.3</ele>
        <time>2016-06-18T08:08:56Z</time>
      </trkpt>
      <trkpt lat="47.85755" lon="0.28564">
        <ele>90.4</ele>
        <time>2016-06-18T08:09:03Z</time>
      </trkpt>
      <trkpt lat="47.85764" lon="0.28561">
        <ele>92.2</ele>
        <time>2016-06-18T08:09:10Z</time>
      </trkpt>
      <trkpt lat="47.85773" lon="0.28553">
        <ele>93.2</ele>
        <time>2016-06-18T08:09:18Z</time>
      </trkpt>
      <trkpt lat="47.85781" lon="0.28547">
        <ele>94.8</ele>
        <time>2016-06-18T08:09:27Z</time>
      </trkpt>
      <trkpt lat="47.8579" lon="0.28542">
        <ele>87.8</ele>
        <time>2016-06-18T08:09:35Z</time>
      </trkpt>
      <trkpt lat="47.85798" lon="0.28536">
        <ele>86.7</ele>
        <time>2016-06-18T08:09:42Z</time>
      </trkpt>
      <trkpt lat="47.85807" lon="0.28529">
        <ele>88.8</ele>
        <time>2016-06-18T08:09:49Z</time>
      </trkpt>
      <trkpt lat="47.85815" lon="0.28523">
        <ele>90.7</ele>
        <time>2016-06-18T08:09:56Z</time>
      </trkpt>
      <trkpt lat="47.85824" lon="0.28517">
        <ele>90.4</ele>
        <time>2016-06-18T08:10:04Z</time>
      </trkpt>
      <trkpt lat="47.85833" lon="0.2851">
        <ele>89.8</ele>
        <time>2016-06-18T08:10:12Z</time>
      </trkpt>
      <trkpt lat="47.85841" lon="0.28503">
        <ele>89</ele>
        <time>2016-06-18T08:10:19Z</time>
      </trkpt>
      <trkpt lat="47.8585" lon="0.28494">
        <ele>90.6</ele>
        <time>2016-06-18T08:10:27Z</time>
      </trkpt>
      <trkpt lat="47.85859" lon="0.28489">
        <ele>95.1</ele>
        <time>2016-06-18T08:10:34Z</time>
      </trkpt>
      <trkpt lat="47.85867" lon="0.28484">
        <ele>95.7</ele>
        <time>2016-06-18T08:10:41Z</time>
      </trkpt>
      <trkpt lat="47.85876" lon="0.2848">
        <ele>94.7</ele>
        <time>2016-06-18T08:10:49Z</time>
      </trkpt>
      <trkpt lat="47.85885" lon="0.28476">
        <ele>89.8</ele>
        <time>2016-06-18T08:10:56Z</time>
      </trkpt>
      <trkpt lat="47.85893" lon="0.2847">
        <ele>89.6</ele>
        <time>2016-06-18T08:11:03Z</time>
      </trkpt>
      <trkpt lat="47.85901" lon="0.28464">
        <ele>90.6</ele>
        <time>2016-06-18T08:11:11Z</time>
      </trkpt>
      <trkpt lat="47.8591" lon="0.28459">
        <ele>91.1</ele>
        <time>2016-06-18T08:11:19Z</time>
      </trkpt>
      <trkpt lat="47.85919" lon="0.28456">
        <ele>87.1</ele>
        <time>2016-06-18T08:11:28Z</time>
      </trkpt>
      <trkpt lat="47.85928" lon="0.28452">
        <ele>88.2</ele>
        <time>2016-06-18T08:11:36Z</time>
      </trkpt>
      <trkpt lat="47.85937" lon="0.28447">
        <ele>90.1</ele>
        <time>2016-06-18T08:11:43Z</time>
      </trkpt>
      <trkpt lat="47.85947" lon="0.28444">
        <ele>89.6</ele>
        <time>2016-06-18T08:11:52Z</time>
      </trkpt>
      <trkpt lat="47.85956" lon="0.28438">
        <ele>90.7</ele>
        <time>2016-06-18T08:12:00Z</time>
      </trkpt>
      <trkpt lat="47.85966" lon="0.28436">
        <ele>92.8</ele>
        <time>2016-06-18T08:12:08Z</time>
      </trkpt>
      <trkpt lat="47.85974" lon="0.28431">
        <ele>93.6</ele>
        <time>2016-06-18T08:12:50Z</time>
      </trkpt>
      <trkpt lat="47.85984" lon="0.28427">
        <ele>95.4</ele>
        <time>2016-06-18T08:12:57Z</time>
      </trkpt>
      <trkpt lat="47.85993" lon="0.28426">
        <ele>94.5</ele>
        <time>2016-06-18T08:13:04Z</time>
      </trkpt>
      <trkpt lat="47.86003" lon="0.28423">
        <ele>91.7</ele>
        <time>2016-06-18T08:13:11Z</time>
      </trkpt>
      <trkpt lat="47.86012" lon="0.28421">
        <ele>91</ele>
        <time>2016-06-18T08:13:18Z</time>
      </trkpt>
      <trkpt lat="47.86021" lon="0.2842">
        <ele>93</ele>
        <time>2016-06-18T08:13:25Z</time>
      </trkpt>
      <trkpt lat="47.86031" lon="0.28418">
        <ele>95.8</ele>
        <time>2016-06-18T08:13:33Z</time>
      </trkpt>
      <trkpt lat="47.86041" lon="0.28418">
        <ele>96.5</ele>
        <time>2016-06-18T08:13:41Z</time>
      </trkpt>
      <trkpt lat="47.8605" lon="0.28414">
        <ele>97.2</ele>
        <time>2016-06-18T08:13:48Z</time>
      </trkpt>
      <trkpt lat="47.8606" lon="0.28412">
        <ele>97.2</ele>
        <time>2016-06-18T08:13:56Z</time>
      </trkpt>
      <trkpt lat="47.86069" lon="0.2841">
        <ele>97.7</ele>
        <time>2016-06-18T08:14:03Z</time>
      </trkpt>
      <trkpt lat="47.86078" lon="0.28407">
        <ele>98</ele>
        <time>2016-06-18T08:14:11Z</time>
      </trkpt>
      <trkpt lat="47.86087" lon="0.28402">
        <ele>96.7</ele>
        <time>2016-06-18T08:14:18Z</time>
      </trkpt>
      <trkpt lat="47.86096" lon="0.28398">
        <ele>90.5</ele>
        <time>2016-06-18T08:14:26Z</time>
      </trkpt>
      <trkpt lat="47.86105" lon="0.28394">
        <ele>97.8</ele>
        <time>2016-06-18T08:14:34Z</time>
      </trkpt>
      <trkpt lat="47.86115" lon="0.28388">
        <ele>99</ele>
        <time>2016-06-18T08:14:42Z</time>
      </trkpt>
      <trkpt lat="47.86124" lon="0.28383">
        <ele>98.1</ele>
        <time>2016-06-18T08:14:50Z</time>
      </trkpt>
      <trkpt lat="47.86132" lon="0.28378">
        <ele>98.4</ele>
        <time>2016-06-18T08:14:57Z</time>
      </trkpt>
      <trkpt lat="47.86141" lon="0.28375">
        <ele>95.8</ele>
        <time>2016-06-18T08:15:35Z</time>
      </trkpt>
      <trkpt lat="47.86151" lon="0.28371">
        <ele>93.9</ele>
        <time>2016-06-18T08:15:43Z</time>
      </trkpt>
      <trkpt lat="47.8616" lon="0.28367">
        <ele>99.7</ele>
        <time>2016-06-18T08:15:51Z</time>
      </trkpt>
      <trkpt lat="47.86169" lon="0.28363">
        <ele>100.5</ele>
        <time>2016-06-18T08:15:58Z</time>
      </trkpt>
      <trkpt lat="47.86178" lon="0.28357">
        <ele>100.2</ele>
        <time>2016-06-18T08:16:06Z</time>
      </trkpt>
      <trkpt lat="47.86187" lon="0.28352">
        <ele>95.1</ele>
        <time>2016-06-18T08:16:14Z</time>
      </trkpt>
      <trkpt lat="47.86195" lon="0.28347">
        <ele>94.2</ele>
        <time>2016-06-18T08:16:21Z</time>
      </trkpt>
      <trkpt lat="47.86204" lon="0.2834">
        <ele>97.5</ele>
        <time>2016-06-18T08:16:29Z</time>
      </trkpt>
      <trkpt lat="47.86212" lon="0.28334">
        <ele>100.8</ele>
        <time>2016-06-18T08:16:36Z</time>
      </trkpt>
      <trkpt lat="47.86219" lon="0.28325">
        <ele>102.5</ele>
        <time>2016-06-18T08:16:43Z</time>
      </trkpt>
      <trkpt lat="47.86227" lon="0.28315">
        <ele>101.6</ele>
        <time>2016-06-18T08:16:51Z</time>
      </trkpt>
      <trkpt lat="47.86233" lon="0.28306">
        <ele>101.4</ele>
        <time>2016-06-18T08:16:58Z</time>
      </trkpt>
      <trkpt lat="47.8624" lon="0.28295">
        <ele>102.1</ele>
        <time>2016-06-18T08:17:05Z</time>
      </trkpt>
      <trkpt lat="47.86248" lon="0.28285">
        <ele>104.2</ele>
        <time>2016-06-18T08:17:13Z</time>
      </trkpt>
      <trkpt lat="47.86256" lon="0.28278">
        <ele>100.9</ele>
        <time>2016-06-18T08:17:21Z</time>
      </trkpt>
      <trkpt lat="47.86263" lon="0.2827">
        <ele>103.4</ele>
        <time>2016-06-18T08:17:28Z</time>
      </trkpt>
      <trkpt lat="47.86273" lon="0.28264">
        <ele>102.7</ele>
        <time>2016-06-18T08:17:36Z</time>
      </trkpt>
      <trkpt lat="47.86282" lon="0.28259">
        <ele>104.7</ele>
        <time>2016-06-18T08:17:43Z</time>
      </trkpt>
      <trkpt lat="47.86291" lon="0.28259">
        <ele>105</ele>
        <time>2016-06-18T08:17:51Z</time>
      </trkpt>
      <trkpt lat="47.86301" lon="0.28257">
        <ele>105.3</ele>
        <time>2016-06-18T08:17:59Z</time>
      </trkpt>
      <trkpt lat="47.86311" lon="0.28255">
        <ele>104.7</ele>
        <time>2016-06-18T08:18:07Z</time>
      </trkpt>
      <trkpt lat="47.8632" lon="0.28253">
        <ele>105.5</ele>
        <time>2016-06-18T08:18:15Z</time>
      </trkpt>
      <trkpt lat="47.86329" lon="0.2825">
        <ele>105.9</ele>
        <time>2016-06-18T08:18:22Z</time>
      </trkpt>
      <trkpt lat="47.86337" lon="0.28242">
        <ele>103.1</ele>
        <time>2016-06-18T08:18:33Z</time>
      </trkpt>
      <trkpt lat="47.86337" lon="0.28228">
        <ele>102.9</ele>
        <time>2016-06-18T08:18:49Z</time>
      </trkpt>
      <trkpt lat="47.86336" lon="0.28215">
        <ele>100.3</ele>
        <time>2016-06-18T08:18:57Z</time>
      </trkpt>
      <trkpt lat="47.86334" lon="0.282">
        <ele>101.7</ele>
        <time>2016-06-18T08:19:05Z</time>
      </trkpt>
      <trkpt lat="47.86332" lon="0.28187">
        <ele>102.5</ele>
        <time>2016-06-18T08:19:12Z</time>
      </trkpt>
      <trkpt lat="47.86329" lon="0.28172">
        <ele>98.7</ele>
        <time>2016-06-18T08:19:20Z</time>
      </trkpt>
      <trkpt lat="47.86329" lon="0.28159">
        <ele>97</ele>
        <time>2016-06-18T08:19:27Z</time>
      </trkpt>
      <trkpt lat="47.86328" lon="0.28145">
        <ele>97.5</ele>
        <time>2016-06-18T08:19:34Z</time>
      </trkpt>
      <trkpt lat="47.86329" lon="0.28131">
        <ele>98.3</ele>
        <time>2016-06-18T08:19:41Z</time>
      </trkpt>
      <trkpt lat="47.86331" lon="0.28117">
        <ele>94.4</ele>
        <time>2016-06-18T08:19:49Z</time>
      </trkpt>
      <trkpt lat="47.86335" lon="0.28103">
        <ele>92.1</ele>
        <time>2016-06-18T08:19:57Z</time>
      </trkpt>
      <trkpt lat="47.86338" lon="0.2809">
        <ele>91.5</ele>
        <time>2016-06-18T08:20:04Z</time>
      </trkpt>
      <trkpt lat="47.86342" lon="0.28077">
        <ele>91.7</ele>
        <time>2016-06-18T08:20:12Z</time>
      </trkpt>
      <trkpt lat="47.86347" lon="0.28063">
        <ele>93.9</ele>
        <time>2016-06-18T08:20:21Z</time>
      </trkpt>
      <trkpt lat="47.86349" lon="0.28048">
        <ele>91.6</ele>
        <time>2016-06-18T08:20:28Z</time>
      </trkpt>
      <trkpt lat="47.86353" lon="0.28034">
        <ele>94.7</ele>
        <time>2016-06-18T08:20:36Z</time>
      </trkpt>
      <trkpt lat="47.86356" lon="0.28021">
        <ele>97.5</ele>
        <time>2016-06-18T08:20:44Z</time>
      </trkpt>
      <trkpt lat="47.8636" lon="0.28008">
        <ele>98.1</ele>
        <time>2016-06-18T08:20:51Z</time>
      </trkpt>
      <trkpt lat="47.86363" lon="0.27995">
        <ele>97.7</ele>
        <time>2016-06-18T08:20:58Z</time>
      </trkpt>
      <trkpt lat="47.86367" lon="0.27983">
        <ele>98.2</ele>
        <time>2016-06-18T08:21:05Z</time>
      </trkpt>
      <trkpt lat="47.8637" lon="0.27968">
        <ele>96.6</ele>
        <time>2016-06-18T08:21:13Z</time>
      </trkpt>
      <trkpt lat="47.86374" lon="0.27955">
        <ele>97</ele>
        <time>2016-06-18T08:21:20Z</time>
      </trkpt>
      <trkpt lat="47.86377" lon="0.27942">
        <ele>96.2</ele>
        <time>2016-06-18T08:21:27Z</time>
      </trkpt>
      <trkpt lat="47.86381" lon="0.27929">
        <ele>91</ele>
        <time>2016-06-18T08:21:34Z</time>
      </trkpt>
      <trkpt lat="47.86384" lon="0.27916">
        <ele>90.5</ele>
        <time>2016-06-18T08:21:41Z</time>
      </trkpt>
      <trkpt lat="47.86388" lon="0.27903">
        <ele>93.8</ele>
        <time>2016-06-18T08:21:48Z</time>
      </trkpt>
      <trkpt lat="47.86391" lon="0.2789">
        <ele>95.6</ele>
        <time>2016-06-18T08:21:55Z</time>
      </trkpt>
      <trkpt lat="47.86394" lon="0.27878">
        <ele>96</ele>
        <time>2016-06-18T08:22:02Z</time>
      </trkpt>
      <trkpt lat="47.86397" lon="0.27863">
        <ele>95.6</ele>
        <time>2016-06-18T08:22:10Z</time>
      </trkpt>
      <trkpt lat="47.864" lon="0.2785">
        <ele>95.3</ele>
        <time>2016-06-18T08:22:17Z</time>
      </trkpt>
      <trkpt lat="47.86403" lon="0.27836">
        <ele>94.1</ele>
        <time>2016-06-18T08:22:24Z</time>
      </trkpt>
      <trkpt lat="47.86407" lon="0.27823">
        <ele>90.2</ele>
        <time>2016-06-18T08:22:32Z</time>
      </trkpt>
      <trkpt lat="47.86411" lon="0.27808">
        <ele>88.2</ele>
        <time>2016-06-18T08:22:40Z</time>
      </trkpt>
      <trkpt lat="47.86414" lon="0.27795">
        <ele>87.5</ele>
        <time>2016-06-18T08:22:47Z</time>
      </trkpt>
      <trkpt lat="47.86418" lon="0.27782">
        <ele>87.8</ele>
        <time>2016-06-18T08:22:55Z</time>
      </trkpt>
      <trkpt lat="47.8642" lon="0.27768">
        <ele>90.9</ele>
        <time>2016-06-18T08:23:13Z</time>
      </trkpt>
      <trkpt lat="47.86423" lon="0.27754">
        <ele>94.3</ele>
        <time>2016-06-18T08:23:25Z</time>
      </trkpt>
      <trkpt lat="47.86427" lon="0.27742">
        <ele>88.7</ele>
        <time>2016-06-18T08:23:32Z</time>
      </trkpt>
      <trkpt lat="47.8643" lon="0.27728">
        <ele>91.7</ele>
        <time>2016-06-18T08:23:40Z</time>
      </trkpt>
      <trkpt lat="47.86433" lon="0.27715">
        <ele>91.6</ele>
        <time>2016-06-18T08:23:47Z</time>
      </trkpt>
      <trkpt lat="47.86437" lon="0.27702">
        <ele>92.2</ele>
        <time>2016-06-18T08:23:54Z</time>
      </trkpt>
      <trkpt lat="47.8644" lon="0.27689">
        <ele>90.1</ele>
        <time>2016-06-18T08:24:01Z</time>
      </trkpt>
      <trkpt lat="47.86444" lon="0.27676">
        <ele>86</ele>
        <time>2016-06-18T08:24:08Z</time>
      </trkpt>
      <trkpt lat="47.86449" lon="0.27663">
        <ele>86</ele>
        <time>2016-06-18T08:24:15Z</time>
      </trkpt>
      <trkpt lat="47.86454" lon="0.27649">
        <ele>90.7</ele>
        <time>2016-06-18T08:24:23Z</time>
      </trkpt>
      <trkpt lat="47.86457" lon="0.27635">
        <ele>94</ele>
        <time>2016-06-18T08:24:31Z</time>
      </trkpt>
      <trkpt lat="47.86462" lon="0.27623">
        <ele>93.1</ele>
        <time>2016-06-18T08:24:39Z</time>
      </trkpt>
      <trkpt lat="47.86467" lon="0.27611">
        <ele>93</ele>
        <time>2016-06-18T08:24:46Z</time>
      </trkpt>
      <trkpt lat="47.86472" lon="0.27599">
        <ele>90.1</ele>
        <time>2016-06-18T08:24:54Z</time>
      </trkpt>
      <trkpt lat="47.86476" lon="0.27585">
        <ele>87.4</ele>
        <time>2016-06-18T08:25:01Z</time>
      </trkpt>
      <trkpt lat="47.86478" lon="0.27572">
        <ele>88.7</ele>
        <time>2016-06-18T08:25:28Z</time>
      </trkpt>
      <trkpt lat="47.86482" lon="0.27559">
        <ele>84.5</ele>
        <time>2016-06-18T08:25:34Z</time>
      </trkpt>
      <trkpt lat="47.86484" lon="0.27545">
        <ele>88.8</ele>
        <time>2016-06-18T08:25:41Z</time>
      </trkpt>
      <trkpt lat="47.86485" lon="0.27532">
        <ele>89.5</ele>
        <time>2016-06-18T08:25:48Z</time>
      </trkpt>
      <trkpt lat="47.86487" lon="0.27518">
        <ele>91.9</ele>
        <time>2016-06-18T08:25:55Z</time>
      </trkpt>
      <trkpt lat="47.86489" lon="0.27504">
        <ele>91</ele>
        <time>2016-06-18T08:26:02Z</time>
      </trkpt>
      <trkpt lat="47.8649" lon="0.2749">
        <ele>90.3</ele>
        <time>2016-06-18T08:26:09Z</time>
      </trkpt>
      <trkpt lat="47.86493" lon="0.27475">
        <ele>90.6</ele>
        <time>2016-06-18T08:26:17Z</time>
      </trkpt>
      <trkpt lat="47.86496" lon="0.27462">
        <ele>90.3</ele>
        <time>2016-06-18T08:26:25Z</time>
      </trkpt>
      <trkpt lat="47.865" lon="0.27448">
        <ele>89.6</ele>
        <time>2016-06-18T08:26:32Z</time>
      </trkpt>
      <trkpt lat="47.86504" lon="0.27434">
        <ele>89.5</ele>
        <time>2016-06-18T08:26:40Z</time>
      </trkpt>
      <trkpt lat="47.86509" lon="0.2742">
        <ele>90.5</ele>
        <time>2016-06-18T08:26:48Z</time>
      </trkpt>
      <trkpt lat="47.86514" lon="0.27408">
        <ele>90.5</ele>
        <time>2016-06-18T08:26:55Z</time>
      </trkpt>
      <trkpt lat="47.8652" lon="0.27398">
        <ele>91</ele>
        <time>2016-06-18T08:27:02Z</time>
      </trkpt>
      <trkpt lat="47.86526" lon="0.27386">
        <ele>89.9</ele>
        <time>2016-06-18T08:27:10Z</time>
      </trkpt>
      <trkpt lat="47.86531" lon="0.27374">
        <ele>89.9</ele>
        <time>2016-06-18T08:27:18Z</time>
      </trkpt>
      <trkpt lat="47.86536" lon="0.27362">
        <ele>90.9</ele>
        <time>2016-06-18T08:27:25Z</time>
      </trkpt>
      <trkpt lat="47.86543" lon="0.27351">
        <ele>91.2</ele>
        <time>2016-06-18T08:27:33Z</time>
      </trkpt>
      <trkpt lat="47.86549" lon="0.2734">
        <ele>91</ele>
        <time>2016-06-18T08:27:41Z</time>
      </trkpt>
      <trkpt lat="47.86555" lon="0.27327">
        <ele>90.9</ele>
        <time>2016-06-18T08:27:49Z</time>
      </trkpt>
      <trkpt lat="47.8656" lon="0.27315">
        <ele>90.6</ele>
        <time>2016-06-18T08:27:56Z</time>
      </trkpt>
      <trkpt lat="47.86564" lon="0.27302">
        <ele>90.9</ele>
        <time>2016-06-18T08:28:50Z</time>
      </trkpt>
      <trkpt lat="47.86566" lon="0.27288">
        <ele>90.8</ele>
        <time>2016-06-18T08:28:58Z</time>
      </trkpt>
      <trkpt lat="47.86568" lon="0.27274">
        <ele>91.1</ele>
        <time>2016-06-18T08:29:07Z</time>
      </trkpt>
      <trkpt lat="47.86569" lon="0.27259">
        <ele>90.8</ele>
        <time>2016-06-18T08:29:15Z</time>
      </trkpt>
      <trkpt lat="47.86569" lon="0.27245">
        <ele>90.7</ele>
        <time>2016-06-18T08:29:23Z</time>
      </trkpt>
      <trkpt lat="47.86571" lon="0.27229">
        <ele>91.8</ele>
        <time>2016-06-18T08:29:31Z</time>
      </trkpt>
      <trkpt lat="47.86574" lon="0.27216">
        <ele>91.3</ele>
        <time>2016-06-18T08:29:39Z</time>
      </trkpt>
      <trkpt lat="47.86576" lon="0.27201">
        <ele>91.2</ele>
        <time>2016-06-18T08:29:47Z</time>
      </trkpt>
      <trkpt lat="47.86578" lon="0.27186">
        <ele>91.3</ele>
        <time>2016-06-18T08:29:56Z</time>
      </trkpt>
      <trkpt lat="47.86579" lon="0.27171">
        <ele>91.3</ele>
        <time>2016-06-18T08:30:05Z</time>
      </trkpt>
      <trkpt lat="47.86579" lon="0.27157">
        <ele>91.4</ele>
        <time>2016-06-18T08:30:13Z</time>
      </trkpt>
      <trkpt lat="47.86577" lon="0.27142">
        <ele>91.9</ele>
        <time>2016-06-18T08:30:21Z</time>
      </trkpt>
      <trkpt lat="47.86575" lon="0.27128">
        <ele>91.9</ele>
        <time>2016-06-18T08:30:29Z</time>
      </trkpt>
      <trkpt lat="47.86574" lon="0.27113">
        <ele>92.4</ele>
        <time>2016-06-18T08:30:37Z</time>
      </trkpt>
      <trkpt lat="47.86571" lon="0.27099">
        <ele>92.3</ele>
        <time>2016-06-18T08:30:45Z</time>
      </trkpt>
      <trkpt lat="47.86572" lon="0.27084">
        <ele>92.3</ele>
        <time>2016-06-18T08:30:53Z</time>
      </trkpt>
      <trkpt lat="47.86575" lon="0.27071">
        <ele>92.5</ele>
        <time>2016-06-18T08:31:00Z</time>
      </trkpt>
      <trkpt lat="47.86578" lon="0.27057">
        <ele>93.4</ele>
        <time>2016-06-18T08:31:08Z</time>
      </trkpt>
      <trkpt lat="47.86581" lon="0.27044">
        <ele>91.9</ele>
        <time>2016-06-18T08:31:16Z</time>
      </trkpt>
      <trkpt lat="47.86584" lon="0.27031">
        <ele>92.7</ele>
        <time>2016-06-18T08:31:24Z</time>
      </trkpt>
      <trkpt lat="47.86589" lon="0.27018">
        <ele>93.6</ele>
        <time>2016-06-18T08:31:32Z</time>
      </trkpt>
      <trkpt lat="47.86594" lon="0.27005">
        <ele>93.4</ele>
        <time>2016-06-18T08:31:39Z</time>
      </trkpt>
      <trkpt lat="47.86598" lon="0.26993">
        <ele>92.2</ele>
        <time>2016-06-18T08:31:46Z</time>
      </trkpt>
      <trkpt lat="47.86604" lon="0.26982">
        <ele>92.1</ele>
        <time>2016-06-18T08:31:53Z</time>
      </trkpt>
      <trkpt lat="47.86607" lon="0.26968">
        <ele>92.8</ele>
        <time>2016-06-18T08:32:02Z</time>
      </trkpt>
      <trkpt lat="47.86611" lon="0.26955">
        <ele>92.6</ele>
        <time>2016-06-18T08:32:11Z</time>
      </trkpt>
      <trkpt lat="47.86615" lon="0.26941">
        <ele>93.2</ele>
        <time>2016-06-18T08:32:18Z</time>
      </trkpt>
      <trkpt lat="47.86619" lon="0.26927">
        <ele>92.2</ele>
        <time>2016-06-18T08:32:26Z</time>
      </trkpt>
      <trkpt lat="47.86624" lon="0.26913">
        <ele>91.6</ele>
        <time>2016-06-18T08:32:33Z</time>
      </trkpt>
      <trkpt lat="47.86625" lon="0.26897">
        <ele>90.8</ele>
        <time>2016-06-18T08:32:41Z</time>
      </trkpt>
      <trkpt lat="47.86627" lon="0.26883">
        <ele>92.8</ele>
        <time>2016-06-18T08:32:49Z</time>
      </trkpt>
      <trkpt lat="47.86628" lon="0.26869">
        <ele>92.4</ele>
        <time>2016-06-18T08:32:57Z</time>
      </trkpt>
      <trkpt lat="47.86627" lon="0.26854">
        <ele>92.5</ele>
        <time>2016-06-18T08:33:05Z</time>
      </trkpt>
      <trkpt lat="47.86626" lon="0.2684">
        <ele>92.3</ele>
        <time>2016-06-18T08:33:12Z</time>
      </trkpt>
      <trkpt lat="47.86624" lon="0.26827">
        <ele>92</ele>
        <time>2016-06-18T08:33:19Z</time>
      </trkpt>
      <trkpt lat="47.86622" lon="0.26812">
        <ele>92</ele>
        <time>2016-06-18T08:33:27Z</time>
      </trkpt>
      <trkpt lat="47.86619" lon="0.26799">
        <ele>92.1</ele>
        <time>2016-06-18T08:33:34Z</time>
      </trkpt>
      <trkpt lat="47.86618" lon="0.26785">
        <ele>91.9</ele>
        <time>2016-06-18T08:33:41Z</time>
      </trkpt>
      <trkpt lat="47.86617" lon="0.26771">
        <ele>92.5</ele>
        <time>2016-06-18T08:33:50Z</time>
      </trkpt>
      <trkpt lat="47.86615" lon="0.26756">
        <ele>92.2</ele>
        <time>2016-06-18T08:33:57Z</time>
      </trkpt>
      <trkpt lat="47.86612" lon="0.26741">
        <ele>92.9</ele>
        <time>2016-06-18T08:34:07Z</time>
      </trkpt>
      <trkpt lat="47.8661" lon="0.26726">
        <ele>93.2</ele>
        <time>2016-06-18T08:34:15Z</time>
      </trkpt>
      <trkpt lat="47.86607" lon="0.26711">
        <ele>93.7</ele>
        <time>2016-06-18T08:34:23Z</time>
      </trkpt>
      <trkpt lat="47.86606" lon="0.26697">
        <ele>93.5</ele>
        <time>2016-06-18T08:34:31Z</time>
      </trkpt>
      <trkpt lat="47.86603" lon="0.26682">
        <ele>91.8</ele>
        <time>2016-06-18T08:34:39Z</time>
      </trkpt>
      <trkpt lat="47.86602" lon="0.26667">
        <ele>91.7</ele>
        <time>2016-06-18T08:34:46Z</time>
      </trkpt>
      <trkpt lat="47.866" lon="0.26654">
        <ele>92</ele>
        <time>2016-06-18T08:34:53Z</time>
      </trkpt>
      <trkpt lat="47.866" lon="0.2664">
        <ele>92.1</ele>
        <time>2016-06-18T08:35:00Z</time>
      </trkpt>
      <trkpt lat="47.86602" lon="0.26627">
        <ele>91.9</ele>
        <time>2016-06-18T08:35:07Z</time>
      </trkpt>
      <trkpt lat="47.86606" lon="0.26613">
        <ele>91.3</ele>
        <time>2016-06-18T08:35:15Z</time>
      </trkpt>
      <trkpt lat="47.86611" lon="0.26601">
        <ele>90.9</ele>
        <time>2016-06-18T08:35:23Z</time>
      </trkpt>
      <trkpt lat="47.86618" lon="0.26591">
        <ele>91.2</ele>
        <time>2016-06-18T08:35:30Z</time>
      </trkpt>
      <trkpt lat="47.86625" lon="0.2658">
        <ele>91</ele>
        <time>2016-06-18T08:35:38Z</time>
      </trkpt>
      <trkpt lat="47.86632" lon="0.26571">
        <ele>91.1</ele>
        <time>2016-06-18T08:35:44Z</time>
      </trkpt>
      <trkpt lat="47.86639" lon="0.26559">
        <ele>91.2</ele>
        <time>2016-06-18T08:35:51Z</time>
      </trkpt>
      <trkpt lat="47.86646" lon="0.2655">
        <ele>90.9</ele>
        <time>2016-06-18T08:35:59Z</time>
      </trkpt>
      <trkpt lat="47.86649" lon="0.26536">
        <ele>89.9</ele>
        <time>2016-06-18T08:36:07Z</time>
      </trkpt>
      <trkpt lat="47.86656" lon="0.26523">
        <ele>90.5</ele>
        <time>2016-06-18T08:36:16Z</time>
      </trkpt>
      <trkpt lat="47.86664" lon="0.26513">
        <ele>90.5</ele>
        <time>2016-06-18T08:36:24Z</time>
      </trkpt>
      <trkpt lat="47.8667" lon="0.26502">
        <ele>90.8</ele>
        <time>2016-06-18T08:36:31Z</time>
      </trkpt>
      <trkpt lat="47.86678" lon="0.26496">
        <ele>90.9</ele>
        <time>2016-06-18T08:36:38Z</time>
      </trkpt>
      <trkpt lat="47.86684" lon="0.26485">
        <ele>91.3</ele>
        <time>2016-06-18T08:36:46Z</time>
      </trkpt>
      <trkpt lat="47.86691" lon="0.26476">
        <ele>91.1</ele>
        <time>2016-06-18T08:36:53Z</time>
      </trkpt>
      <trkpt lat="47.86696" lon="0.26464">
        <ele>91.7</ele>
        <time>2016-06-18T08:36:59Z</time>
      </trkpt>
      <trkpt lat="47.86702" lon="0.26455">
        <ele>90.6</ele>
        <time>2016-06-18T08:37:07Z</time>
      </trkpt>
      <trkpt lat="47.86709" lon="0.26445">
        <ele>91</ele>
        <time>2016-06-18T08:37:16Z</time>
      </trkpt>
      <trkpt lat="47.86716" lon="0.26436">
        <ele>91.4</ele>
        <time>2016-06-18T08:39:28Z</time>
      </trkpt>
      <trkpt lat="47.86722" lon="0.26425">
        <ele>92.1</ele>
        <time>2016-06-18T08:39:37Z</time>
      </trkpt>
      <trkpt lat="47.86728" lon="0.26413">
        <ele>92</ele>
        <time>2016-06-18T08:39:45Z</time>
      </trkpt>
      <trkpt lat="47.86734" lon="0.26402">
        <ele>92.8</ele>
        <time>2016-06-18T08:39:52Z</time>
      </trkpt>
      <trkpt lat="47.8674" lon="0.26391">
        <ele>92.7</ele>
        <time>2016-06-18T08:39:59Z</time>
      </trkpt>
      <trkpt lat="47.86747" lon="0.26379">
        <ele>92.6</ele>
        <time>2016-06-18T08:40:07Z</time>
      </trkpt>
      <trkpt lat="47.86753" lon="0.26368">
        <ele>92.2</ele>
        <time>2016-06-18T08:40:15Z</time>
      </trkpt>
      <trkpt lat="47.8676" lon="0.26357">
        <ele>91.4</ele>
        <time>2016-06-18T08:40:22Z</time>
      </trkpt>
      <trkpt lat="47.86766" lon="0.26347">
        <ele>92.4</ele>
        <time>2016-06-18T08:40:32Z</time>
      </trkpt>
      <trkpt lat="47.86773" lon="0.26335">
        <ele>92.2</ele>
        <time>2016-06-18T08:40:40Z</time>
      </trkpt>
      <trkpt lat="47.86778" lon="0.26324">
        <ele>92</ele>
        <time>2016-06-18T08:40:47Z</time>
      </trkpt>
      <trkpt lat="47.86784" lon="0.26313">
        <ele>91.7</ele>
        <time>2016-06-18T08:40:54Z</time>
      </trkpt>
      <trkpt lat="47.86789" lon="0.26301">
        <ele>92.5</ele>
        <time>2016-06-18T08:41:01Z</time>
      </trkpt>
      <trkpt lat="47.86794" lon="0.26288">
        <ele>92.5</ele>
        <time>2016-06-18T08:41:08Z</time>
      </trkpt>
      <trkpt lat="47.86799" lon="0.26275">
        <ele>92</ele>
        <time>2016-06-18T08:41:15Z</time>
      </trkpt>
      <trkpt lat="47.86802" lon="0.26261">
        <ele>91.1</ele>
        <time>2016-06-18T08:41:22Z</time>
      </trkpt>
      <trkpt lat="47.86805" lon="0.26247">
        <ele>90.1</ele>
        <time>2016-06-18T08:41:30Z</time>
      </trkpt>
      <trkpt lat="47.86808" lon="0.26234">
        <ele>89.9</ele>
        <time>2016-06-18T08:41:37Z</time>
      </trkpt>
      <trkpt lat="47.86811" lon="0.26221">
        <ele>89.1</ele>
        <time>2016-06-18T08:41:44Z</time>
      </trkpt>
      <trkpt lat="47.86812" lon="0.26203">
        <ele>85.8</ele>
        <time>2016-06-18T08:41:53Z</time>
      </trkpt>
      <trkpt lat="47.86812" lon="0.26189">
        <ele>89.2</ele>
        <time>2016-06-18T08:42:00Z</time>
      </trkpt>
      <trkpt lat="47.86813" lon="0.26175">
        <ele>90.5</ele>
        <time>2016-06-18T08:42:08Z</time>
      </trkpt>
      <trkpt lat="47.86814" lon="0.26161">
        <ele>93.1</ele>
        <time>2016-06-18T08:42:16Z</time>
      </trkpt>
      <trkpt lat="47.86817" lon="0.26148">
        <ele>89.7</ele>
        <time>2016-06-18T08:42:22Z</time>
      </trkpt>
      <trkpt lat="47.8682" lon="0.26132">
        <ele>89.2</ele>
        <time>2016-06-18T08:42:29Z</time>
      </trkpt>
      <trkpt lat="47.86822" lon="0.26119">
        <ele>88</ele>
        <time>2016-06-18T08:42:36Z</time>
      </trkpt>
      <trkpt lat="47.86824" lon="0.26103">
        <ele>88.2</ele>
        <time>2016-06-18T08:42:44Z</time>
      </trkpt>
      <trkpt lat="47.86825" lon="0.26089">
        <ele>87.8</ele>
        <time>2016-06-18T08:42:52Z</time>
      </trkpt>
      <trkpt lat="47.86826" lon="0.26075">
        <ele>86.8</ele>
        <time>2016-06-18T08:42:59Z</time>
      </trkpt>
      <trkpt lat="47.86828" lon="0.26062">
        <ele>86.4</ele>
        <time>2016-06-18T08:43:06Z</time>
      </trkpt>
      <trkpt lat="47.8683" lon="0.26048">
        <ele>86</ele>
        <time>2016-06-18T08:43:13Z</time>
      </trkpt>
      <trkpt lat="47.8683" lon="0.26034">
        <ele>86.1</ele>
        <time>2016-06-18T08:43:20Z</time>
      </trkpt>
      <trkpt lat="47.8683" lon="0.26019">
        <ele>86.8</ele>
        <time>2016-06-18T08:43:28Z</time>
      </trkpt>
      <trkpt lat="47.86831" lon="0.26006">
        <ele>87</ele>
        <time>2016-06-18T08:43:35Z</time>
      </trkpt>
      <trkpt lat="47.86831" lon="0.25992">
        <ele>86.4</ele>
        <time>2016-06-18T08:43:42Z</time>
      </trkpt>
      <trkpt lat="47.86831" lon="0.25978">
        <ele>86.4</ele>
        <time>2016-06-18T08:43:49Z</time>
      </trkpt>
      <trkpt lat="47.86831" lon="0.25963">
        <ele>85.9</ele>
        <time>2016-06-18T08:43:57Z</time>
      </trkpt>
      <trkpt lat="47.86832" lon="0.25948">
        <ele>86.3</ele>
        <time>2016-06-18T08:44:06Z</time>
      </trkpt>
      <trkpt lat="47.86833" lon="0.25933">
        <ele>85.6</ele>
        <time>2016-06-18T08:44:13Z</time>
      </trkpt>
      <trkpt lat="47.86837" lon="0.25919">
        <ele>86.9</ele>
        <time>2016-06-18T08:44:21Z</time>
      </trkpt>
      <trkpt lat="47.86843" lon="0.25906">
        <ele>88</ele>
        <time>2016-06-18T08:44:29Z</time>
      </trkpt>
      <trkpt lat="47.86849" lon="0.25896">
        <ele>87.5</ele>
        <time>2016-06-18T08:44:36Z</time>
      </trkpt>
      <trkpt lat="47.86856" lon="0.25887">
        <ele>87.1</ele>
        <time>2016-06-18T08:44:43Z</time>
      </trkpt>
      <trkpt lat="47.86863" lon="0.25878">
        <ele>86.8</ele>
        <time>2016-06-18T08:44:51Z</time>
      </trkpt>
      <trkpt lat="47.8687" lon="0.25869">
        <ele>87.5</ele>
        <time>2016-06-18T08:44:59Z</time>
      </trkpt>
      <trkpt lat="47.86878" lon="0.2586">
        <ele>87.4</ele>
        <time>2016-06-18T08:45:07Z</time>
      </trkpt>
      <trkpt lat="47.86886" lon="0.25853">
        <ele>87.7</ele>
        <time>2016-06-18T08:45:14Z</time>
      </trkpt>
      <trkpt lat="47.86894" lon="0.25845">
        <ele>87.3</ele>
        <time>2016-06-18T08:45:22Z</time>
      </trkpt>
      <trkpt lat="47.86902" lon="0.25835">
        <ele>86.6</ele>
        <time>2016-06-18T08:45:30Z</time>
      </trkpt>
      <trkpt lat="47.86909" lon="0.25826">
        <ele>86</ele>
        <time>2016-06-18T08:45:36Z</time>
      </trkpt>
      <trkpt lat="47.86917" lon="0.25816">
        <ele>85.9</ele>
        <time>2016-06-18T08:45:44Z</time>
      </trkpt>
      <trkpt lat="47.86923" lon="0.25806">
        <ele>86.1</ele>
        <time>2016-06-18T08:45:51Z</time>
      </trkpt>
      <trkpt lat="47.86931" lon="0.25796">
        <ele>86.4</ele>
        <time>2016-06-18T08:45:59Z</time>
      </trkpt>
      <trkpt lat="47.86937" lon="0.25785">
        <ele>86.1</ele>
        <time>2016-06-18T08:46:06Z</time>
      </trkpt>
      <trkpt lat="47.86943" lon="0.25773">
        <ele>85.3</ele>
        <time>2016-06-18T08:46:14Z</time>
      </trkpt>
      <trkpt lat="47.86949" lon="0.2576">
        <ele>85.3</ele>
        <time>2016-06-18T08:46:22Z</time>
      </trkpt>
      <trkpt lat="47.86952" lon="0.25748">
        <ele>85.3</ele>
        <time>2016-06-18T08:46:29Z</time>
      </trkpt>
      <trkpt lat="47.86957" lon="0.25735">
        <ele>85.1</ele>
        <time>2016-06-18T08:46:36Z</time>
      </trkpt>
      <trkpt lat="47.86962" lon="0.25723">
        <ele>85.2</ele>
        <time>2016-06-18T08:46:43Z</time>
      </trkpt>
      <trkpt lat="47.86966" lon="0.25711">
        <ele>84.9</ele>
        <time>2016-06-18T08:46:50Z</time>
      </trkpt>
      <trkpt lat="47.8697" lon="0.25699">
        <ele>84.9</ele>
        <time>2016-06-18T08:46:57Z</time>
      </trkpt>
      <trkpt lat="47.86976" lon="0.25686">
        <ele>84.3</ele>
        <time>2016-06-18T08:47:05Z</time>
      </trkpt>
      <trkpt lat="47.86981" lon="0.25673">
        <ele>84.9</ele>
        <time>2016-06-18T08:47:13Z</time>
      </trkpt>
      <trkpt lat="47.86987" lon="0.25661">
        <ele>84.4</ele>
        <time>2016-06-18T08:47:22Z</time>
      </trkpt>
      <trkpt lat="47.86994" lon="0.25649">
        <ele>83.8</ele>
        <time>2016-06-18T08:47:41Z</time>
      </trkpt>
      <trkpt lat="47.87" lon="0.25639">
        <ele>83.9</ele>
        <time>2016-06-18T08:47:47Z</time>
      </trkpt>
      <trkpt lat="47.87006" lon="0.25628">
        <ele>83</ele>
        <time>2016-06-18T08:47:54Z</time>
      </trkpt>
      <trkpt lat="47.87011" lon="0.25617">
        <ele>82.9</ele>
        <time>2016-06-18T08:48:01Z</time>
      </trkpt>
      <trkpt lat="47.87018" lon="0.25605">
        <ele>82.7</ele>
        <time>2016-06-18T08:48:08Z</time>
      </trkpt>
      <trkpt lat="47.87024" lon="0.25593">
        <ele>82.1</ele>
        <time>2016-06-18T08:48:14Z</time>
      </trkpt>
      <trkpt lat="47.8703" lon="0.25582">
        <ele>82.4</ele>
        <time>2016-06-18T08:48:21Z</time>
      </trkpt>
      <trkpt lat="47.87037" lon="0.25571">
        <ele>82.8</ele>
        <time>2016-06-18T08:48:28Z</time>
      </trkpt>
      <trkpt lat="47.87043" lon="0.25559">
        <ele>82.4</ele>
        <time>2016-06-18T08:48:35Z</time>
      </trkpt>
      <trkpt lat="47.87049" lon="0.25546">
        <ele>82.1</ele>
        <time>2016-06-18T08:48:43Z</time>
      </trkpt>
      <trkpt lat="47.87055" lon="0.25535">
        <ele>81.6</ele>
        <time>2016-06-18T08:48:50Z</time>
      </trkpt>
      <trkpt lat="47.87062" lon="0.25524">
        <ele>82.1</ele>
        <time>2016-06-18T08:48:57Z</time>
      </trkpt>
      <trkpt lat="47.87066" lon="0.25511">
        <ele>82.3</ele>
        <time>2016-06-18T08:49:32Z</time>
      </trkpt>
      <trkpt lat="47.87071" lon="0.255">
        <ele>81</ele>
        <time>2016-06-18T08:49:39Z</time>
      </trkpt>
      <trkpt lat="47.87078" lon="0.25488">
        <ele>80.7</ele>
        <time>2016-06-18T08:49:46Z</time>
      </trkpt>
      <trkpt lat="47.87083" lon="0.25477">
        <ele>80.1</ele>
        <time>2016-06-18T08:49:53Z</time>
      </trkpt>
      <trkpt lat="47.87089" lon="0.25466">
        <ele>80.5</ele>
        <time>2016-06-18T08:49:59Z</time>
      </trkpt>
      <trkpt lat="47.87095" lon="0.25454">
        <ele>80.5</ele>
        <time>2016-06-18T08:50:07Z</time>
      </trkpt>
      <trkpt lat="47.87101" lon="0.25443">
        <ele>80.2</ele>
        <time>2016-06-18T08:50:14Z</time>
      </trkpt>
      <trkpt lat="47.87106" lon="0.25431">
        <ele>79.9</ele>
        <time>2016-06-18T08:50:21Z</time>
      </trkpt>
      <trkpt lat="47.87111" lon="0.2542">
        <ele>80.5</ele>
        <time>2016-06-18T08:50:28Z</time>
      </trkpt>
      <trkpt lat="47.87118" lon="0.25409">
        <ele>80</ele>
        <time>2016-06-18T08:50:36Z</time>
      </trkpt>
      <trkpt lat="47.87122" lon="0.25396">
        <ele>79</ele>
        <time>2016-06-18T08:50:43Z</time>
      </trkpt>
      <trkpt lat="47.87129" lon="0.25384">
        <ele>79.4</ele>
        <time>2016-06-18T08:50:51Z</time>
      </trkpt>
      <trkpt lat="47.87135" lon="0.25373">
        <ele>79.3</ele>
        <time>2016-06-18T08:50:58Z</time>
      </trkpt>
      <trkpt lat="47.87141" lon="0.25362">
        <ele>78.8</ele>
        <time>2016-06-18T08:51:05Z</time>
      </trkpt>
      <trkpt lat="47.87148" lon="0.2535">
        <ele>78.6</ele>
        <time>2016-06-18T08:51:12Z</time>
      </trkpt>
      <trkpt lat="47.87154" lon="0.25339">
        <ele>77.8</ele>
        <time>2016-06-18T08:51:20Z</time>
      </trkpt>
      <trkpt lat="47.87159" lon="0.25328">
        <ele>78.4</ele>
        <time>2016-06-18T08:51:27Z</time>
      </trkpt>
      <trkpt lat="47.87165" lon="0.25317">
        <ele>78.5</ele>
        <time>2016-06-18T08:51:35Z</time>
      </trkpt>
      <trkpt lat="47.87171" lon="0.25306">
        <ele>78</ele>
        <time>2016-06-18T08:51:43Z</time>
      </trkpt>
      <trkpt lat="47.87175" lon="0.25292">
        <ele>78.5</ele>
        <time>2016-06-18T08:51:51Z</time>
      </trkpt>
      <trkpt lat="47.87179" lon="0.25279">
        <ele>78.5</ele>
        <time>2016-06-18T08:51:58Z</time>
      </trkpt>
      <trkpt lat="47.87182" lon="0.25265">
        <ele>78.1</ele>
        <time>2016-06-18T08:52:05Z</time>
      </trkpt>
      <trkpt lat="47.87183" lon="0.25251">
        <ele>78.5</ele>
        <time>2016-06-18T08:52:14Z</time>
      </trkpt>
      <trkpt lat="47.87183" lon="0.25237">
        <ele>78.8</ele>
        <time>2016-06-18T08:52:22Z</time>
      </trkpt>
      <trkpt lat="47.87185" lon="0.25224">
        <ele>78.6</ele>
        <time>2016-06-18T08:52:30Z</time>
      </trkpt>
      <trkpt lat="47.87183" lon="0.2521">
        <ele>77.3</ele>
        <time>2016-06-18T08:52:40Z</time>
      </trkpt>
      <trkpt lat="47.87184" lon="0.25194">
        <ele>77</ele>
        <time>2016-06-18T08:52:48Z</time>
      </trkpt>
      <trkpt lat="47.87182" lon="0.2518">
        <ele>76.3</ele>
        <time>2016-06-18T08:52:56Z</time>
      </trkpt>
      <trkpt lat="47.87181" lon="0.25165">
        <ele>76.3</ele>
        <time>2016-06-18T08:53:04Z</time>
      </trkpt>
      <trkpt lat="47.87178" lon="0.25152">
        <ele>75.7</ele>
        <time>2016-06-18T08:53:11Z</time>
      </trkpt>
      <trkpt lat="47.87175" lon="0.25138">
        <ele>75.8</ele>
        <time>2016-06-18T08:53:18Z</time>
      </trkpt>
      <trkpt lat="47.87172" lon="0.25125">
        <ele>76.1</ele>
        <time>2016-06-18T08:53:26Z</time>
      </trkpt>
      <trkpt lat="47.87168" lon="0.25112">
        <ele>75.9</ele>
        <time>2016-06-18T08:53:33Z</time>
      </trkpt>
      <trkpt lat="47.87165" lon="0.25098">
        <ele>75.4</ele>
        <time>2016-06-18T08:53:41Z</time>
      </trkpt>
      <trkpt lat="47.87163" lon="0.25084">
        <ele>75.5</ele>
        <time>2016-06-18T08:53:49Z</time>
      </trkpt>
      <trkpt lat="47.87161" lon="0.25069">
        <ele>75.3</ele>
        <time>2016-06-18T08:53:57Z</time>
      </trkpt>
      <trkpt lat="47.87156" lon="0.25057">
        <ele>74.9</ele>
        <time>2016-06-18T08:54:04Z</time>
      </trkpt>
      <trkpt lat="47.87156" lon="0.25044">
        <ele>74.4</ele>
        <time>2016-06-18T08:54:12Z</time>
      </trkpt>
      <trkpt lat="47.87152" lon="0.2503">
        <ele>75.1</ele>
        <time>2016-06-18T08:54:19Z</time>
      </trkpt>
      <trkpt lat="47.8715" lon="0.25017">
        <ele>74.9</ele>
        <time>2016-06-18T08:54:26Z</time>
      </trkpt>
      <trkpt lat="47.87148" lon="0.25002">
        <ele>75.5</ele>
        <time>2016-06-18T08:54:34Z</time>
      </trkpt>
      <trkpt lat="47.87145" lon="0.2499">
        <ele>74.8</ele>
        <time>2016-06-18T08:54:41Z</time>
      </trkpt>
      <trkpt lat="47.87143" lon="0.24976">
        <ele>74.9</ele>
        <time>2016-06-18T08:54:48Z</time>
      </trkpt>
      <trkpt lat="47.8714" lon="0.24962">
        <ele>74.7</ele>
        <time>2016-06-18T08:54:55Z</time>
      </trkpt>
      <trkpt lat="47.87139" lon="0.24948">
        <ele>75</ele>
        <time>2016-06-18T08:55:02Z</time>
      </trkpt>
      <trkpt lat="47.87137" lon="0.24934">
        <ele>73.9</ele>
        <time>2016-06-18T08:55:09Z</time>
      </trkpt>
      <trkpt lat="47.87134" lon="0.2492">
        <ele>72.5</ele>
        <time>2016-06-18T08:55:17Z</time>
      </trkpt>
      <trkpt lat="47.8713" lon="0.24907">
        <ele>71.7</ele>
        <time>2016-06-18T08:55:25Z</time>
      </trkpt>
      <trkpt lat="47.87127" lon="0.24894">
        <ele>71.2</ele>
        <time>2016-06-18T08:55:33Z</time>
      </trkpt>
      <trkpt lat="47.87125" lon="0.24879">
        <ele>71.3</ele>
        <time>2016-06-18T08:55:41Z</time>
      </trkpt>
      <trkpt lat="47.87123" lon="0.24865">
        <ele>71.1</ele>
        <time>2016-06-18T08:55:49Z</time>
      </trkpt>
      <trkpt lat="47.87123" lon="0.24851">
        <ele>71</ele>
        <time>2016-06-18T08:55:56Z</time>
      </trkpt>
      <trkpt lat="47.87122" lon="0.24835">
        <ele>72.2</ele>
        <time>2016-06-18T08:56:04Z</time>
      </trkpt>
      <trkpt lat="47.87121" lon="0.2482">
        <ele>73.1</ele>
        <time>2016-06-18T08:56:11Z</time>
      </trkpt>
      <trkpt lat="47.87121" lon="0.24807">
        <ele>72</ele>
        <time>2016-06-18T08:56:18Z</time>
      </trkpt>
      <trkpt lat="47.8712" lon="0.24793">
        <ele>72.6</ele>
        <time>2016-06-18T08:56:25Z</time>
      </trkpt>
      <trkpt lat="47.87119" lon="0.2478">
        <ele>73.1</ele>
        <time>2016-06-18T08:56:32Z</time>
      </trkpt>
      <trkpt lat="47.87118" lon="0.24765">
        <ele>72.7</ele>
        <time>2016-06-18T08:56:40Z</time>
      </trkpt>
      <trkpt lat="47.87118" lon="0.24749">
        <ele>72.9</ele>
        <time>2016-06-18T08:56:48Z</time>
      </trkpt>
      <trkpt lat="47.87118" lon="0.24735">
        <ele>73.3</ele>
        <time>2016-06-18T08:56:55Z</time>
      </trkpt>
      <trkpt lat="47.87117" lon="0.24722">
        <ele>72.8</ele>
        <time>2016-06-18T08:57:02Z</time>
      </trkpt>
      <trkpt lat="47.87116" lon="0.24707">
        <ele>72.4</ele>
        <time>2016-06-18T08:57:10Z</time>
      </trkpt>
      <trkpt lat="47.87109" lon="0.24697">
        <ele>68.5</ele>
        <time>2016-06-18T08:58:48Z</time>
      </trkpt>
      <trkpt lat="47.87108" lon="0.24683">
        <ele>72.9</ele>
        <time>2016-06-18T08:58:58Z</time>
      </trkpt>
      <trkpt lat="47.87107" lon="0.24669">
        <ele>71.5</ele>
        <time>2016-06-18T08:59:05Z</time>
      </trkpt>
      <trkpt lat="47.87107" lon="0.24654">
        <ele>71.7</ele>
        <time>2016-06-18T08:59:12Z</time>
      </trkpt>
      <trkpt lat="47.87105" lon="0.24641">
        <ele>71.3</ele>
        <time>2016-06-18T08:59:19Z</time>
      </trkpt>
      <trkpt lat="47.87105" lon="0.24626">
        <ele>71.7</ele>
        <time>2016-06-18T08:59:27Z</time>
      </trkpt>
      <trkpt lat="47.87105" lon="0.24612">
        <ele>71.4</ele>
        <time>2016-06-18T08:59:34Z</time>
      </trkpt>
      <trkpt lat="47.87104" lon="0.24598">
        <ele>71.2</ele>
        <time>2016-06-18T08:59:42Z</time>
      </trkpt>
      <trkpt lat="47.87102" lon="0.24583">
        <ele>70.9</ele>
        <time>2016-06-18T08:59:51Z</time>
      </trkpt>
      <trkpt lat="47.87099" lon="0.24569">
        <ele>71.1</ele>
        <time>2016-06-18T08:59:58Z</time>
      </trkpt>
      <trkpt lat="47.87097" lon="0.24555">
        <ele>71.6</ele>
        <time>2016-06-18T09:00:06Z</time>
      </trkpt>
      <trkpt lat="47.87096" lon="0.2454">
        <ele>71.9</ele>
        <time>2016-06-18T09:00:14Z</time>
      </trkpt>
      <trkpt lat="47.87096" lon="0.24526">
        <ele>70.8</ele>
        <time>2016-06-18T09:00:22Z</time>
      </trkpt>
      <trkpt lat="47.87097" lon="0.24511">
        <ele>70.4</ele>
        <time>2016-06-18T09:00:29Z</time>
      </trkpt>
      <trkpt lat="47.87095" lon="0.24497">
        <ele>69.7</ele>
        <time>2016-06-18T09:00:37Z</time>
      </trkpt>
      <trkpt lat="47.87095" lon="0.24482">
        <ele>70.4</ele>
        <time>2016-06-18T09:00:45Z</time>
      </trkpt>
      <trkpt lat="47.87094" lon="0.24467">
        <ele>70.5</ele>
        <time>2016-06-18T09:00:53Z</time>
      </trkpt>
      <trkpt lat="47.87094" lon="0.24453">
        <ele>70.4</ele>
        <time>2016-06-18T09:01:01Z</time>
      </trkpt>
      <trkpt lat="47.87094" lon="0.24438">
        <ele>70.1</ele>
        <time>2016-06-18T09:01:09Z</time>
      </trkpt>
      <trkpt lat="47.87094" lon="0.24423">
        <ele>69.7</ele>
        <time>2016-06-18T09:01:17Z</time>
      </trkpt>
      <trkpt lat="47.87094" lon="0.24409">
        <ele>69.9</ele>
        <time>2016-06-18T09:01:24Z</time>
      </trkpt>
      <trkpt lat="47.87096" lon="0.24394">
        <ele>70</ele>
        <time>2016-06-18T09:01:31Z</time>
      </trkpt>
      <trkpt lat="47.87095" lon="0.2438">
        <ele>69.7</ele>
        <time>2016-06-18T09:01:39Z</time>
      </trkpt>
      <trkpt lat="47.87096" lon="0.24365">
        <ele>69.2</ele>
        <time>2016-06-18T09:01:47Z</time>
      </trkpt>
      <trkpt lat="47.87097" lon="0.2435">
        <ele>68.9</ele>
        <time>2016-06-18T09:01:55Z</time>
      </trkpt>
      <trkpt lat="47.87098" lon="0.24335">
        <ele>69.2</ele>
        <time>2016-06-18T09:02:03Z</time>
      </trkpt>
      <trkpt lat="47.87099" lon="0.24321">
        <ele>68.9</ele>
        <time>2016-06-18T09:02:10Z</time>
      </trkpt>
      <trkpt lat="47.87101" lon="0.24307">
        <ele>69</ele>
        <time>2016-06-18T09:02:18Z</time>
      </trkpt>
      <trkpt lat="47.87101" lon="0.24293">
        <ele>69.1</ele>
        <time>2016-06-18T09:02:25Z</time>
      </trkpt>
      <trkpt lat="47.87102" lon="0.24279">
        <ele>68.2</ele>
        <time>2016-06-18T09:02:33Z</time>
      </trkpt>
      <trkpt lat="47.87101" lon="0.24265">
        <ele>68.2</ele>
        <time>2016-06-18T09:02:41Z</time>
      </trkpt>
      <trkpt lat="47.87103" lon="0.2425">
        <ele>68.1</ele>
        <time>2016-06-18T09:02:48Z</time>
      </trkpt>
      <trkpt lat="47.87104" lon="0.24237">
        <ele>68</ele>
        <time>2016-06-18T09:02:55Z</time>
      </trkpt>
      <trkpt lat="47.87104" lon="0.24223">
        <ele>68.5</ele>
        <time>2016-06-18T09:03:04Z</time>
      </trkpt>
      <trkpt lat="47.87105" lon="0.24209">
        <ele>68.5</ele>
        <time>2016-06-18T09:03:11Z</time>
      </trkpt>
      <trkpt lat="47.87107" lon="0.24195">
        <ele>68.3</ele>
        <time>2016-06-18T09:03:18Z</time>
      </trkpt>
      <trkpt lat="47.87108" lon="0.24181">
        <ele>68.1</ele>
        <time>2016-06-18T09:03:25Z</time>
      </trkpt>
      <trkpt lat="47.87109" lon="0.24167">
        <ele>68</ele>
        <time>2016-06-18T09:03:33Z</time>
      </trkpt>
      <trkpt lat="47.87111" lon="0.24153">
        <ele>67.7</ele>
        <time>2016-06-18T09:03:40Z</time>
      </trkpt>
      <trkpt lat="47.87114" lon="0.24139">
        <ele>67.8</ele>
        <time>2016-06-18T09:03:47Z</time>
      </trkpt>
      <trkpt lat="47.87117" lon="0.24126">
        <ele>67.9</ele>
        <time>2016-06-18T09:03:54Z</time>
      </trkpt>
      <trkpt lat="47.87121" lon="0.24113">
        <ele>67.2</ele>
        <time>2016-06-18T09:04:02Z</time>
      </trkpt>
      <trkpt lat="47.87128" lon="0.24105">
        <ele>67.3</ele>
        <time>2016-06-18T09:04:21Z</time>
      </trkpt>
      <trkpt lat="47.87138" lon="0.24104">
        <ele>67.1</ele>
        <time>2016-06-18T09:04:29Z</time>
      </trkpt>
      <trkpt lat="47.87147" lon="0.24108">
        <ele>65.8</ele>
        <time>2016-06-18T09:04:39Z</time>
      </trkpt>
      <trkpt lat="47.87156" lon="0.24114">
        <ele>65.8</ele>
        <time>2016-06-18T09:04:47Z</time>
      </trkpt>
      <trkpt lat="47.87165" lon="0.24117">
        <ele>65.8</ele>
        <time>2016-06-18T09:04:54Z</time>
      </trkpt>
      <trkpt lat="47.87175" lon="0.2412">
        <ele>66.3</ele>
        <time>2016-06-18T09:05:02Z</time>
      </trkpt>
      <trkpt lat="47.87185" lon="0.24119">
        <ele>66.4</ele>
        <time>2016-06-18T09:05:10Z</time>
      </trkpt>
      <trkpt lat="47.87194" lon="0.24119">
        <ele>66.4</ele>
        <time>2016-06-18T09:05:17Z</time>
      </trkpt>
      <trkpt lat="47.87205" lon="0.24119">
        <ele>66.2</ele>
        <time>2016-06-18T09:05:25Z</time>
      </trkpt>
      <trkpt lat="47.87215" lon="0.24119">
        <ele>65.9</ele>
        <time>2016-06-18T09:05:33Z</time>
      </trkpt>
      <trkpt lat="47.87224" lon="0.24122">
        <ele>65.7</ele>
        <time>2016-06-18T09:05:41Z</time>
      </trkpt>
      <trkpt lat="47.87234" lon="0.24123">
        <ele>65.9</ele>
        <time>2016-06-18T09:05:51Z</time>
      </trkpt>
      <trkpt lat="47.87243" lon="0.24126">
        <ele>66.1</ele>
        <time>2016-06-18T09:05:59Z</time>
      </trkpt>
      <trkpt lat="47.87252" lon="0.24125">
        <ele>66.2</ele>
        <time>2016-06-18T09:06:06Z</time>
      </trkpt>
      <trkpt lat="47.87262" lon="0.24125">
        <ele>65.5</ele>
        <time>2016-06-18T09:06:13Z</time>
      </trkpt>
      <trkpt lat="47.87271" lon="0.24127">
        <ele>65.7</ele>
        <time>2016-06-18T09:06:20Z</time>
      </trkpt>
      <trkpt lat="47.8728" lon="0.2413">
        <ele>66.1</ele>
        <time>2016-06-18T09:06:30Z</time>
      </trkpt>
      <trkpt lat="47.8729" lon="0.24133">
        <ele>66.6</ele>
        <time>2016-06-18T09:06:40Z</time>
      </trkpt>
      <trkpt lat="47.87299" lon="0.24125">
        <ele>66.1</ele>
        <time>2016-06-18T09:06:48Z</time>
      </trkpt>
      <trkpt lat="47.87303" lon="0.24112">
        <ele>66.3</ele>
        <time>2016-06-18T09:06:54Z</time>
      </trkpt>
      <trkpt lat="47.87308" lon="0.24099">
        <ele>65.8</ele>
        <time>2016-06-18T09:07:00Z</time>
      </trkpt>
      <trkpt lat="47.87312" lon="0.24087">
        <ele>65.3</ele>
        <time>2016-06-18T09:07:09Z</time>
      </trkpt>
      <trkpt lat="47.87315" lon="0.24073">
        <ele>66.4</ele>
        <time>2016-06-18T09:07:40Z</time>
      </trkpt>
      <trkpt lat="47.87318" lon="0.2406">
        <ele>66.1</ele>
        <time>2016-06-18T09:07:47Z</time>
      </trkpt>
      <trkpt lat="47.87321" lon="0.24045">
        <ele>65.1</ele>
        <time>2016-06-18T09:07:55Z</time>
      </trkpt>
      <trkpt lat="47.87324" lon="0.24032">
        <ele>65.1</ele>
        <time>2016-06-18T09:08:02Z</time>
      </trkpt>
      <trkpt lat="47.87327" lon="0.24019">
        <ele>65.1</ele>
        <time>2016-06-18T09:08:09Z</time>
      </trkpt>
      <trkpt lat="47.8733" lon="0.24005">
        <ele>65.2</ele>
        <time>2016-06-18T09:08:16Z</time>
      </trkpt>
      <trkpt lat="47.87334" lon="0.23992">
        <ele>65.7</ele>
        <time>2016-06-18T09:08:23Z</time>
      </trkpt>
      <trkpt lat="47.8734" lon="0.2398">
        <ele>65.8</ele>
        <time>2016-06-18T09:08:31Z</time>
      </trkpt>
      <trkpt lat="47.87347" lon="0.2397">
        <ele>66.2</ele>
        <time>2016-06-18T09:08:43Z</time>
      </trkpt>
      <trkpt lat="47.87356" lon="0.23965">
        <ele>66.4</ele>
        <time>2016-06-18T09:08:51Z</time>
      </trkpt>
      <trkpt lat="47.87365" lon="0.23962">
        <ele>66.7</ele>
        <time>2016-06-18T09:08:59Z</time>
      </trkpt>
      <trkpt lat="47.87374" lon="0.23957">
        <ele>66.8</ele>
        <time>2016-06-18T09:09:07Z</time>
      </trkpt>
      <trkpt lat="47.87384" lon="0.23952">
        <ele>66.9</ele>
        <time>2016-06-18T09:09:15Z</time>
      </trkpt>
      <trkpt lat="47.87393" lon="0.23947">
        <ele>67</ele>
        <time>2016-06-18T09:09:22Z</time>
      </trkpt>
      <trkpt lat="47.87402" lon="0.23943">
        <ele>67.6</ele>
        <time>2016-06-18T09:09:29Z</time>
      </trkpt>
      <trkpt lat="47.87412" lon="0.23939">
        <ele>67</ele>
        <time>2016-06-18T09:09:37Z</time>
      </trkpt>
      <trkpt lat="47.87421" lon="0.23934">
        <ele>67</ele>
        <time>2016-06-18T09:09:44Z</time>
      </trkpt>
      <trkpt lat="47.8743" lon="0.23929">
        <ele>67.2</ele>
        <time>2016-06-18T09:09:51Z</time>
      </trkpt>
      <trkpt lat="47.87439" lon="0.23924">
        <ele>67.3</ele>
        <time>2016-06-18T09:09:59Z</time>
      </trkpt>
      <trkpt lat="47.87448" lon="0.23919">
        <ele>67.3</ele>
        <time>2016-06-18T09:10:07Z</time>
      </trkpt>
      <trkpt lat="47.87458" lon="0.23914">
        <ele>67.9</ele>
        <time>2016-06-18T09:10:15Z</time>
      </trkpt>
      <trkpt lat="47.87468" lon="0.23909">
        <ele>67.8</ele>
        <time>2016-06-18T09:10:24Z</time>
      </trkpt>
      <trkpt lat="47.87477" lon="0.23905">
        <ele>68.8</ele>
        <time>2016-06-18T09:10:32Z</time>
      </trkpt>
      <trkpt lat="47.87486" lon="0.23901">
        <ele>69.1</ele>
        <time>2016-06-18T09:10:39Z</time>
      </trkpt>
      <trkpt lat="47.87495" lon="0.23895">
        <ele>68</ele>
        <time>2016-06-18T09:10:46Z</time>
      </trkpt>
      <trkpt lat="47.87504" lon="0.2389">
        <ele>68.3</ele>
        <time>2016-06-18T09:10:53Z</time>
      </trkpt>
      <trkpt lat="47.87512" lon="0.23881">
        <ele>68.5</ele>
        <time>2016-06-18T09:11:00Z</time>
      </trkpt>
      <trkpt lat="47.87518" lon="0.2387">
        <ele>68.6</ele>
        <time>2016-06-18T09:11:07Z</time>
      </trkpt>
      <trkpt lat="47.8752" lon="0.23857">
        <ele>69</ele>
        <time>2016-06-18T09:11:13Z</time>
      </trkpt>
      <trkpt lat="47.87521" lon="0.23842">
        <ele>69.4</ele>
        <time>2016-06-18T09:11:20Z</time>
      </trkpt>
      <trkpt lat="47.87521" lon="0.23828">
        <ele>68.9</ele>
        <time>2016-06-18T09:11:27Z</time>
      </trkpt>
      <trkpt lat="47.87519" lon="0.23815">
        <ele>69.2</ele>
        <time>2016-06-18T09:11:34Z</time>
      </trkpt>
      <trkpt lat="47.87517" lon="0.23801">
        <ele>69.8</ele>
        <time>2016-06-18T09:11:41Z</time>
      </trkpt>
      <trkpt lat="47.87514" lon="0.23788">
        <ele>69.7</ele>
        <time>2016-06-18T09:11:48Z</time>
      </trkpt>
      <trkpt lat="47.8751" lon="0.23774">
        <ele>69.2</ele>
        <time>2016-06-18T09:11:56Z</time>
      </trkpt>
      <trkpt lat="47.87507" lon="0.23762">
        <ele>68.1</ele>
        <time>2016-06-18T09:12:08Z</time>
      </trkpt>
      <trkpt lat="47.87511" lon="0.23748">
        <ele>68.1</ele>
        <time>2016-06-18T09:12:42Z</time>
      </trkpt>
      <trkpt lat="47.87516" lon="0.23736">
        <ele>67.5</ele>
        <time>2016-06-18T09:12:52Z</time>
      </trkpt>
      <trkpt lat="47.87525" lon="0.23731">
        <ele>67.5</ele>
        <time>2016-06-18T09:13:01Z</time>
      </trkpt>
      <trkpt lat="47.87534" lon="0.23728">
        <ele>67.7</ele>
        <time>2016-06-18T09:13:09Z</time>
      </trkpt>
      <trkpt lat="47.87544" lon="0.23725">
        <ele>67.6</ele>
        <time>2016-06-18T09:13:17Z</time>
      </trkpt>
      <trkpt lat="47.87553" lon="0.23722">
        <ele>67.5</ele>
        <time>2016-06-18T09:13:25Z</time>
      </trkpt>
      <trkpt lat="47.87562" lon="0.2372">
        <ele>68.2</ele>
        <time>2016-06-18T09:13:33Z</time>
      </trkpt>
      <trkpt lat="47.87572" lon="0.23717">
        <ele>67.7</ele>
        <time>2016-06-18T09:13:41Z</time>
      </trkpt>
      <trkpt lat="47.87582" lon="0.23716">
        <ele>67.7</ele>
        <time>2016-06-18T09:13:49Z</time>
      </trkpt>
      <trkpt lat="47.8759" lon="0.23711">
        <ele>67.3</ele>
        <time>2016-06-18T09:13:57Z</time>
      </trkpt>
      <trkpt lat="47.876" lon="0.23708">
        <ele>67</ele>
        <time>2016-06-18T09:14:06Z</time>
      </trkpt>
      <trkpt lat="47.8761" lon="0.23705">
        <ele>67.4</ele>
        <time>2016-06-18T09:14:14Z</time>
      </trkpt>
      <trkpt lat="47.87615" lon="0.2369">
        <ele>67.8</ele>
        <time>2016-06-18T09:14:20Z</time>
      </trkpt>
      <trkpt lat="47.87617" lon="0.23676">
        <ele>68.4</ele>
        <time>2016-06-18T09:14:27Z</time>
      </trkpt>
      <trkpt lat="47.87616" lon="0.23662">
        <ele>68.2</ele>
        <time>2016-06-18T09:14:34Z</time>
      </trkpt>
      <trkpt lat="47.87614" lon="0.23647">
        <ele>67.2</ele>
        <time>2016-06-18T09:14:42Z</time>
      </trkpt>
      <trkpt lat="47.87611" lon="0.23634">
        <ele>67</ele>
        <time>2016-06-18T09:14:50Z</time>
      </trkpt>
      <trkpt lat="47.87609" lon="0.23621">
        <ele>66.8</ele>
        <time>2016-06-18T09:14:57Z</time>
      </trkpt>
      <trkpt lat="47.87606" lon="0.23607">
        <ele>66.7</ele>
        <time>2016-06-18T09:15:04Z</time>
      </trkpt>
      <trkpt lat="47.87604" lon="0.23594">
        <ele>66.7</ele>
        <time>2016-06-18T09:15:11Z</time>
      </trkpt>
      <trkpt lat="47.87601" lon="0.2358">
        <ele>66.3</ele>
        <time>2016-06-18T09:15:19Z</time>
      </trkpt>
      <trkpt lat="47.87599" lon="0.23567">
        <ele>66.8</ele>
        <time>2016-06-18T09:15:27Z</time>
      </trkpt>
      <trkpt lat="47.87596" lon="0.23553">
        <ele>66.4</ele>
        <time>2016-06-18T09:15:35Z</time>
      </trkpt>
      <trkpt lat="47.87594" lon="0.23538">
        <ele>67</ele>
        <time>2016-06-18T09:15:43Z</time>
      </trkpt>
      <trkpt lat="47.8759" lon="0.23524">
        <ele>66.4</ele>
        <time>2016-06-18T09:15:51Z</time>
      </trkpt>
      <trkpt lat="47.87588" lon="0.23509">
        <ele>65.7</ele>
        <time>2016-06-18T09:15:59Z</time>
      </trkpt>
      <trkpt lat="47.87585" lon="0.23496">
        <ele>65.3</ele>
        <time>2016-06-18T09:16:07Z</time>
      </trkpt>
      <trkpt lat="47.87582" lon="0.23482">
        <ele>65.5</ele>
        <time>2016-06-18T09:16:14Z</time>
      </trkpt>
      <trkpt lat="47.87577" lon="0.23469">
        <ele>65</ele>
        <time>2016-06-18T09:16:22Z</time>
      </trkpt>
      <trkpt lat="47.87574" lon="0.23456">
        <ele>64.8</ele>
        <time>2016-06-18T09:16:29Z</time>
      </trkpt>
      <trkpt lat="47.8757" lon="0.23443">
        <ele>64.7</ele>
        <time>2016-06-18T09:16:37Z</time>
      </trkpt>
      <trkpt lat="47.87566" lon="0.2343">
        <ele>64.7</ele>
        <time>2016-06-18T09:16:45Z</time>
      </trkpt>
      <trkpt lat="47.87562" lon="0.23417">
        <ele>65.2</ele>
        <time>2016-06-18T09:16:52Z</time>
      </trkpt>
      <trkpt lat="47.87557" lon="0.23404">
        <ele>64.7</ele>
        <time>2016-06-18T09:17:00Z</time>
      </trkpt>
      <trkpt lat="47.87554" lon="0.2339">
        <ele>64.7</ele>
        <time>2016-06-18T09:17:08Z</time>
      </trkpt>
      <trkpt lat="47.87551" lon="0.23377">
        <ele>63.9</ele>
        <time>2016-06-18T09:18:30Z</time>
      </trkpt>
      <trkpt lat="47.87553" lon="0.23363">
        <ele>63.7</ele>
        <time>2016-06-18T09:19:16Z</time>
      </trkpt>
      <trkpt lat="47.87561" lon="0.23356">
        <ele>64.2</ele>
        <time>2016-06-18T09:19:24Z</time>
      </trkpt>
      <trkpt lat="47.8757" lon="0.23349">
        <ele>63.8</ele>
        <time>2016-06-18T09:19:32Z</time>
      </trkpt>
      <trkpt lat="47.87579" lon="0.23344">
        <ele>64.7</ele>
        <time>2016-06-18T09:19:41Z</time>
      </trkpt>
      <trkpt lat="47.87587" lon="0.23336">
        <ele>64</ele>
        <time>2016-06-18T09:19:47Z</time>
      </trkpt>
      <trkpt lat="47.87596" lon="0.23328">
        <ele>63.8</ele>
        <time>2016-06-18T09:19:55Z</time>
      </trkpt>
      <trkpt lat="47.87605" lon="0.23323">
        <ele>64.5</ele>
        <time>2016-06-18T09:20:05Z</time>
      </trkpt>
      <trkpt lat="47.87612" lon="0.23315">
        <ele>63.7</ele>
        <time>2016-06-18T09:20:12Z</time>
      </trkpt>
      <trkpt lat="47.87617" lon="0.23302">
        <ele>64.2</ele>
        <time>2016-06-18T09:20:18Z</time>
      </trkpt>
      <trkpt lat="47.87621" lon="0.23288">
        <ele>64.4</ele>
        <time>2016-06-18T09:20:59Z</time>
      </trkpt>
      <trkpt lat="47.87626" lon="0.23277">
        <ele>64.7</ele>
        <time>2016-06-18T09:21:06Z</time>
      </trkpt>
      <trkpt lat="47.87632" lon="0.23267">
        <ele>65</ele>
        <time>2016-06-18T09:21:13Z</time>
      </trkpt>
      <trkpt lat="47.87639" lon="0.23257">
        <ele>65.2</ele>
        <time>2016-06-18T09:21:19Z</time>
      </trkpt>
      <trkpt lat="47.87646" lon="0.23246">
        <ele>64.7</ele>
        <time>2016-06-18T09:21:26Z</time>
      </trkpt>
      <trkpt lat="47.87651" lon="0.23235">
        <ele>65.8</ele>
        <time>2016-06-18T09:21:35Z</time>
      </trkpt>
      <trkpt lat="47.87659" lon="0.23225">
        <ele>65.3</ele>
        <time>2016-06-18T09:21:42Z</time>
      </trkpt>
      <trkpt lat="47.87664" lon="0.23212">
        <ele>64.8</ele>
        <time>2016-06-18T09:21:50Z</time>
      </trkpt>
      <trkpt lat="47.8767" lon="0.23202">
        <ele>65.2</ele>
        <time>2016-06-18T09:21:58Z</time>
      </trkpt>
      <trkpt lat="47.87676" lon="0.23191">
        <ele>66</ele>
        <time>2016-06-18T09:22:05Z</time>
      </trkpt>
      <trkpt lat="47.87682" lon="0.23179">
        <ele>65.6</ele>
        <time>2016-06-18T09:22:13Z</time>
      </trkpt>
      <trkpt lat="47.87688" lon="0.23168">
        <ele>65.8</ele>
        <time>2016-06-18T09:22:21Z</time>
      </trkpt>
      <trkpt lat="47.87694" lon="0.23157">
        <ele>66.1</ele>
        <time>2016-06-18T09:22:28Z</time>
      </trkpt>
      <trkpt lat="47.877" lon="0.23145">
        <ele>66</ele>
        <time>2016-06-18T09:22:35Z</time>
      </trkpt>
      <trkpt lat="47.87707" lon="0.23134">
        <ele>65.5</ele>
        <time>2016-06-18T09:22:44Z</time>
      </trkpt>
      <trkpt lat="47.87713" lon="0.23123">
        <ele>66.7</ele>
        <time>2016-06-18T09:22:55Z</time>
      </trkpt>
      <trkpt lat="47.87719" lon="0.23114">
        <ele>66.3</ele>
        <time>2016-06-18T09:23:04Z</time>
      </trkpt>
      <trkpt lat="47.87727" lon="0.23105">
        <ele>66.8</ele>
        <time>2016-06-18T09:23:11Z</time>
      </trkpt>
      <trkpt lat="47.87734" lon="0.23094">
        <ele>66.7</ele>
        <time>2016-06-18T09:23:19Z</time>
      </trkpt>
      <trkpt lat="47.8774" lon="0.23085">
        <ele>67.1</ele>
        <time>2016-06-18T09:23:27Z</time>
      </trkpt>
      <trkpt lat="47.87748" lon="0.23078">
        <ele>67.5</ele>
        <time>2016-06-18T09:23:35Z</time>
      </trkpt>
      <trkpt lat="47.87757" lon="0.23071">
        <ele>67.1</ele>
        <time>2016-06-18T09:23:45Z</time>
      </trkpt>
      <trkpt lat="47.87765" lon="0.23063">
        <ele>67.4</ele>
        <time>2016-06-18T09:23:53Z</time>
      </trkpt>
      <trkpt lat="47.87773" lon="0.23056">
        <ele>67.1</ele>
        <time>2016-06-18T09:24:03Z</time>
      </trkpt>
      <trkpt lat="47.87783" lon="0.23052">
        <ele>67.6</ele>
        <time>2016-06-18T09:24:13Z</time>
      </trkpt>
      <trkpt lat="47.87791" lon="0.23045">
        <ele>67.5</ele>
        <time>2016-06-18T09:24:21Z</time>
      </trkpt>
      <trkpt lat="47.87801" lon="0.23044">
        <ele>69.2</ele>
        <time>2016-06-18T09:24:31Z</time>
      </trkpt>
      <trkpt lat="47.8781" lon="0.23036">
        <ele>68.9</ele>
        <time>2016-06-18T09:24:40Z</time>
      </trkpt>
      <trkpt lat="47.87818" lon="0.2303">
        <ele>68.3</ele>
        <time>2016-06-18T09:24:48Z</time>
      </trkpt>
      <trkpt lat="47.87821" lon="0.23015">
        <ele>68.7</ele>
        <time>2016-06-18T09:25:13Z</time>
      </trkpt>
      <trkpt lat="47.87819" lon="0.23">
        <ele>68.6</ele>
        <time>2016-06-18T09:25:21Z</time>
      </trkpt>
      <trkpt lat="47.8782" lon="0.22987">
        <ele>68.7</ele>
        <time>2016-06-18T09:25:30Z</time>
      </trkpt>
      <trkpt lat="47.87821" lon="0.22973">
        <ele>68.4</ele>
        <time>2016-06-18T09:25:38Z</time>
      </trkpt>
      <trkpt lat="47.87822" lon="0.22958">
        <ele>68</ele>
        <time>2016-06-18T09:25:46Z</time>
      </trkpt>
      <trkpt lat="47.87822" lon="0.22944">
        <ele>68.4</ele>
        <time>2016-06-18T09:25:55Z</time>
      </trkpt>
      <trkpt lat="47.87822" lon="0.22929">
        <ele>67.8</ele>
        <time>2016-06-18T09:26:03Z</time>
      </trkpt>
      <trkpt lat="47.8782" lon="0.22914">
        <ele>68.2</ele>
        <time>2016-06-18T09:26:12Z</time>
      </trkpt>
      <trkpt lat="47.87818" lon="0.229">
        <ele>68</ele>
        <time>2016-06-18T09:26:20Z</time>
      </trkpt>
      <trkpt lat="47.87816" lon="0.22885">
        <ele>68.4</ele>
        <time>2016-06-18T09:26:30Z</time>
      </trkpt>
      <trkpt lat="47.87815" lon="0.22872">
        <ele>68.6</ele>
        <time>2016-06-18T09:26:36Z</time>
      </trkpt>
      <trkpt lat="47.87812" lon="0.22859">
        <ele>68.1</ele>
        <time>2016-06-18T09:26:45Z</time>
      </trkpt>
      <trkpt lat="47.87814" lon="0.22844">
        <ele>68.4</ele>
        <time>2016-06-18T09:27:04Z</time>
      </trkpt>
      <trkpt lat="47.87814" lon="0.2283">
        <ele>68.6</ele>
        <time>2016-06-18T09:27:12Z</time>
      </trkpt>
      <trkpt lat="47.87815" lon="0.22816">
        <ele>68.7</ele>
        <time>2016-06-18T09:27:19Z</time>
      </trkpt>
      <trkpt lat="47.87819" lon="0.22803">
        <ele>69.5</ele>
        <time>2016-06-18T09:29:58Z</time>
      </trkpt>
      <trkpt lat="47.87828" lon="0.22801">
        <ele>69.4</ele>
        <time>2016-06-18T09:31:10Z</time>
      </trkpt>
      <trkpt lat="47.87819" lon="0.22798">
        <ele>69.7</ele>
        <time>2016-06-18T09:31:34Z</time>
      </trkpt>
      <trkpt lat="47.87812" lon="0.22806">
        <ele>69.8</ele>
        <time>2016-06-18T09:32:04Z</time>
      </trkpt>
      <trkpt lat="47.87808" lon="0.22821">
        <ele>73.4</ele>
        <time>2016-06-18T09:44:43Z</time>
      </trkpt>
      <trkpt lat="47.87809" lon="0.22835">
        <ele>73.9</ele>
        <time>2016-06-18T09:44:53Z</time>
      </trkpt>
      <trkpt lat="47.87807" lon="0.22848">
        <ele>73.8</ele>
        <time>2016-06-18T09:45:02Z</time>
      </trkpt>
      <trkpt lat="47.87805" lon="0.22862">
        <ele>73.3</ele>
        <time>2016-06-18T09:45:31Z</time>
      </trkpt>
      <trkpt lat="47.87813" lon="0.2287">
        <ele>75.8</ele>
        <time>2016-06-18T09:51:09Z</time>
      </trkpt>
      <trkpt lat="47.87822" lon="0.22869">
        <ele>76</ele>
        <time>2016-06-18T09:51:15Z</time>
      </trkpt>
      <trkpt lat="47.87831" lon="0.22865">
        <ele>75.1</ele>
        <time>2016-06-18T09:51:25Z</time>
      </trkpt>
      <trkpt lat="47.8784" lon="0.22869">
        <ele>76.2</ele>
        <time>2016-06-18T09:51:33Z</time>
      </trkpt>
      <trkpt lat="47.87849" lon="0.22871">
        <ele>76.2</ele>
        <time>2016-06-18T09:51:39Z</time>
      </trkpt>
      <trkpt lat="47.87859" lon="0.22872">
        <ele>76.9</ele>
        <time>2016-06-18T09:51:47Z</time>
      </trkpt>
      <trkpt lat="47.87869" lon="0.22866">
        <ele>76.7</ele>
        <time>2016-06-18T09:52:00Z</time>
      </trkpt>
      <trkpt lat="47.87879" lon="0.22865">
        <ele>76.1</ele>
        <time>2016-06-18T09:52:06Z</time>
      </trkpt>
      <trkpt lat="47.87888" lon="0.22871">
        <ele>76.3</ele>
        <time>2016-06-18T09:52:14Z</time>
      </trkpt>
      <trkpt lat="47.87885" lon="0.22884">
        <ele>75.9</ele>
        <time>2016-06-18T09:52:32Z</time>
      </trkpt>
      <trkpt lat="47.87881" lon="0.22897">
        <ele>75.9</ele>
        <time>2016-06-18T09:52:42Z</time>
      </trkpt>
      <trkpt lat="47.87881" lon="0.22912">
        <ele>75.4</ele>
        <time>2016-06-18T09:52:50Z</time>
      </trkpt>
      <trkpt lat="47.87882" lon="0.22926">
        <ele>75.5</ele>
        <time>2016-06-18T09:52:58Z</time>
      </trkpt>
      <trkpt lat="47.87883" lon="0.2294">
        <ele>75.6</ele>
        <time>2016-06-18T09:53:06Z</time>
      </trkpt>
      <trkpt lat="47.87883" lon="0.22954">
        <ele>76.1</ele>
        <time>2016-06-18T09:53:14Z</time>
      </trkpt>
      <trkpt lat="47.87884" lon="0.22968">
        <ele>76.5</ele>
        <time>2016-06-18T09:53:21Z</time>
      </trkpt>
      <trkpt lat="47.87885" lon="0.22982">
        <ele>75.7</ele>
        <time>2016-06-18T09:53:29Z</time>
      </trkpt>
      <trkpt lat="47.87887" lon="0.22997">
        <ele>74.9</ele>
        <time>2016-06-18T09:53:38Z</time>
      </trkpt>
      <trkpt lat="47.87892" lon="0.23009">
        <ele>75.8</ele>
        <time>2016-06-18T09:54:12Z</time>
      </trkpt>
      <trkpt lat="47.879" lon="0.23016">
        <ele>76.4</ele>
        <time>2016-06-18T09:54:19Z</time>
      </trkpt>
      <trkpt lat="47.87909" lon="0.2302">
        <ele>75.5</ele>
        <time>2016-06-18T09:54:27Z</time>
      </trkpt>
      <trkpt lat="47.87918" lon="0.23025">
        <ele>75.5</ele>
        <time>2016-06-18T09:54:34Z</time>
      </trkpt>
      <trkpt lat="47.87926" lon="0.23031">
        <ele>75.5</ele>
        <time>2016-06-18T09:54:42Z</time>
      </trkpt>
      <trkpt lat="47.87934" lon="0.23038">
        <ele>75.5</ele>
        <time>2016-06-18T09:54:49Z</time>
      </trkpt>
      <trkpt lat="47.87944" lon="0.2304">
        <ele>75.4</ele>
        <time>2016-06-18T09:54:57Z</time>
      </trkpt>
      <trkpt lat="47.87952" lon="0.23045">
        <ele>75.9</ele>
        <time>2016-06-18T09:55:04Z</time>
      </trkpt>
      <trkpt lat="47.87962" lon="0.23053">
        <ele>75.2</ele>
        <time>2016-06-18T09:55:12Z</time>
      </trkpt>
      <trkpt lat="47.87971" lon="0.23055">
        <ele>75.4</ele>
        <time>2016-06-18T09:55:21Z</time>
      </trkpt>
      <trkpt lat="47.8798" lon="0.23051">
        <ele>75</ele>
        <time>2016-06-18T09:55:29Z</time>
      </trkpt>
      <trkpt lat="47.87989" lon="0.23048">
        <ele>74.7</ele>
        <time>2016-06-18T09:55:37Z</time>
      </trkpt>
      <trkpt lat="47.87998" lon="0.23042">
        <ele>74.1</ele>
        <time>2016-06-18T09:55:45Z</time>
      </trkpt>
      <trkpt lat="47.88006" lon="0.23036">
        <ele>74.6</ele>
        <time>2016-06-18T09:55:52Z</time>
      </trkpt>
      <trkpt lat="47.88014" lon="0.23029">
        <ele>73</ele>
        <time>2016-06-18T09:55:59Z</time>
      </trkpt>
      <trkpt lat="47.88024" lon="0.23024">
        <ele>72.3</ele>
        <time>2016-06-18T09:56:07Z</time>
      </trkpt>
      <trkpt lat="47.88033" lon="0.2302">
        <ele>71.8</ele>
        <time>2016-06-18T09:56:15Z</time>
      </trkpt>
      <trkpt lat="47.88043" lon="0.23015">
        <ele>70.9</ele>
        <time>2016-06-18T09:56:23Z</time>
      </trkpt>
      <trkpt lat="47.88053" lon="0.23011">
        <ele>70.1</ele>
        <time>2016-06-18T09:56:32Z</time>
      </trkpt>
      <trkpt lat="47.88061" lon="0.23007">
        <ele>69.7</ele>
        <time>2016-06-18T09:56:40Z</time>
      </trkpt>
      <trkpt lat="47.88071" lon="0.23004">
        <ele>68.9</ele>
        <time>2016-06-18T09:56:48Z</time>
      </trkpt>
      <trkpt lat="47.8808" lon="0.22998">
        <ele>67.7</ele>
        <time>2016-06-18T09:56:55Z</time>
      </trkpt>
      <trkpt lat="47.88089" lon="0.22996">
        <ele>67.4</ele>
        <time>2016-06-18T09:57:04Z</time>
      </trkpt>
      <trkpt lat="47.88098" lon="0.2299">
        <ele>66.5</ele>
        <time>2016-06-18T09:57:21Z</time>
      </trkpt>
      <trkpt lat="47.88107" lon="0.22988">
        <ele>66.2</ele>
        <time>2016-06-18T09:57:29Z</time>
      </trkpt>
      <trkpt lat="47.88117" lon="0.22985">
        <ele>65.4</ele>
        <time>2016-06-18T09:57:37Z</time>
      </trkpt>
      <trkpt lat="47.88126" lon="0.2298">
        <ele>65.1</ele>
        <time>2016-06-18T09:57:44Z</time>
      </trkpt>
      <trkpt lat="47.88136" lon="0.22978">
        <ele>65</ele>
        <time>2016-06-18T09:57:51Z</time>
      </trkpt>
      <trkpt lat="47.88145" lon="0.22976">
        <ele>64</ele>
        <time>2016-06-18T09:57:59Z</time>
      </trkpt>
      <trkpt lat="47.88154" lon="0.22974">
        <ele>63</ele>
        <time>2016-06-18T09:58:06Z</time>
      </trkpt>
      <trkpt lat="47.88163" lon="0.22972">
        <ele>62.4</ele>
        <time>2016-06-18T09:58:14Z</time>
      </trkpt>
      <trkpt lat="47.88173" lon="0.22969">
        <ele>62.3</ele>
        <time>2016-06-18T09:58:21Z</time>
      </trkpt>
      <trkpt lat="47.88182" lon="0.22967">
        <ele>62.3</ele>
        <time>2016-06-18T09:58:28Z</time>
      </trkpt>
      <trkpt lat="47.88191" lon="0.22963">
        <ele>61.8</ele>
        <time>2016-06-18T09:58:35Z</time>
      </trkpt>
      <trkpt lat="47.882" lon="0.22961">
        <ele>61.4</ele>
        <time>2016-06-18T09:58:43Z</time>
      </trkpt>
      <trkpt lat="47.88209" lon="0.2296">
        <ele>60</ele>
        <time>2016-06-18T09:58:50Z</time>
      </trkpt>
      <trkpt lat="47.88218" lon="0.22958">
        <ele>60.6</ele>
        <time>2016-06-18T09:58:58Z</time>
      </trkpt>
      <trkpt lat="47.88228" lon="0.22956">
        <ele>60.7</ele>
        <time>2016-06-18T09:59:06Z</time>
      </trkpt>
      <trkpt lat="47.88236" lon="0.2295">
        <ele>61.1</ele>
        <time>2016-06-18T09:59:14Z</time>
      </trkpt>
      <trkpt lat="47.88246" lon="0.22948">
        <ele>61.5</ele>
        <time>2016-06-18T09:59:19Z</time>
      </trkpt>
      <trkpt lat="47.88255" lon="0.22945">
        <ele>61.3</ele>
        <time>2016-06-18T09:59:27Z</time>
      </trkpt>
      <trkpt lat="47.88265" lon="0.22944">
        <ele>61</ele>
        <time>2016-06-18T09:59:35Z</time>
      </trkpt>
      <trkpt lat="47.88274" lon="0.22943">
        <ele>60.2</ele>
        <time>2016-06-18T09:59:43Z</time>
      </trkpt>
      <trkpt lat="47.88283" lon="0.22941">
        <ele>59.7</ele>
        <time>2016-06-18T09:59:50Z</time>
      </trkpt>
      <trkpt lat="47.88293" lon="0.22939">
        <ele>58.8</ele>
        <time>2016-06-18T09:59:57Z</time>
      </trkpt>
      <trkpt lat="47.88303" lon="0.22938">
        <ele>58.5</ele>
        <time>2016-06-18T10:00:06Z</time>
      </trkpt>
      <trkpt lat="47.88312" lon="0.22938">
        <ele>58.5</ele>
        <time>2016-06-18T10:00:14Z</time>
      </trkpt>
      <trkpt lat="47.88322" lon="0.22937">
        <ele>59</ele>
        <time>2016-06-18T10:00:22Z</time>
      </trkpt>
      <trkpt lat="47.88332" lon="0.22936">
        <ele>58.4</ele>
        <time>2016-06-18T10:00:31Z</time>
      </trkpt>
      <trkpt lat="47.88342" lon="0.22935">
        <ele>59</ele>
        <time>2016-06-18T10:00:38Z</time>
      </trkpt>
      <trkpt lat="47.88351" lon="0.22934">
        <ele>59.3</ele>
        <time>2016-06-18T10:00:45Z</time>
      </trkpt>
      <trkpt lat="47.88361" lon="0.22934">
        <ele>58.6</ele>
        <time>2016-06-18T10:00:53Z</time>
      </trkpt>
      <trkpt lat="47.8837" lon="0.22934">
        <ele>58.3</ele>
        <time>2016-06-18T10:01:00Z</time>
      </trkpt>
      <trkpt lat="47.88379" lon="0.22932">
        <ele>59</ele>
        <time>2016-06-18T10:01:07Z</time>
      </trkpt>
      <trkpt lat="47.88388" lon="0.2293">
        <ele>58.9</ele>
        <time>2016-06-18T10:01:13Z</time>
      </trkpt>
      <trkpt lat="47.88398" lon="0.22929">
        <ele>58.7</ele>
        <time>2016-06-18T10:01:21Z</time>
      </trkpt>
      <trkpt lat="47.88407" lon="0.22927">
        <ele>58.1</ele>
        <time>2016-06-18T10:01:29Z</time>
      </trkpt>
      <trkpt lat="47.88417" lon="0.22926">
        <ele>56.9</ele>
        <time>2016-06-18T10:01:38Z</time>
      </trkpt>
      <trkpt lat="47.88426" lon="0.22924">
        <ele>56.1</ele>
        <time>2016-06-18T10:01:47Z</time>
      </trkpt>
      <trkpt lat="47.88437" lon="0.22922">
        <ele>55.9</ele>
        <time>2016-06-18T10:01:54Z</time>
      </trkpt>
      <trkpt lat="47.88448" lon="0.2292">
        <ele>55.9</ele>
        <time>2016-06-18T10:02:03Z</time>
      </trkpt>
      <trkpt lat="47.88457" lon="0.2292">
        <ele>55.9</ele>
        <time>2016-06-18T10:02:11Z</time>
      </trkpt>
      <trkpt lat="47.88467" lon="0.22918">
        <ele>56.1</ele>
        <time>2016-06-18T10:02:19Z</time>
      </trkpt>
      <trkpt lat="47.88477" lon="0.22919">
        <ele>56.1</ele>
        <time>2016-06-18T10:02:27Z</time>
      </trkpt>
      <trkpt lat="47.88486" lon="0.22917">
        <ele>56</ele>
        <time>2016-06-18T10:02:35Z</time>
      </trkpt>
      <trkpt lat="47.88496" lon="0.22916">
        <ele>55.7</ele>
        <time>2016-06-18T10:02:42Z</time>
      </trkpt>
      <trkpt lat="47.88506" lon="0.22916">
        <ele>55.4</ele>
        <time>2016-06-18T10:02:50Z</time>
      </trkpt>
      <trkpt lat="47.88515" lon="0.22918">
        <ele>56</ele>
        <time>2016-06-18T10:02:58Z</time>
      </trkpt>
      <trkpt lat="47.88525" lon="0.2292">
        <ele>56.7</ele>
        <time>2016-06-18T10:03:05Z</time>
      </trkpt>
      <trkpt lat="47.88534" lon="0.22923">
        <ele>57.2</ele>
        <time>2016-06-18T10:03:12Z</time>
      </trkpt>
      <trkpt lat="47.88544" lon="0.22925">
        <ele>56.8</ele>
        <time>2016-06-18T10:03:20Z</time>
      </trkpt>
      <trkpt lat="47.88553" lon="0.22928">
        <ele>56.5</ele>
        <time>2016-06-18T10:03:28Z</time>
      </trkpt>
      <trkpt lat="47.88562" lon="0.22933">
        <ele>56.4</ele>
        <time>2016-06-18T10:03:38Z</time>
      </trkpt>
      <trkpt lat="47.88572" lon="0.22934">
        <ele>56.2</ele>
        <time>2016-06-18T10:03:46Z</time>
      </trkpt>
      <trkpt lat="47.88582" lon="0.22939">
        <ele>55.8</ele>
        <time>2016-06-18T10:03:53Z</time>
      </trkpt>
      <trkpt lat="47.8859" lon="0.22942">
        <ele>56.1</ele>
        <time>2016-06-18T10:04:01Z</time>
      </trkpt>
      <trkpt lat="47.88599" lon="0.22948">
        <ele>55.6</ele>
        <time>2016-06-18T10:04:10Z</time>
      </trkpt>
      <trkpt lat="47.88609" lon="0.2295">
        <ele>56.4</ele>
        <time>2016-06-18T10:04:19Z</time>
      </trkpt>
      <trkpt lat="47.88619" lon="0.22953">
        <ele>55.5</ele>
        <time>2016-06-18T10:04:27Z</time>
      </trkpt>
      <trkpt lat="47.88629" lon="0.22956">
        <ele>56.3</ele>
        <time>2016-06-18T10:04:35Z</time>
      </trkpt>
      <trkpt lat="47.88639" lon="0.22958">
        <ele>56.4</ele>
        <time>2016-06-18T10:05:24Z</time>
      </trkpt>
      <trkpt lat="47.88647" lon="0.22964">
        <ele>56.5</ele>
        <time>2016-06-18T10:05:32Z</time>
      </trkpt>
      <trkpt lat="47.88657" lon="0.22967">
        <ele>56</ele>
        <time>2016-06-18T10:05:40Z</time>
      </trkpt>
      <trkpt lat="47.88667" lon="0.22967">
        <ele>54.8</ele>
        <time>2016-06-18T10:05:47Z</time>
      </trkpt>
      <trkpt lat="47.88677" lon="0.22966">
        <ele>56</ele>
        <time>2016-06-18T10:05:55Z</time>
      </trkpt>
      <trkpt lat="47.88686" lon="0.22963">
        <ele>56</ele>
        <time>2016-06-18T10:06:01Z</time>
      </trkpt>
      <trkpt lat="47.88696" lon="0.22961">
        <ele>56.4</ele>
        <time>2016-06-18T10:06:07Z</time>
      </trkpt>
      <trkpt lat="47.88705" lon="0.22959">
        <ele>55.8</ele>
        <time>2016-06-18T10:06:13Z</time>
      </trkpt>
      <trkpt lat="47.88714" lon="0.22958">
        <ele>55.5</ele>
        <time>2016-06-18T10:06:19Z</time>
      </trkpt>
      <trkpt lat="47.88724" lon="0.22956">
        <ele>56.4</ele>
        <time>2016-06-18T10:06:26Z</time>
      </trkpt>
      <trkpt lat="47.88735" lon="0.22954">
        <ele>55.4</ele>
        <time>2016-06-18T10:06:33Z</time>
      </trkpt>
      <trkpt lat="47.88745" lon="0.22952">
        <ele>56</ele>
        <time>2016-06-18T10:06:41Z</time>
      </trkpt>
      <trkpt lat="47.88755" lon="0.22952">
        <ele>55.2</ele>
        <time>2016-06-18T10:06:48Z</time>
      </trkpt>
      <trkpt lat="47.88764" lon="0.22952">
        <ele>55.5</ele>
        <time>2016-06-18T10:06:55Z</time>
      </trkpt>
      <trkpt lat="47.88774" lon="0.22949">
        <ele>55.8</ele>
        <time>2016-06-18T10:07:01Z</time>
      </trkpt>
      <trkpt lat="47.88784" lon="0.22949">
        <ele>54.8</ele>
        <time>2016-06-18T10:07:08Z</time>
      </trkpt>
      <trkpt lat="47.88793" lon="0.22948">
        <ele>55.7</ele>
        <time>2016-06-18T10:07:14Z</time>
      </trkpt>
      <trkpt lat="47.88803" lon="0.22955">
        <ele>55.4</ele>
        <time>2016-06-18T10:07:21Z</time>
      </trkpt>
      <trkpt lat="47.88809" lon="0.22966">
        <ele>56.4</ele>
        <time>2016-06-18T10:07:29Z</time>
      </trkpt>
      <trkpt lat="47.88815" lon="0.22978">
        <ele>56.3</ele>
        <time>2016-06-18T10:07:37Z</time>
      </trkpt>
      <trkpt lat="47.88819" lon="0.2299">
        <ele>56.5</ele>
        <time>2016-06-18T10:07:44Z</time>
      </trkpt>
      <trkpt lat="47.88823" lon="0.23002">
        <ele>55</ele>
        <time>2016-06-18T10:07:52Z</time>
      </trkpt>
      <trkpt lat="47.8883" lon="0.23013">
        <ele>55.6</ele>
        <time>2016-06-18T10:08:00Z</time>
      </trkpt>
      <trkpt lat="47.88838" lon="0.2302">
        <ele>56.2</ele>
        <time>2016-06-18T10:08:08Z</time>
      </trkpt>
      <trkpt lat="47.88848" lon="0.23023">
        <ele>55.2</ele>
        <time>2016-06-18T10:08:16Z</time>
      </trkpt>
      <trkpt lat="47.88857" lon="0.23026">
        <ele>55.4</ele>
        <time>2016-06-18T10:08:24Z</time>
      </trkpt>
      <trkpt lat="47.88867" lon="0.23029">
        <ele>56.1</ele>
        <time>2016-06-18T10:08:32Z</time>
      </trkpt>
      <trkpt lat="47.88876" lon="0.23033">
        <ele>55.8</ele>
        <time>2016-06-18T10:08:40Z</time>
      </trkpt>
      <trkpt lat="47.88886" lon="0.23034">
        <ele>55.4</ele>
        <time>2016-06-18T10:08:48Z</time>
      </trkpt>
      <trkpt lat="47.88896" lon="0.23035">
        <ele>55.7</ele>
        <time>2016-06-18T10:08:57Z</time>
      </trkpt>
      <trkpt lat="47.88905" lon="0.23037">
        <ele>55.5</ele>
        <time>2016-06-18T10:09:05Z</time>
      </trkpt>
      <trkpt lat="47.88914" lon="0.23038">
        <ele>55.2</ele>
        <time>2016-06-18T10:09:13Z</time>
      </trkpt>
      <trkpt lat="47.88924" lon="0.23042">
        <ele>55.3</ele>
        <time>2016-06-18T10:09:21Z</time>
      </trkpt>
      <trkpt lat="47.88933" lon="0.23042">
        <ele>56.1</ele>
        <time>2016-06-18T10:09:29Z</time>
      </trkpt>
      <trkpt lat="47.88942" lon="0.23044">
        <ele>55.4</ele>
        <time>2016-06-18T10:09:36Z</time>
      </trkpt>
      <trkpt lat="47.88952" lon="0.23046">
        <ele>55.8</ele>
        <time>2016-06-18T10:09:44Z</time>
      </trkpt>
      <trkpt lat="47.88962" lon="0.23047">
        <ele>55.9</ele>
        <time>2016-06-18T10:09:52Z</time>
      </trkpt>
      <trkpt lat="47.88971" lon="0.2305">
        <ele>55.1</ele>
        <time>2016-06-18T10:10:00Z</time>
      </trkpt>
      <trkpt lat="47.88981" lon="0.23052">
        <ele>55.7</ele>
        <time>2016-06-18T10:10:08Z</time>
      </trkpt>
      <trkpt lat="47.8899" lon="0.23054">
        <ele>55.4</ele>
        <time>2016-06-18T10:10:16Z</time>
      </trkpt>
      <trkpt lat="47.88999" lon="0.23053">
        <ele>55.7</ele>
        <time>2016-06-18T10:10:24Z</time>
      </trkpt>
      <trkpt lat="47.89009" lon="0.23053">
        <ele>55.4</ele>
        <time>2016-06-18T10:10:32Z</time>
      </trkpt>
      <trkpt lat="47.89019" lon="0.23052">
        <ele>55.9</ele>
        <time>2016-06-18T10:10:40Z</time>
      </trkpt>
      <trkpt lat="47.89029" lon="0.23051">
        <ele>54.4</ele>
        <time>2016-06-18T10:10:48Z</time>
      </trkpt>
      <trkpt lat="47.89038" lon="0.23049">
        <ele>55.8</ele>
        <time>2016-06-18T10:10:56Z</time>
      </trkpt>
      <trkpt lat="47.89047" lon="0.23043">
        <ele>55.2</ele>
        <time>2016-06-18T10:11:04Z</time>
      </trkpt>
      <trkpt lat="47.89056" lon="0.2304">
        <ele>55.9</ele>
        <time>2016-06-18T10:11:12Z</time>
      </trkpt>
      <trkpt lat="47.89065" lon="0.23034">
        <ele>56.4</ele>
        <time>2016-06-18T10:11:20Z</time>
      </trkpt>
      <trkpt lat="47.89075" lon="0.2303">
        <ele>54.5</ele>
        <time>2016-06-18T10:11:27Z</time>
      </trkpt>
      <trkpt lat="47.89083" lon="0.23025">
        <ele>55.5</ele>
        <time>2016-06-18T10:11:35Z</time>
      </trkpt>
      <trkpt lat="47.89092" lon="0.23023">
        <ele>56.2</ele>
        <time>2016-06-18T10:11:42Z</time>
      </trkpt>
      <trkpt lat="47.89102" lon="0.23023">
        <ele>56</ele>
        <time>2016-06-18T10:11:49Z</time>
      </trkpt>
      <trkpt lat="47.89112" lon="0.23025">
        <ele>56</ele>
        <time>2016-06-18T10:11:57Z</time>
      </trkpt>
      <trkpt lat="47.89121" lon="0.23025">
        <ele>56.1</ele>
        <time>2016-06-18T10:12:05Z</time>
      </trkpt>
      <trkpt lat="47.89131" lon="0.23027">
        <ele>55.6</ele>
        <time>2016-06-18T10:12:13Z</time>
      </trkpt>
      <trkpt lat="47.8914" lon="0.23022">
        <ele>56.1</ele>
        <time>2016-06-18T10:13:02Z</time>
      </trkpt>
      <trkpt lat="47.89151" lon="0.23025">
        <ele>57.2</ele>
        <time>2016-06-18T10:13:12Z</time>
      </trkpt>
      <trkpt lat="47.89161" lon="0.23026">
        <ele>55.6</ele>
        <time>2016-06-18T10:13:19Z</time>
      </trkpt>
      <trkpt lat="47.89171" lon="0.23027">
        <ele>56.7</ele>
        <time>2016-06-18T10:13:27Z</time>
      </trkpt>
      <trkpt lat="47.8918" lon="0.23029">
        <ele>57</ele>
        <time>2016-06-18T10:13:35Z</time>
      </trkpt>
      <trkpt lat="47.8919" lon="0.23032">
        <ele>56</ele>
        <time>2016-06-18T10:13:42Z</time>
      </trkpt>
      <trkpt lat="47.89199" lon="0.23035">
        <ele>56.9</ele>
        <time>2016-06-18T10:13:50Z</time>
      </trkpt>
      <trkpt lat="47.89208" lon="0.23038">
        <ele>57</ele>
        <time>2016-06-18T10:13:57Z</time>
      </trkpt>
      <trkpt lat="47.89218" lon="0.23044">
        <ele>57.5</ele>
        <time>2016-06-18T10:14:07Z</time>
      </trkpt>
      <trkpt lat="47.89227" lon="0.23051">
        <ele>57.2</ele>
        <time>2016-06-18T10:14:17Z</time>
      </trkpt>
      <trkpt lat="47.89236" lon="0.23056">
        <ele>56.2</ele>
        <time>2016-06-18T10:14:23Z</time>
      </trkpt>
      <trkpt lat="47.89245" lon="0.23061">
        <ele>58.5</ele>
        <time>2016-06-18T10:14:30Z</time>
      </trkpt>
      <trkpt lat="47.89255" lon="0.23064">
        <ele>58.1</ele>
        <time>2016-06-18T10:14:38Z</time>
      </trkpt>
      <trkpt lat="47.89265" lon="0.23064">
        <ele>57.7</ele>
        <time>2016-06-18T10:14:46Z</time>
      </trkpt>
      <trkpt lat="47.89273" lon="0.23059">
        <ele>57.4</ele>
        <time>2016-06-18T10:14:55Z</time>
      </trkpt>
      <trkpt lat="47.89283" lon="0.23054">
        <ele>57.8</ele>
        <time>2016-06-18T10:15:03Z</time>
      </trkpt>
      <trkpt lat="47.89291" lon="0.23048">
        <ele>57.9</ele>
        <time>2016-06-18T10:15:10Z</time>
      </trkpt>
      <trkpt lat="47.893" lon="0.23043">
        <ele>59.1</ele>
        <time>2016-06-18T10:15:17Z</time>
      </trkpt>
      <trkpt lat="47.89308" lon="0.23037">
        <ele>59.2</ele>
        <time>2016-06-18T10:15:25Z</time>
      </trkpt>
      <trkpt lat="47.89318" lon="0.23031">
        <ele>59.3</ele>
        <time>2016-06-18T10:15:35Z</time>
      </trkpt>
      <trkpt lat="47.89327" lon="0.23025">
        <ele>60.1</ele>
        <time>2016-06-18T10:16:19Z</time>
      </trkpt>
      <trkpt lat="47.89335" lon="0.2302">
        <ele>60.4</ele>
        <time>2016-06-18T10:16:26Z</time>
      </trkpt>
      <trkpt lat="47.89344" lon="0.23015">
        <ele>60.5</ele>
        <time>2016-06-18T10:16:33Z</time>
      </trkpt>
      <trkpt lat="47.89353" lon="0.23009">
        <ele>60.7</ele>
        <time>2016-06-18T10:16:40Z</time>
      </trkpt>
      <trkpt lat="47.8936" lon="0.23001">
        <ele>60.4</ele>
        <time>2016-06-18T10:16:47Z</time>
      </trkpt>
      <trkpt lat="47.89368" lon="0.22992">
        <ele>60.1</ele>
        <time>2016-06-18T10:16:54Z</time>
      </trkpt>
      <trkpt lat="47.89376" lon="0.22984">
        <ele>60</ele>
        <time>2016-06-18T10:17:01Z</time>
      </trkpt>
      <trkpt lat="47.89384" lon="0.22978">
        <ele>59.6</ele>
        <time>2016-06-18T10:17:08Z</time>
      </trkpt>
      <trkpt lat="47.89393" lon="0.22972">
        <ele>59.4</ele>
        <time>2016-06-18T10:17:15Z</time>
      </trkpt>
      <trkpt lat="47.89402" lon="0.2297">
        <ele>58.9</ele>
        <time>2016-06-18T10:17:23Z</time>
      </trkpt>
      <trkpt lat="47.89413" lon="0.22972">
        <ele>59.2</ele>
        <time>2016-06-18T10:17:31Z</time>
      </trkpt>
      <trkpt lat="47.89422" lon="0.22973">
        <ele>59.7</ele>
        <time>2016-06-18T10:17:38Z</time>
      </trkpt>
      <trkpt lat="47.89432" lon="0.22975">
        <ele>59.4</ele>
        <time>2016-06-18T10:17:46Z</time>
      </trkpt>
      <trkpt lat="47.89441" lon="0.22977">
        <ele>59.5</ele>
        <time>2016-06-18T10:17:53Z</time>
      </trkpt>
      <trkpt lat="47.89451" lon="0.22979">
        <ele>59.4</ele>
        <time>2016-06-18T10:18:01Z</time>
      </trkpt>
      <trkpt lat="47.89459" lon="0.22987">
        <ele>59.2</ele>
        <time>2016-06-18T10:18:08Z</time>
      </trkpt>
      <trkpt lat="47.89464" lon="0.23001">
        <ele>60.3</ele>
        <time>2016-06-18T10:18:16Z</time>
      </trkpt>
      <trkpt lat="47.89465" lon="0.23016">
        <ele>60.5</ele>
        <time>2016-06-18T10:18:25Z</time>
      </trkpt>
      <trkpt lat="47.89464" lon="0.23031">
        <ele>61.1</ele>
        <time>2016-06-18T10:18:33Z</time>
      </trkpt>
      <trkpt lat="47.89463" lon="0.23045">
        <ele>61.4</ele>
        <time>2016-06-18T10:18:41Z</time>
      </trkpt>
      <trkpt lat="47.89461" lon="0.23059">
        <ele>61</ele>
        <time>2016-06-18T10:18:48Z</time>
      </trkpt>
      <trkpt lat="47.89462" lon="0.23074">
        <ele>60.6</ele>
        <time>2016-06-18T10:18:56Z</time>
      </trkpt>
      <trkpt lat="47.8946" lon="0.23088">
        <ele>60.1</ele>
        <time>2016-06-18T10:19:04Z</time>
      </trkpt>
      <trkpt lat="47.89459" lon="0.23103">
        <ele>60.1</ele>
        <time>2016-06-18T10:19:12Z</time>
      </trkpt>
      <trkpt lat="47.89459" lon="0.23116">
        <ele>60.9</ele>
        <time>2016-06-18T10:19:19Z</time>
      </trkpt>
      <trkpt lat="47.89459" lon="0.23131">
        <ele>62.2</ele>
        <time>2016-06-18T10:19:27Z</time>
      </trkpt>
      <trkpt lat="47.89458" lon="0.23146">
        <ele>62.6</ele>
        <time>2016-06-18T10:19:35Z</time>
      </trkpt>
      <trkpt lat="47.89463" lon="0.23159">
        <ele>63</ele>
        <time>2016-06-18T10:19:43Z</time>
      </trkpt>
      <trkpt lat="47.89468" lon="0.23171">
        <ele>61.9</ele>
        <time>2016-06-18T10:20:45Z</time>
      </trkpt>
      <trkpt lat="47.89478" lon="0.23172">
        <ele>61.8</ele>
        <time>2016-06-18T10:20:54Z</time>
      </trkpt>
      <trkpt lat="47.89487" lon="0.23174">
        <ele>62.7</ele>
        <time>2016-06-18T10:21:02Z</time>
      </trkpt>
      <trkpt lat="47.89496" lon="0.23178">
        <ele>62.2</ele>
        <time>2016-06-18T10:21:09Z</time>
      </trkpt>
      <trkpt lat="47.89505" lon="0.2318">
        <ele>63.7</ele>
        <time>2016-06-18T10:21:17Z</time>
      </trkpt>
      <trkpt lat="47.89515" lon="0.23181">
        <ele>62.3</ele>
        <time>2016-06-18T10:21:25Z</time>
      </trkpt>
      <trkpt lat="47.89525" lon="0.23182">
        <ele>63.4</ele>
        <time>2016-06-18T10:21:33Z</time>
      </trkpt>
      <trkpt lat="47.89536" lon="0.23182">
        <ele>65.3</ele>
        <time>2016-06-18T10:21:41Z</time>
      </trkpt>
      <trkpt lat="47.89545" lon="0.23183">
        <ele>65.4</ele>
        <time>2016-06-18T10:21:48Z</time>
      </trkpt>
      <trkpt lat="47.89555" lon="0.23184">
        <ele>66.1</ele>
        <time>2016-06-18T10:21:56Z</time>
      </trkpt>
      <trkpt lat="47.89565" lon="0.23182">
        <ele>65.7</ele>
        <time>2016-06-18T10:22:04Z</time>
      </trkpt>
      <trkpt lat="47.89574" lon="0.2318">
        <ele>66.8</ele>
        <time>2016-06-18T10:22:12Z</time>
      </trkpt>
      <trkpt lat="47.89582" lon="0.23171">
        <ele>67.1</ele>
        <time>2016-06-18T10:22:21Z</time>
      </trkpt>
      <trkpt lat="47.89585" lon="0.23157">
        <ele>67.1</ele>
        <time>2016-06-18T10:22:29Z</time>
      </trkpt>
      <trkpt lat="47.89588" lon="0.23142">
        <ele>66.8</ele>
        <time>2016-06-18T10:22:36Z</time>
      </trkpt>
      <trkpt lat="47.8959" lon="0.23129">
        <ele>66.6</ele>
        <time>2016-06-18T10:22:43Z</time>
      </trkpt>
      <trkpt lat="47.89592" lon="0.23115">
        <ele>67.4</ele>
        <time>2016-06-18T10:22:50Z</time>
      </trkpt>
      <trkpt lat="47.89594" lon="0.23102">
        <ele>66.5</ele>
        <time>2016-06-18T10:22:57Z</time>
      </trkpt>
      <trkpt lat="47.89596" lon="0.23088">
        <ele>66.7</ele>
        <time>2016-06-18T10:23:04Z</time>
      </trkpt>
      <trkpt lat="47.89599" lon="0.23074">
        <ele>66.6</ele>
        <time>2016-06-18T10:23:12Z</time>
      </trkpt>
      <trkpt lat="47.89609" lon="0.23071">
        <ele>65.3</ele>
        <time>2016-06-18T10:24:06Z</time>
      </trkpt>
      <trkpt lat="47.89618" lon="0.23074">
        <ele>65.8</ele>
        <time>2016-06-18T10:24:14Z</time>
      </trkpt>
      <trkpt lat="47.89628" lon="0.23075">
        <ele>64.9</ele>
        <time>2016-06-18T10:24:22Z</time>
      </trkpt>
      <trkpt lat="47.89638" lon="0.23075">
        <ele>62.8</ele>
        <time>2016-06-18T10:24:29Z</time>
      </trkpt>
      <trkpt lat="47.89648" lon="0.23076">
        <ele>68</ele>
        <time>2016-06-18T10:24:38Z</time>
      </trkpt>
      <trkpt lat="47.89659" lon="0.23076">
        <ele>60.5</ele>
        <time>2016-06-18T10:24:47Z</time>
      </trkpt>
      <trkpt lat="47.89668" lon="0.23074">
        <ele>64.6</ele>
        <time>2016-06-18T10:24:54Z</time>
      </trkpt>
      <trkpt lat="47.89678" lon="0.23075">
        <ele>62.5</ele>
        <time>2016-06-18T10:25:02Z</time>
      </trkpt>
      <trkpt lat="47.89688" lon="0.23075">
        <ele>65.3</ele>
        <time>2016-06-18T10:25:10Z</time>
      </trkpt>
      <trkpt lat="47.89698" lon="0.23076">
        <ele>67.6</ele>
        <time>2016-06-18T10:25:18Z</time>
      </trkpt>
      <trkpt lat="47.89707" lon="0.23079">
        <ele>66.6</ele>
        <time>2016-06-18T10:25:25Z</time>
      </trkpt>
      <trkpt lat="47.89716" lon="0.23079">
        <ele>67.4</ele>
        <time>2016-06-18T10:25:31Z</time>
      </trkpt>
      <trkpt lat="47.89725" lon="0.23079">
        <ele>65.5</ele>
        <time>2016-06-18T10:25:39Z</time>
      </trkpt>
      <trkpt lat="47.89736" lon="0.2308">
        <ele>66.3</ele>
        <time>2016-06-18T10:25:46Z</time>
      </trkpt>
      <trkpt lat="47.89746" lon="0.23082">
        <ele>66.4</ele>
        <time>2016-06-18T10:25:57Z</time>
      </trkpt>
      <trkpt lat="47.89756" lon="0.23082">
        <ele>66.5</ele>
        <time>2016-06-18T10:26:12Z</time>
      </trkpt>
      <trkpt lat="47.89765" lon="0.23086">
        <ele>65</ele>
        <time>2016-06-18T10:27:13Z</time>
      </trkpt>
      <trkpt lat="47.89774" lon="0.23085">
        <ele>64.6</ele>
        <time>2016-06-18T10:27:25Z</time>
      </trkpt>
      <trkpt lat="47.89783" lon="0.23086">
        <ele>64.4</ele>
        <time>2016-06-18T10:27:31Z</time>
      </trkpt>
      <trkpt lat="47.89793" lon="0.23086">
        <ele>65.8</ele>
        <time>2016-06-18T10:27:38Z</time>
      </trkpt>
      <trkpt lat="47.89803" lon="0.23087">
        <ele>64.6</ele>
        <time>2016-06-18T10:27:46Z</time>
      </trkpt>
      <trkpt lat="47.89812" lon="0.23088">
        <ele>62.9</ele>
        <time>2016-06-18T10:27:53Z</time>
      </trkpt>
      <trkpt lat="47.89822" lon="0.2309">
        <ele>62.9</ele>
        <time>2016-06-18T10:28:01Z</time>
      </trkpt>
      <trkpt lat="47.89831" lon="0.23088">
        <ele>62.9</ele>
        <time>2016-06-18T10:28:09Z</time>
      </trkpt>
      <trkpt lat="47.8984" lon="0.2309">
        <ele>63.7</ele>
        <time>2016-06-18T10:29:13Z</time>
      </trkpt>
      <trkpt lat="47.89849" lon="0.23091">
        <ele>62.8</ele>
        <time>2016-06-18T10:29:20Z</time>
      </trkpt>
      <trkpt lat="47.89859" lon="0.23091">
        <ele>63</ele>
        <time>2016-06-18T10:29:28Z</time>
      </trkpt>
      <trkpt lat="47.89868" lon="0.23095">
        <ele>63</ele>
        <time>2016-06-18T10:29:36Z</time>
      </trkpt>
      <trkpt lat="47.89878" lon="0.23098">
        <ele>62.1</ele>
        <time>2016-06-18T10:29:45Z</time>
      </trkpt>
      <trkpt lat="47.89887" lon="0.23097">
        <ele>62.4</ele>
        <time>2016-06-18T10:29:54Z</time>
      </trkpt>
      <trkpt lat="47.89897" lon="0.23098">
        <ele>61.7</ele>
        <time>2016-06-18T10:30:03Z</time>
      </trkpt>
      <trkpt lat="47.89906" lon="0.23101">
        <ele>62.7</ele>
        <time>2016-06-18T10:30:11Z</time>
      </trkpt>
      <trkpt lat="47.89916" lon="0.23101">
        <ele>62.3</ele>
        <time>2016-06-18T10:30:18Z</time>
      </trkpt>
      <trkpt lat="47.89926" lon="0.23102">
        <ele>61.2</ele>
        <time>2016-06-18T10:30:27Z</time>
      </trkpt>
      <trkpt lat="47.89935" lon="0.23103">
        <ele>60.9</ele>
        <time>2016-06-18T10:30:35Z</time>
      </trkpt>
      <trkpt lat="47.89945" lon="0.23105">
        <ele>61.4</ele>
        <time>2016-06-18T10:30:41Z</time>
      </trkpt>
      <trkpt lat="47.89955" lon="0.23106">
        <ele>61</ele>
        <time>2016-06-18T10:30:47Z</time>
      </trkpt>
      <trkpt lat="47.89965" lon="0.23107">
        <ele>61.9</ele>
        <time>2016-06-18T10:30:56Z</time>
      </trkpt>
      <trkpt lat="47.89975" lon="0.23107">
        <ele>60.9</ele>
        <time>2016-06-18T10:31:03Z</time>
      </trkpt>
      <trkpt lat="47.89985" lon="0.23109">
        <ele>60.6</ele>
        <time>2016-06-18T10:31:12Z</time>
      </trkpt>
      <trkpt lat="47.89995" lon="0.23108">
        <ele>60.4</ele>
        <time>2016-06-18T10:31:18Z</time>
      </trkpt>
      <trkpt lat="47.90004" lon="0.2311">
        <ele>59.6</ele>
        <time>2016-06-18T10:31:25Z</time>
      </trkpt>
      <trkpt lat="47.90014" lon="0.23111">
        <ele>60.2</ele>
        <time>2016-06-18T10:31:32Z</time>
      </trkpt>
      <trkpt lat="47.90023" lon="0.23112">
        <ele>59.2</ele>
        <time>2016-06-18T10:31:40Z</time>
      </trkpt>
      <trkpt lat="47.90032" lon="0.23114">
        <ele>59.9</ele>
        <time>2016-06-18T10:31:48Z</time>
      </trkpt>
      <trkpt lat="47.90042" lon="0.23114">
        <ele>59.9</ele>
        <time>2016-06-18T10:31:55Z</time>
      </trkpt>
      <trkpt lat="47.90051" lon="0.23113">
        <ele>59.4</ele>
        <time>2016-06-18T10:32:02Z</time>
      </trkpt>
      <trkpt lat="47.9006" lon="0.23114">
        <ele>58.6</ele>
        <time>2016-06-18T10:32:09Z</time>
      </trkpt>
      <trkpt lat="47.90069" lon="0.23112">
        <ele>60.1</ele>
        <time>2016-06-18T10:32:16Z</time>
      </trkpt>
      <trkpt lat="47.90078" lon="0.23112">
        <ele>59.4</ele>
        <time>2016-06-18T10:32:23Z</time>
      </trkpt>
      <trkpt lat="47.90089" lon="0.2311">
        <ele>58.9</ele>
        <time>2016-06-18T10:32:31Z</time>
      </trkpt>
      <trkpt lat="47.90099" lon="0.23108">
        <ele>60.3</ele>
        <time>2016-06-18T10:32:38Z</time>
      </trkpt>
      <trkpt lat="47.90108" lon="0.23109">
        <ele>60.1</ele>
        <time>2016-06-18T10:32:44Z</time>
      </trkpt>
      <trkpt lat="47.90118" lon="0.23107">
        <ele>59.2</ele>
        <time>2016-06-18T10:32:51Z</time>
      </trkpt>
      <trkpt lat="47.90127" lon="0.23104">
        <ele>60.2</ele>
        <time>2016-06-18T10:32:57Z</time>
      </trkpt>
      <trkpt lat="47.90136" lon="0.231">
        <ele>59.8</ele>
        <time>2016-06-18T10:33:05Z</time>
      </trkpt>
      <trkpt lat="47.90146" lon="0.23097">
        <ele>58.8</ele>
        <time>2016-06-18T10:33:12Z</time>
      </trkpt>
      <trkpt lat="47.90155" lon="0.23094">
        <ele>58.6</ele>
        <time>2016-06-18T10:33:19Z</time>
      </trkpt>
      <trkpt lat="47.90164" lon="0.2309">
        <ele>58.2</ele>
        <time>2016-06-18T10:33:26Z</time>
      </trkpt>
      <trkpt lat="47.90172" lon="0.23085">
        <ele>58</ele>
        <time>2016-06-18T10:33:33Z</time>
      </trkpt>
      <trkpt lat="47.90181" lon="0.23079">
        <ele>58.8</ele>
        <time>2016-06-18T10:33:42Z</time>
      </trkpt>
      <trkpt lat="47.9019" lon="0.23073">
        <ele>58.4</ele>
        <time>2016-06-18T10:33:50Z</time>
      </trkpt>
      <trkpt lat="47.90198" lon="0.23066">
        <ele>59.9</ele>
        <time>2016-06-18T10:33:58Z</time>
      </trkpt>
      <trkpt lat="47.90207" lon="0.23061">
        <ele>60.4</ele>
        <time>2016-06-18T10:34:04Z</time>
      </trkpt>
      <trkpt lat="47.90216" lon="0.23057">
        <ele>58.7</ele>
        <time>2016-06-18T10:34:29Z</time>
      </trkpt>
      <trkpt lat="47.90226" lon="0.23051">
        <ele>58.2</ele>
        <time>2016-06-18T10:34:40Z</time>
      </trkpt>
      <trkpt lat="47.90235" lon="0.23045">
        <ele>58.3</ele>
        <time>2016-06-18T10:34:50Z</time>
      </trkpt>
      <trkpt lat="47.90244" lon="0.2304">
        <ele>59.3</ele>
        <time>2016-06-18T10:34:57Z</time>
      </trkpt>
      <trkpt lat="47.90252" lon="0.23035">
        <ele>59.1</ele>
        <time>2016-06-18T10:35:03Z</time>
      </trkpt>
      <trkpt lat="47.90262" lon="0.2303">
        <ele>58.1</ele>
        <time>2016-06-18T10:35:12Z</time>
      </trkpt>
      <trkpt lat="47.90273" lon="0.23026">
        <ele>58.2</ele>
        <time>2016-06-18T10:35:24Z</time>
      </trkpt>
      <trkpt lat="47.90281" lon="0.23023">
        <ele>58.4</ele>
        <time>2016-06-18T10:35:31Z</time>
      </trkpt>
      <trkpt lat="47.9029" lon="0.23019">
        <ele>58.3</ele>
        <time>2016-06-18T10:35:38Z</time>
      </trkpt>
      <trkpt lat="47.903" lon="0.23015">
        <ele>58.2</ele>
        <time>2016-06-18T10:35:43Z</time>
      </trkpt>
      <trkpt lat="47.90311" lon="0.2301">
        <ele>58.3</ele>
        <time>2016-06-18T10:35:51Z</time>
      </trkpt>
      <trkpt lat="47.9032" lon="0.23008">
        <ele>58.5</ele>
        <time>2016-06-18T10:35:55Z</time>
      </trkpt>
      <trkpt lat="47.90331" lon="0.23004">
        <ele>59.8</ele>
        <time>2016-06-18T10:36:05Z</time>
      </trkpt>
      <trkpt lat="47.90341" lon="0.23003">
        <ele>60.5</ele>
        <time>2016-06-18T10:36:54Z</time>
      </trkpt>
      <trkpt lat="47.90349" lon="0.22999">
        <ele>59.3</ele>
        <time>2016-06-18T10:37:01Z</time>
      </trkpt>
      <trkpt lat="47.90359" lon="0.22998">
        <ele>59.4</ele>
        <time>2016-06-18T10:37:09Z</time>
      </trkpt>
      <trkpt lat="47.90369" lon="0.22997">
        <ele>59.5</ele>
        <time>2016-06-18T10:37:14Z</time>
      </trkpt>
      <trkpt lat="47.90379" lon="0.22993">
        <ele>59.8</ele>
        <time>2016-06-18T10:37:20Z</time>
      </trkpt>
      <trkpt lat="47.90388" lon="0.22991">
        <ele>60.5</ele>
        <time>2016-06-18T10:37:26Z</time>
      </trkpt>
      <trkpt lat="47.90397" lon="0.22989">
        <ele>60.4</ele>
        <time>2016-06-18T10:37:31Z</time>
      </trkpt>
      <trkpt lat="47.90406" lon="0.22987">
        <ele>60.8</ele>
        <time>2016-06-18T10:37:40Z</time>
      </trkpt>
      <trkpt lat="47.90416" lon="0.22984">
        <ele>61.3</ele>
        <time>2016-06-18T10:37:51Z</time>
      </trkpt>
      <trkpt lat="47.90425" lon="0.22982">
        <ele>62</ele>
        <time>2016-06-18T10:38:01Z</time>
      </trkpt>
      <trkpt lat="47.90434" lon="0.22981">
        <ele>61.9</ele>
        <time>2016-06-18T10:38:06Z</time>
      </trkpt>
      <trkpt lat="47.90444" lon="0.22979">
        <ele>62</ele>
        <time>2016-06-18T10:38:18Z</time>
      </trkpt>
      <trkpt lat="47.90455" lon="0.22977">
        <ele>62.1</ele>
        <time>2016-06-18T10:38:27Z</time>
      </trkpt>
      <trkpt lat="47.90464" lon="0.22974">
        <ele>62.8</ele>
        <time>2016-06-18T10:38:33Z</time>
      </trkpt>
      <trkpt lat="47.90475" lon="0.22973">
        <ele>62.9</ele>
        <time>2016-06-18T10:38:40Z</time>
      </trkpt>
      <trkpt lat="47.90484" lon="0.22971">
        <ele>63.1</ele>
        <time>2016-06-18T10:38:48Z</time>
      </trkpt>
      <trkpt lat="47.90493" lon="0.22969">
        <ele>63.1</ele>
        <time>2016-06-18T10:38:55Z</time>
      </trkpt>
      <trkpt lat="47.90502" lon="0.22967">
        <ele>63.8</ele>
        <time>2016-06-18T10:39:02Z</time>
      </trkpt>
      <trkpt lat="47.90511" lon="0.22962">
        <ele>63.5</ele>
        <time>2016-06-18T10:39:09Z</time>
      </trkpt>
      <trkpt lat="47.9052" lon="0.22959">
        <ele>64.2</ele>
        <time>2016-06-18T10:39:19Z</time>
      </trkpt>
      <trkpt lat="47.90529" lon="0.22957">
        <ele>63.9</ele>
        <time>2016-06-18T10:39:23Z</time>
      </trkpt>
      <trkpt lat="47.90539" lon="0.22951">
        <ele>64.7</ele>
        <time>2016-06-18T10:39:30Z</time>
      </trkpt>
      <trkpt lat="47.90549" lon="0.22949">
        <ele>65</ele>
        <time>2016-06-18T10:39:41Z</time>
      </trkpt>
      <trkpt lat="47.90558" lon="0.22945">
        <ele>64.2</ele>
        <time>2016-06-18T10:39:48Z</time>
      </trkpt>
      <trkpt lat="47.90568" lon="0.22941">
        <ele>64.9</ele>
        <time>2016-06-18T10:39:56Z</time>
      </trkpt>
      <trkpt lat="47.90577" lon="0.22938">
        <ele>64.9</ele>
        <time>2016-06-18T10:40:03Z</time>
      </trkpt>
      <trkpt lat="47.90586" lon="0.22938">
        <ele>64.9</ele>
        <time>2016-06-18T10:40:10Z</time>
      </trkpt>
      <trkpt lat="47.90597" lon="0.22935">
        <ele>65.2</ele>
        <time>2016-06-18T10:40:17Z</time>
      </trkpt>
      <trkpt lat="47.90606" lon="0.22931">
        <ele>65.4</ele>
        <time>2016-06-18T10:40:23Z</time>
      </trkpt>
      <trkpt lat="47.90615" lon="0.22928">
        <ele>65.7</ele>
        <time>2016-06-18T10:40:29Z</time>
      </trkpt>
      <trkpt lat="47.90623" lon="0.22921">
        <ele>65.9</ele>
        <time>2016-06-18T10:42:16Z</time>
      </trkpt>
      <trkpt lat="47.90632" lon="0.2292">
        <ele>65.7</ele>
        <time>2016-06-18T10:42:25Z</time>
      </trkpt>
      <trkpt lat="47.90641" lon="0.22919">
        <ele>66.1</ele>
        <time>2016-06-18T10:42:33Z</time>
      </trkpt>
      <trkpt lat="47.9065" lon="0.22916">
        <ele>67.2</ele>
        <time>2016-06-18T10:42:43Z</time>
      </trkpt>
      <trkpt lat="47.90661" lon="0.22917">
        <ele>65.9</ele>
        <time>2016-06-18T10:42:51Z</time>
      </trkpt>
      <trkpt lat="47.90672" lon="0.22916">
        <ele>66.1</ele>
        <time>2016-06-18T10:43:00Z</time>
      </trkpt>
      <trkpt lat="47.90683" lon="0.22914">
        <ele>66.4</ele>
        <time>2016-06-18T10:43:08Z</time>
      </trkpt>
      <trkpt lat="47.90693" lon="0.22911">
        <ele>65.6</ele>
        <time>2016-06-18T10:43:15Z</time>
      </trkpt>
      <trkpt lat="47.90702" lon="0.22911">
        <ele>65.4</ele>
        <time>2016-06-18T10:43:21Z</time>
      </trkpt>
      <trkpt lat="47.90712" lon="0.22908">
        <ele>66.4</ele>
        <time>2016-06-18T10:43:27Z</time>
      </trkpt>
      <trkpt lat="47.90721" lon="0.22906">
        <ele>65.4</ele>
        <time>2016-06-18T10:43:34Z</time>
      </trkpt>
      <trkpt lat="47.9073" lon="0.22903">
        <ele>64.8</ele>
        <time>2016-06-18T10:43:43Z</time>
      </trkpt>
      <trkpt lat="47.90739" lon="0.22901">
        <ele>65.2</ele>
        <time>2016-06-18T10:43:49Z</time>
      </trkpt>
      <trkpt lat="47.90748" lon="0.22899">
        <ele>64.9</ele>
        <time>2016-06-18T10:43:59Z</time>
      </trkpt>
      <trkpt lat="47.90758" lon="0.22896">
        <ele>65.5</ele>
        <time>2016-06-18T10:44:06Z</time>
      </trkpt>
      <trkpt lat="47.90768" lon="0.22893">
        <ele>64.7</ele>
        <time>2016-06-18T10:44:12Z</time>
      </trkpt>
      <trkpt lat="47.90777" lon="0.22889">
        <ele>64.5</ele>
        <time>2016-06-18T10:44:20Z</time>
      </trkpt>
      <trkpt lat="47.90787" lon="0.22886">
        <ele>64.5</ele>
        <time>2016-06-18T10:44:27Z</time>
      </trkpt>
      <trkpt lat="47.90796" lon="0.22885">
        <ele>64.9</ele>
        <time>2016-06-18T10:44:34Z</time>
      </trkpt>
      <trkpt lat="47.90805" lon="0.22881">
        <ele>64.6</ele>
        <time>2016-06-18T10:44:44Z</time>
      </trkpt>
      <trkpt lat="47.90814" lon="0.22878">
        <ele>65.3</ele>
        <time>2016-06-18T10:44:58Z</time>
      </trkpt>
      <trkpt lat="47.90824" lon="0.22878">
        <ele>65.6</ele>
        <time>2016-06-18T10:45:05Z</time>
      </trkpt>
      <trkpt lat="47.90833" lon="0.22878">
        <ele>64.6</ele>
        <time>2016-06-18T10:46:43Z</time>
      </trkpt>
      <trkpt lat="47.90842" lon="0.22871">
        <ele>64.3</ele>
        <time>2016-06-18T10:47:01Z</time>
      </trkpt>
      <trkpt lat="47.90852" lon="0.22869">
        <ele>64</ele>
        <time>2016-06-18T10:47:11Z</time>
      </trkpt>
      <trkpt lat="47.90861" lon="0.22868">
        <ele>63.7</ele>
        <time>2016-06-18T10:47:20Z</time>
      </trkpt>
      <trkpt lat="47.90871" lon="0.22866">
        <ele>63.9</ele>
        <time>2016-06-18T10:47:27Z</time>
      </trkpt>
      <trkpt lat="47.9088" lon="0.22862">
        <ele>63.9</ele>
        <time>2016-06-18T10:47:35Z</time>
      </trkpt>
      <trkpt lat="47.90891" lon="0.22863">
        <ele>64.1</ele>
        <time>2016-06-18T10:47:43Z</time>
      </trkpt>
      <trkpt lat="47.909" lon="0.22864">
        <ele>64.9</ele>
        <time>2016-06-18T10:47:51Z</time>
      </trkpt>
      <trkpt lat="47.90909" lon="0.22861">
        <ele>65.3</ele>
        <time>2016-06-18T10:48:02Z</time>
      </trkpt>
      <trkpt lat="47.90919" lon="0.22859">
        <ele>65.6</ele>
        <time>2016-06-18T10:48:07Z</time>
      </trkpt>
      <trkpt lat="47.90928" lon="0.22859">
        <ele>64.8</ele>
        <time>2016-06-18T10:48:14Z</time>
      </trkpt>
      <trkpt lat="47.90938" lon="0.22852">
        <ele>64.4</ele>
        <time>2016-06-18T10:48:19Z</time>
      </trkpt>
      <trkpt lat="47.90937" lon="0.22838">
        <ele>64.1</ele>
        <time>2016-06-18T10:48:29Z</time>
      </trkpt>
      <trkpt lat="47.9093" lon="0.22829">
        <ele>63.9</ele>
        <time>2016-06-18T10:48:42Z</time>
      </trkpt>
      <trkpt lat="47.90925" lon="0.22817">
        <ele>63.6</ele>
        <time>2016-06-18T10:48:51Z</time>
      </trkpt>
      <trkpt lat="47.90923" lon="0.22803">
        <ele>64</ele>
        <time>2016-06-18T10:48:57Z</time>
      </trkpt>
      <trkpt lat="47.90921" lon="0.2279">
        <ele>64</ele>
        <time>2016-06-18T10:49:06Z</time>
      </trkpt>
      <trkpt lat="47.9092" lon="0.22774">
        <ele>63.4</ele>
        <time>2016-06-18T10:49:14Z</time>
      </trkpt>
      <trkpt lat="47.90924" lon="0.2276">
        <ele>63.7</ele>
        <time>2016-06-18T10:49:23Z</time>
      </trkpt>
      <trkpt lat="47.90927" lon="0.22746">
        <ele>64.1</ele>
        <time>2016-06-18T10:49:33Z</time>
      </trkpt>
      <trkpt lat="47.90926" lon="0.22732">
        <ele>64</ele>
        <time>2016-06-18T10:49:39Z</time>
      </trkpt>
      <trkpt lat="47.90929" lon="0.22719">
        <ele>63.8</ele>
        <time>2016-06-18T10:49:47Z</time>
      </trkpt>
      <trkpt lat="47.90931" lon="0.22705">
        <ele>63.8</ele>
        <time>2016-06-18T10:49:57Z</time>
      </trkpt>
      <trkpt lat="47.90931" lon="0.22689">
        <ele>64.5</ele>
        <time>2016-06-18T10:50:04Z</time>
      </trkpt>
      <trkpt lat="47.90931" lon="0.22676">
        <ele>65.3</ele>
        <time>2016-06-18T10:50:15Z</time>
      </trkpt>
      <trkpt lat="47.90934" lon="0.22663">
        <ele>65.6</ele>
        <time>2016-06-18T10:50:23Z</time>
      </trkpt>
      <trkpt lat="47.90936" lon="0.22649">
        <ele>66</ele>
        <time>2016-06-18T10:50:33Z</time>
      </trkpt>
      <trkpt lat="47.90937" lon="0.22635">
        <ele>66.2</ele>
        <time>2016-06-18T10:50:41Z</time>
      </trkpt>
      <trkpt lat="47.90938" lon="0.22621">
        <ele>66.9</ele>
        <time>2016-06-18T10:50:50Z</time>
      </trkpt>
      <trkpt lat="47.90941" lon="0.22607">
        <ele>67.5</ele>
        <time>2016-06-18T10:50:57Z</time>
      </trkpt>
      <trkpt lat="47.90945" lon="0.22594">
        <ele>67.9</ele>
        <time>2016-06-18T10:51:05Z</time>
      </trkpt>
      <trkpt lat="47.90949" lon="0.22581">
        <ele>68.1</ele>
        <time>2016-06-18T10:51:15Z</time>
      </trkpt>
      <trkpt lat="47.9095" lon="0.22566">
        <ele>68.8</ele>
        <time>2016-06-18T10:51:21Z</time>
      </trkpt>
      <trkpt lat="47.90953" lon="0.22553">
        <ele>68.5</ele>
        <time>2016-06-18T10:51:29Z</time>
      </trkpt>
      <trkpt lat="47.90955" lon="0.22539">
        <ele>67.9</ele>
        <time>2016-06-18T10:51:36Z</time>
      </trkpt>
      <trkpt lat="47.90956" lon="0.22525">
        <ele>67.8</ele>
        <time>2016-06-18T10:51:44Z</time>
      </trkpt>
      <trkpt lat="47.90961" lon="0.22513">
        <ele>67.5</ele>
        <time>2016-06-18T10:51:53Z</time>
      </trkpt>
      <trkpt lat="47.90967" lon="0.225">
        <ele>67</ele>
        <time>2016-06-18T10:52:01Z</time>
      </trkpt>
      <trkpt lat="47.9097" lon="0.22486">
        <ele>66.6</ele>
        <time>2016-06-18T10:52:08Z</time>
      </trkpt>
      <trkpt lat="47.90974" lon="0.22474">
        <ele>67.4</ele>
        <time>2016-06-18T10:52:16Z</time>
      </trkpt>
      <trkpt lat="47.90979" lon="0.22462">
        <ele>66.5</ele>
        <time>2016-06-18T10:52:25Z</time>
      </trkpt>
      <trkpt lat="47.90983" lon="0.22448">
        <ele>66.4</ele>
        <time>2016-06-18T10:52:33Z</time>
      </trkpt>
      <trkpt lat="47.90987" lon="0.22434">
        <ele>66.3</ele>
        <time>2016-06-18T10:52:41Z</time>
      </trkpt>
      <trkpt lat="47.90993" lon="0.22423">
        <ele>65</ele>
        <time>2016-06-18T10:52:49Z</time>
      </trkpt>
      <trkpt lat="47.90998" lon="0.22412">
        <ele>64.1</ele>
        <time>2016-06-18T10:52:58Z</time>
      </trkpt>
      <trkpt lat="47.91001" lon="0.22399">
        <ele>65.3</ele>
        <time>2016-06-18T10:53:06Z</time>
      </trkpt>
      <trkpt lat="47.91001" lon="0.22385">
        <ele>63.4</ele>
        <time>2016-06-18T10:53:14Z</time>
      </trkpt>
      <trkpt lat="47.91" lon="0.2237">
        <ele>63.2</ele>
        <time>2016-06-18T10:53:20Z</time>
      </trkpt>
      <trkpt lat="47.91003" lon="0.22355">
        <ele>62.5</ele>
        <time>2016-06-18T10:53:27Z</time>
      </trkpt>
      <trkpt lat="47.9101" lon="0.22343">
        <ele>62.7</ele>
        <time>2016-06-18T10:53:36Z</time>
      </trkpt>
      <trkpt lat="47.91015" lon="0.22331">
        <ele>62.8</ele>
        <time>2016-06-18T10:53:43Z</time>
      </trkpt>
      <trkpt lat="47.9102" lon="0.22319">
        <ele>62.2</ele>
        <time>2016-06-18T10:53:52Z</time>
      </trkpt>
      <trkpt lat="47.91024" lon="0.22306">
        <ele>62</ele>
        <time>2016-06-18T10:54:01Z</time>
      </trkpt>
      <trkpt lat="47.91029" lon="0.22294">
        <ele>61.9</ele>
        <time>2016-06-18T10:54:10Z</time>
      </trkpt>
      <trkpt lat="47.91027" lon="0.2228">
        <ele>61.7</ele>
        <time>2016-06-18T10:54:25Z</time>
      </trkpt>
      <trkpt lat="47.91024" lon="0.22266">
        <ele>61.9</ele>
        <time>2016-06-18T10:54:34Z</time>
      </trkpt>
      <trkpt lat="47.91024" lon="0.22252">
        <ele>61.5</ele>
        <time>2016-06-18T10:54:44Z</time>
      </trkpt>
      <trkpt lat="47.91022" lon="0.22239">
        <ele>61.5</ele>
        <time>2016-06-18T10:54:51Z</time>
      </trkpt>
      <trkpt lat="47.91019" lon="0.22224">
        <ele>61.5</ele>
        <time>2016-06-18T10:54:58Z</time>
      </trkpt>
      <trkpt lat="47.91016" lon="0.22211">
        <ele>61.3</ele>
        <time>2016-06-18T10:55:05Z</time>
      </trkpt>
      <trkpt lat="47.91013" lon="0.22198">
        <ele>60.9</ele>
        <time>2016-06-18T10:55:14Z</time>
      </trkpt>
      <trkpt lat="47.91011" lon="0.22185">
        <ele>61</ele>
        <time>2016-06-18T10:55:24Z</time>
      </trkpt>
      <trkpt lat="47.91007" lon="0.22171">
        <ele>62.3</ele>
        <time>2016-06-18T10:55:31Z</time>
      </trkpt>
      <trkpt lat="47.91004" lon="0.22157">
        <ele>61.9</ele>
        <time>2016-06-18T10:55:38Z</time>
      </trkpt>
      <trkpt lat="47.91001" lon="0.22144">
        <ele>61.1</ele>
        <time>2016-06-18T10:55:44Z</time>
      </trkpt>
      <trkpt lat="47.90998" lon="0.22128">
        <ele>61.4</ele>
        <time>2016-06-18T10:55:52Z</time>
      </trkpt>
      <trkpt lat="47.91" lon="0.22115">
        <ele>61.4</ele>
        <time>2016-06-18T10:56:17Z</time>
      </trkpt>
      <trkpt lat="47.90999" lon="0.22101">
        <ele>61.1</ele>
        <time>2016-06-18T10:57:36Z</time>
      </trkpt>
      <trkpt lat="47.90996" lon="0.22088">
        <ele>61.2</ele>
        <time>2016-06-18T10:57:46Z</time>
      </trkpt>
      <trkpt lat="47.90993" lon="0.22075">
        <ele>61.3</ele>
        <time>2016-06-18T10:57:56Z</time>
      </trkpt>
      <trkpt lat="47.90991" lon="0.2206">
        <ele>61.2</ele>
        <time>2016-06-18T10:58:05Z</time>
      </trkpt>
      <trkpt lat="47.90989" lon="0.22046">
        <ele>61.1</ele>
        <time>2016-06-18T10:58:13Z</time>
      </trkpt>
      <trkpt lat="47.90987" lon="0.22033">
        <ele>61.1</ele>
        <time>2016-06-18T10:58:21Z</time>
      </trkpt>
      <trkpt lat="47.90986" lon="0.22019">
        <ele>61.1</ele>
        <time>2016-06-18T10:58:29Z</time>
      </trkpt>
      <trkpt lat="47.90984" lon="0.22005">
        <ele>61.3</ele>
        <time>2016-06-18T10:58:37Z</time>
      </trkpt>
      <trkpt lat="47.90982" lon="0.2199">
        <ele>62.3</ele>
        <time>2016-06-18T10:58:44Z</time>
      </trkpt>
      <trkpt lat="47.90979" lon="0.21978">
        <ele>62.5</ele>
        <time>2016-06-18T10:58:49Z</time>
      </trkpt>
      <trkpt lat="47.90977" lon="0.21964">
        <ele>62.3</ele>
        <time>2016-06-18T10:58:55Z</time>
      </trkpt>
      <trkpt lat="47.90975" lon="0.21949">
        <ele>61.8</ele>
        <time>2016-06-18T10:59:02Z</time>
      </trkpt>
      <trkpt lat="47.90976" lon="0.21934">
        <ele>62.1</ele>
        <time>2016-06-18T10:59:11Z</time>
      </trkpt>
      <trkpt lat="47.90975" lon="0.21918">
        <ele>62.3</ele>
        <time>2016-06-18T10:59:18Z</time>
      </trkpt>
      <trkpt lat="47.90972" lon="0.21904">
        <ele>62.1</ele>
        <time>2016-06-18T10:59:25Z</time>
      </trkpt>
      <trkpt lat="47.9097" lon="0.21889">
        <ele>61.8</ele>
        <time>2016-06-18T10:59:33Z</time>
      </trkpt>
      <trkpt lat="47.90969" lon="0.21875">
        <ele>60.8</ele>
        <time>2016-06-18T10:59:41Z</time>
      </trkpt>
      <trkpt lat="47.90967" lon="0.2186">
        <ele>60.3</ele>
        <time>2016-06-18T10:59:48Z</time>
      </trkpt>
      <trkpt lat="47.90968" lon="0.21845">
        <ele>60.3</ele>
        <time>2016-06-18T10:59:58Z</time>
      </trkpt>
      <trkpt lat="47.90967" lon="0.2183">
        <ele>60.7</ele>
        <time>2016-06-18T11:00:08Z</time>
      </trkpt>
      <trkpt lat="47.90966" lon="0.21816">
        <ele>60.3</ele>
        <time>2016-06-18T11:00:15Z</time>
      </trkpt>
      <trkpt lat="47.90966" lon="0.21801">
        <ele>60</ele>
        <time>2016-06-18T11:00:23Z</time>
      </trkpt>
      <trkpt lat="47.90965" lon="0.21786">
        <ele>59.7</ele>
        <time>2016-06-18T11:00:30Z</time>
      </trkpt>
      <trkpt lat="47.90964" lon="0.2177">
        <ele>59.4</ele>
        <time>2016-06-18T11:00:39Z</time>
      </trkpt>
      <trkpt lat="47.90963" lon="0.21755">
        <ele>59.3</ele>
        <time>2016-06-18T11:00:46Z</time>
      </trkpt>
      <trkpt lat="47.90963" lon="0.21741">
        <ele>59.3</ele>
        <time>2016-06-18T11:00:52Z</time>
      </trkpt>
      <trkpt lat="47.90962" lon="0.21727">
        <ele>59.3</ele>
        <time>2016-06-18T11:01:01Z</time>
      </trkpt>
      <trkpt lat="47.90961" lon="0.21712">
        <ele>59.9</ele>
        <time>2016-06-18T11:01:08Z</time>
      </trkpt>
      <trkpt lat="47.9096" lon="0.21697">
        <ele>59.7</ele>
        <time>2016-06-18T11:01:16Z</time>
      </trkpt>
      <trkpt lat="47.90962" lon="0.21683">
        <ele>60.7</ele>
        <time>2016-06-18T11:01:24Z</time>
      </trkpt>
      <trkpt lat="47.90959" lon="0.2167">
        <ele>59.6</ele>
        <time>2016-06-18T11:01:49Z</time>
      </trkpt>
      <trkpt lat="47.90957" lon="0.21656">
        <ele>59.6</ele>
        <time>2016-06-18T11:01:57Z</time>
      </trkpt>
      <trkpt lat="47.90954" lon="0.21642">
        <ele>59</ele>
        <time>2016-06-18T11:02:05Z</time>
      </trkpt>
      <trkpt lat="47.9095" lon="0.21629">
        <ele>58.9</ele>
        <time>2016-06-18T11:02:12Z</time>
      </trkpt>
      <trkpt lat="47.90948" lon="0.21616">
        <ele>58.7</ele>
        <time>2016-06-18T11:02:20Z</time>
      </trkpt>
      <trkpt lat="47.90945" lon="0.21602">
        <ele>59.6</ele>
        <time>2016-06-18T11:02:27Z</time>
      </trkpt>
      <trkpt lat="47.90942" lon="0.21588">
        <ele>59.1</ele>
        <time>2016-06-18T11:02:34Z</time>
      </trkpt>
      <trkpt lat="47.9094" lon="0.21573">
        <ele>58.1</ele>
        <time>2016-06-18T11:02:42Z</time>
      </trkpt>
      <trkpt lat="47.9094" lon="0.21559">
        <ele>58.8</ele>
        <time>2016-06-18T11:02:50Z</time>
      </trkpt>
      <trkpt lat="47.90939" lon="0.21543">
        <ele>58.3</ele>
        <time>2016-06-18T11:02:58Z</time>
      </trkpt>
      <trkpt lat="47.90936" lon="0.21528">
        <ele>58</ele>
        <time>2016-06-18T11:03:06Z</time>
      </trkpt>
      <trkpt lat="47.90935" lon="0.21514">
        <ele>58</ele>
        <time>2016-06-18T11:03:14Z</time>
      </trkpt>
      <trkpt lat="47.90932" lon="0.21499">
        <ele>58.1</ele>
        <time>2016-06-18T11:03:21Z</time>
      </trkpt>
      <trkpt lat="47.9093" lon="0.21486">
        <ele>58.1</ele>
        <time>2016-06-18T11:03:28Z</time>
      </trkpt>
      <trkpt lat="47.90928" lon="0.21472">
        <ele>58</ele>
        <time>2016-06-18T11:03:35Z</time>
      </trkpt>
      <trkpt lat="47.90927" lon="0.21458">
        <ele>57.7</ele>
        <time>2016-06-18T11:03:42Z</time>
      </trkpt>
      <trkpt lat="47.90924" lon="0.21445">
        <ele>57.4</ele>
        <time>2016-06-18T11:03:49Z</time>
      </trkpt>
      <trkpt lat="47.90923" lon="0.21431">
        <ele>57.8</ele>
        <time>2016-06-18T11:03:57Z</time>
      </trkpt>
      <trkpt lat="47.90921" lon="0.21416">
        <ele>58</ele>
        <time>2016-06-18T11:04:05Z</time>
      </trkpt>
      <trkpt lat="47.90921" lon="0.214">
        <ele>57.7</ele>
        <time>2016-06-18T11:04:13Z</time>
      </trkpt>
      <trkpt lat="47.90919" lon="0.21387">
        <ele>58.1</ele>
        <time>2016-06-18T11:04:20Z</time>
      </trkpt>
      <trkpt lat="47.90918" lon="0.21372">
        <ele>57.8</ele>
        <time>2016-06-18T11:04:27Z</time>
      </trkpt>
      <trkpt lat="47.90918" lon="0.21358">
        <ele>58.6</ele>
        <time>2016-06-18T11:04:34Z</time>
      </trkpt>
      <trkpt lat="47.90917" lon="0.21345">
        <ele>57.4</ele>
        <time>2016-06-18T11:04:41Z</time>
      </trkpt>
      <trkpt lat="47.90919" lon="0.2133">
        <ele>56.8</ele>
        <time>2016-06-18T11:04:55Z</time>
      </trkpt>
      <trkpt lat="47.90918" lon="0.21317">
        <ele>56.7</ele>
        <time>2016-06-18T11:05:02Z</time>
      </trkpt>
      <trkpt lat="47.90918" lon="0.21302">
        <ele>56.2</ele>
        <time>2016-06-18T11:05:09Z</time>
      </trkpt>
      <trkpt lat="47.90916" lon="0.21287">
        <ele>56.7</ele>
        <time>2016-06-18T11:05:16Z</time>
      </trkpt>
      <trkpt lat="47.90916" lon="0.21273">
        <ele>56.6</ele>
        <time>2016-06-18T11:05:23Z</time>
      </trkpt>
      <trkpt lat="47.90917" lon="0.21258">
        <ele>56.3</ele>
        <time>2016-06-18T11:05:31Z</time>
      </trkpt>
      <trkpt lat="47.90916" lon="0.21243">
        <ele>57</ele>
        <time>2016-06-18T11:05:38Z</time>
      </trkpt>
      <trkpt lat="47.90915" lon="0.21229">
        <ele>57.2</ele>
        <time>2016-06-18T11:05:45Z</time>
      </trkpt>
      <trkpt lat="47.90915" lon="0.21214">
        <ele>56.4</ele>
        <time>2016-06-18T11:05:52Z</time>
      </trkpt>
      <trkpt lat="47.90915" lon="0.212">
        <ele>55.9</ele>
        <time>2016-06-18T11:05:58Z</time>
      </trkpt>
      <trkpt lat="47.90917" lon="0.21186">
        <ele>56</ele>
        <time>2016-06-18T11:06:07Z</time>
      </trkpt>
      <trkpt lat="47.90922" lon="0.21173">
        <ele>55.7</ele>
        <time>2016-06-18T11:06:17Z</time>
      </trkpt>
      <trkpt lat="47.90926" lon="0.21159">
        <ele>56</ele>
        <time>2016-06-18T11:06:25Z</time>
      </trkpt>
      <trkpt lat="47.90931" lon="0.21147">
        <ele>55.5</ele>
        <time>2016-06-18T11:06:32Z</time>
      </trkpt>
      <trkpt lat="47.90936" lon="0.21134">
        <ele>55.8</ele>
        <time>2016-06-18T11:06:39Z</time>
      </trkpt>
      <trkpt lat="47.90941" lon="0.2112">
        <ele>55.3</ele>
        <time>2016-06-18T11:06:46Z</time>
      </trkpt>
      <trkpt lat="47.90947" lon="0.21109">
        <ele>54.3</ele>
        <time>2016-06-18T11:06:55Z</time>
      </trkpt>
      <trkpt lat="47.90954" lon="0.21099">
        <ele>54.2</ele>
        <time>2016-06-18T11:07:04Z</time>
      </trkpt>
      <trkpt lat="47.9096" lon="0.21089">
        <ele>53.7</ele>
        <time>2016-06-18T11:07:11Z</time>
      </trkpt>
      <trkpt lat="47.90968" lon="0.2108">
        <ele>53.5</ele>
        <time>2016-06-18T11:07:17Z</time>
      </trkpt>
      <trkpt lat="47.90976" lon="0.21069">
        <ele>53.2</ele>
        <time>2016-06-18T11:07:24Z</time>
      </trkpt>
      <trkpt lat="47.90984" lon="0.21062">
        <ele>53</ele>
        <time>2016-06-18T11:07:31Z</time>
      </trkpt>
      <trkpt lat="47.90992" lon="0.21052">
        <ele>52.8</ele>
        <time>2016-06-18T11:07:38Z</time>
      </trkpt>
      <trkpt lat="47.91001" lon="0.21044">
        <ele>52.1</ele>
        <time>2016-06-18T11:07:46Z</time>
      </trkpt>
      <trkpt lat="47.91006" lon="0.21033">
        <ele>52.1</ele>
        <time>2016-06-18T11:07:52Z</time>
      </trkpt>
      <trkpt lat="47.91011" lon="0.21022">
        <ele>51.8</ele>
        <time>2016-06-18T11:07:59Z</time>
      </trkpt>
      <trkpt lat="47.91016" lon="0.2101">
        <ele>51.9</ele>
        <time>2016-06-18T11:08:07Z</time>
      </trkpt>
      <trkpt lat="47.91016" lon="0.20996">
        <ele>52.2</ele>
        <time>2016-06-18T11:08:13Z</time>
      </trkpt>
      <trkpt lat="47.91019" lon="0.20982">
        <ele>51.6</ele>
        <time>2016-06-18T11:08:22Z</time>
      </trkpt>
      <trkpt lat="47.91022" lon="0.20968">
        <ele>50.9</ele>
        <time>2016-06-18T11:08:31Z</time>
      </trkpt>
      <trkpt lat="47.91024" lon="0.20954">
        <ele>51.6</ele>
        <time>2016-06-18T11:08:38Z</time>
      </trkpt>
      <trkpt lat="47.91025" lon="0.20941">
        <ele>51.4</ele>
        <time>2016-06-18T11:08:45Z</time>
      </trkpt>
      <trkpt lat="47.91026" lon="0.20926">
        <ele>51</ele>
        <time>2016-06-18T11:08:53Z</time>
      </trkpt>
      <trkpt lat="47.91026" lon="0.20912">
        <ele>50.8</ele>
        <time>2016-06-18T11:08:59Z</time>
      </trkpt>
      <trkpt lat="47.91025" lon="0.20898">
        <ele>50.7</ele>
        <time>2016-06-18T11:09:06Z</time>
      </trkpt>
      <trkpt lat="47.91023" lon="0.20885">
        <ele>50.8</ele>
        <time>2016-06-18T11:09:14Z</time>
      </trkpt>
      <trkpt lat="47.91021" lon="0.20872">
        <ele>50.4</ele>
        <time>2016-06-18T11:09:21Z</time>
      </trkpt>
      <trkpt lat="47.91017" lon="0.20859">
        <ele>50.9</ele>
        <time>2016-06-18T11:09:29Z</time>
      </trkpt>
      <trkpt lat="47.91014" lon="0.20846">
        <ele>50.9</ele>
        <time>2016-06-18T11:09:35Z</time>
      </trkpt>
      <trkpt lat="47.9101" lon="0.20833">
        <ele>51.4</ele>
        <time>2016-06-18T11:09:41Z</time>
      </trkpt>
      <trkpt lat="47.91006" lon="0.20819">
        <ele>50.2</ele>
        <time>2016-06-18T11:09:49Z</time>
      </trkpt>
      <trkpt lat="47.91002" lon="0.20806">
        <ele>49.3</ele>
        <time>2016-06-18T11:09:56Z</time>
      </trkpt>
      <trkpt lat="47.91001" lon="0.20792">
        <ele>50.6</ele>
        <time>2016-06-18T11:10:04Z</time>
      </trkpt>
      <trkpt lat="47.91003" lon="0.20777">
        <ele>51.3</ele>
        <time>2016-06-18T11:10:47Z</time>
      </trkpt>
      <trkpt lat="47.91011" lon="0.2077">
        <ele>51.6</ele>
        <time>2016-06-18T11:10:55Z</time>
      </trkpt>
      <trkpt lat="47.9102" lon="0.20763">
        <ele>50.7</ele>
        <time>2016-06-18T11:11:02Z</time>
      </trkpt>
      <trkpt lat="47.91029" lon="0.20759">
        <ele>50</ele>
        <time>2016-06-18T11:11:10Z</time>
      </trkpt>
      <trkpt lat="47.91037" lon="0.20754">
        <ele>49.8</ele>
        <time>2016-06-18T11:11:17Z</time>
      </trkpt>
      <trkpt lat="47.91046" lon="0.20748">
        <ele>49.4</ele>
        <time>2016-06-18T11:11:25Z</time>
      </trkpt>
      <trkpt lat="47.91054" lon="0.20741">
        <ele>50</ele>
        <time>2016-06-18T11:11:32Z</time>
      </trkpt>
      <trkpt lat="47.91062" lon="0.20735">
        <ele>49.7</ele>
        <time>2016-06-18T11:11:39Z</time>
      </trkpt>
      <trkpt lat="47.9107" lon="0.20728">
        <ele>50</ele>
        <time>2016-06-18T11:11:46Z</time>
      </trkpt>
      <trkpt lat="47.91079" lon="0.20721">
        <ele>50</ele>
        <time>2016-06-18T11:11:54Z</time>
      </trkpt>
      <trkpt lat="47.91087" lon="0.20714">
        <ele>49.9</ele>
        <time>2016-06-18T11:12:02Z</time>
      </trkpt>
      <trkpt lat="47.91096" lon="0.20709">
        <ele>49.7</ele>
        <time>2016-06-18T11:12:10Z</time>
      </trkpt>
      <trkpt lat="47.91105" lon="0.20704">
        <ele>49.5</ele>
        <time>2016-06-18T11:12:18Z</time>
      </trkpt>
      <trkpt lat="47.91114" lon="0.20699">
        <ele>49.5</ele>
        <time>2016-06-18T11:12:26Z</time>
      </trkpt>
      <trkpt lat="47.91122" lon="0.20694">
        <ele>49.5</ele>
        <time>2016-06-18T11:12:33Z</time>
      </trkpt>
      <trkpt lat="47.91131" lon="0.20689">
        <ele>49.3</ele>
        <time>2016-06-18T11:12:41Z</time>
      </trkpt>
      <trkpt lat="47.91139" lon="0.20683">
        <ele>49.3</ele>
        <time>2016-06-18T11:12:48Z</time>
      </trkpt>
      <trkpt lat="47.91148" lon="0.2068">
        <ele>49.8</ele>
        <time>2016-06-18T11:12:55Z</time>
      </trkpt>
      <trkpt lat="47.91157" lon="0.20675">
        <ele>49.3</ele>
        <time>2016-06-18T11:13:02Z</time>
      </trkpt>
      <trkpt lat="47.91166" lon="0.2067">
        <ele>49.3</ele>
        <time>2016-06-18T11:13:09Z</time>
      </trkpt>
      <trkpt lat="47.91174" lon="0.20666">
        <ele>49.9</ele>
        <time>2016-06-18T11:13:16Z</time>
      </trkpt>
      <trkpt lat="47.91183" lon="0.20659">
        <ele>50</ele>
        <time>2016-06-18T11:13:23Z</time>
      </trkpt>
      <trkpt lat="47.91191" lon="0.20652">
        <ele>50.4</ele>
        <time>2016-06-18T11:13:32Z</time>
      </trkpt>
      <trkpt lat="47.91199" lon="0.20645">
        <ele>50.2</ele>
        <time>2016-06-18T11:13:40Z</time>
      </trkpt>
      <trkpt lat="47.91208" lon="0.20636">
        <ele>49.9</ele>
        <time>2016-06-18T11:13:47Z</time>
      </trkpt>
      <trkpt lat="47.91215" lon="0.20628">
        <ele>49.2</ele>
        <time>2016-06-18T11:13:53Z</time>
      </trkpt>
      <trkpt lat="47.91223" lon="0.2062">
        <ele>48.7</ele>
        <time>2016-06-18T11:14:00Z</time>
      </trkpt>
      <trkpt lat="47.91231" lon="0.20612">
        <ele>48.4</ele>
        <time>2016-06-18T11:14:08Z</time>
      </trkpt>
      <trkpt lat="47.91239" lon="0.20602">
        <ele>49.1</ele>
        <time>2016-06-18T11:14:16Z</time>
      </trkpt>
      <trkpt lat="47.91248" lon="0.20594">
        <ele>49.9</ele>
        <time>2016-06-18T11:14:24Z</time>
      </trkpt>
      <trkpt lat="47.91255" lon="0.20586">
        <ele>49.6</ele>
        <time>2016-06-18T11:14:32Z</time>
      </trkpt>
      <trkpt lat="47.91263" lon="0.20579">
        <ele>49</ele>
        <time>2016-06-18T11:14:42Z</time>
      </trkpt>
      <trkpt lat="47.91271" lon="0.2057">
        <ele>48.6</ele>
        <time>2016-06-18T11:14:50Z</time>
      </trkpt>
      <trkpt lat="47.91279" lon="0.20562">
        <ele>48.7</ele>
        <time>2016-06-18T11:15:11Z</time>
      </trkpt>
      <trkpt lat="47.91286" lon="0.20552">
        <ele>49.1</ele>
        <time>2016-06-18T11:15:17Z</time>
      </trkpt>
      <trkpt lat="47.91292" lon="0.20542">
        <ele>48.8</ele>
        <time>2016-06-18T11:15:23Z</time>
      </trkpt>
      <trkpt lat="47.91301" lon="0.20535">
        <ele>48.6</ele>
        <time>2016-06-18T11:15:37Z</time>
      </trkpt>
      <trkpt lat="47.91308" lon="0.20526">
        <ele>48.6</ele>
        <time>2016-06-18T11:15:46Z</time>
      </trkpt>
      <trkpt lat="47.91317" lon="0.20519">
        <ele>49.4</ele>
        <time>2016-06-18T11:16:15Z</time>
      </trkpt>
      <trkpt lat="47.91324" lon="0.2051">
        <ele>48.2</ele>
        <time>2016-06-18T11:16:22Z</time>
      </trkpt>
      <trkpt lat="47.91331" lon="0.20501">
        <ele>47.8</ele>
        <time>2016-06-18T11:16:29Z</time>
      </trkpt>
      <trkpt lat="47.91338" lon="0.20489">
        <ele>48.5</ele>
        <time>2016-06-18T11:16:37Z</time>
      </trkpt>
      <trkpt lat="47.91344" lon="0.20479">
        <ele>48</ele>
        <time>2016-06-18T11:16:44Z</time>
      </trkpt>
      <trkpt lat="47.91349" lon="0.20467">
        <ele>48.5</ele>
        <time>2016-06-18T11:16:50Z</time>
      </trkpt>
      <trkpt lat="47.91354" lon="0.20455">
        <ele>48</ele>
        <time>2016-06-18T11:16:57Z</time>
      </trkpt>
      <trkpt lat="47.91358" lon="0.20443">
        <ele>47.6</ele>
        <time>2016-06-18T11:17:05Z</time>
      </trkpt>
      <trkpt lat="47.91366" lon="0.20433">
        <ele>47.5</ele>
        <time>2016-06-18T11:17:16Z</time>
      </trkpt>
      <trkpt lat="47.91371" lon="0.20422">
        <ele>47.7</ele>
        <time>2016-06-18T11:17:24Z</time>
      </trkpt>
      <trkpt lat="47.91375" lon="0.20409">
        <ele>48.8</ele>
        <time>2016-06-18T11:17:32Z</time>
      </trkpt>
      <trkpt lat="47.91381" lon="0.20396">
        <ele>48.7</ele>
        <time>2016-06-18T11:17:39Z</time>
      </trkpt>
      <trkpt lat="47.91385" lon="0.20382">
        <ele>47.5</ele>
        <time>2016-06-18T11:17:46Z</time>
      </trkpt>
      <trkpt lat="47.9139" lon="0.20369">
        <ele>47.9</ele>
        <time>2016-06-18T11:17:54Z</time>
      </trkpt>
      <trkpt lat="47.91395" lon="0.20358">
        <ele>47.8</ele>
        <time>2016-06-18T11:18:02Z</time>
      </trkpt>
      <trkpt lat="47.91401" lon="0.20347">
        <ele>47.9</ele>
        <time>2016-06-18T11:18:10Z</time>
      </trkpt>
      <trkpt lat="47.91407" lon="0.20336">
        <ele>47</ele>
        <time>2016-06-18T11:18:17Z</time>
      </trkpt>
      <trkpt lat="47.91413" lon="0.20324">
        <ele>47.1</ele>
        <time>2016-06-18T11:18:25Z</time>
      </trkpt>
      <trkpt lat="47.91419" lon="0.20313">
        <ele>47.1</ele>
        <time>2016-06-18T11:18:32Z</time>
      </trkpt>
      <trkpt lat="47.91424" lon="0.203">
        <ele>47.5</ele>
        <time>2016-06-18T11:18:39Z</time>
      </trkpt>
      <trkpt lat="47.91431" lon="0.20288">
        <ele>47.2</ele>
        <time>2016-06-18T11:18:46Z</time>
      </trkpt>
      <trkpt lat="47.91438" lon="0.20279">
        <ele>47.3</ele>
        <time>2016-06-18T11:18:54Z</time>
      </trkpt>
      <trkpt lat="47.91446" lon="0.20271">
        <ele>47.2</ele>
        <time>2016-06-18T11:19:02Z</time>
      </trkpt>
      <trkpt lat="47.91454" lon="0.20261">
        <ele>47.1</ele>
        <time>2016-06-18T11:19:10Z</time>
      </trkpt>
      <trkpt lat="47.9146" lon="0.20251">
        <ele>46.8</ele>
        <time>2016-06-18T11:19:18Z</time>
      </trkpt>
      <trkpt lat="47.91467" lon="0.20242">
        <ele>47.4</ele>
        <time>2016-06-18T11:19:25Z</time>
      </trkpt>
      <trkpt lat="47.91475" lon="0.20233">
        <ele>47.7</ele>
        <time>2016-06-18T11:19:33Z</time>
      </trkpt>
      <trkpt lat="47.91483" lon="0.20225">
        <ele>47.8</ele>
        <time>2016-06-18T11:19:40Z</time>
      </trkpt>
      <trkpt lat="47.9149" lon="0.20216">
        <ele>47.5</ele>
        <time>2016-06-18T11:19:47Z</time>
      </trkpt>
      <trkpt lat="47.91498" lon="0.20208">
        <ele>47.2</ele>
        <time>2016-06-18T11:19:55Z</time>
      </trkpt>
      <trkpt lat="47.91506" lon="0.20198">
        <ele>46.8</ele>
        <time>2016-06-18T11:20:04Z</time>
      </trkpt>
      <trkpt lat="47.91514" lon="0.20191">
        <ele>46.2</ele>
        <time>2016-06-18T11:20:12Z</time>
      </trkpt>
      <trkpt lat="47.91522" lon="0.20183">
        <ele>46.6</ele>
        <time>2016-06-18T11:20:20Z</time>
      </trkpt>
      <trkpt lat="47.91531" lon="0.20179">
        <ele>46.7</ele>
        <time>2016-06-18T11:20:29Z</time>
      </trkpt>
      <trkpt lat="47.91541" lon="0.20173">
        <ele>47.3</ele>
        <time>2016-06-18T11:20:38Z</time>
      </trkpt>
      <trkpt lat="47.91549" lon="0.20166">
        <ele>47.1</ele>
        <time>2016-06-18T11:20:45Z</time>
      </trkpt>
      <trkpt lat="47.91558" lon="0.20163">
        <ele>46.9</ele>
        <time>2016-06-18T11:20:52Z</time>
      </trkpt>
      <trkpt lat="47.91568" lon="0.20161">
        <ele>47.6</ele>
        <time>2016-06-18T11:21:00Z</time>
      </trkpt>
      <trkpt lat="47.91577" lon="0.20161">
        <ele>46.7</ele>
        <time>2016-06-18T11:21:08Z</time>
      </trkpt>
      <trkpt lat="47.91587" lon="0.20161">
        <ele>46.1</ele>
        <time>2016-06-18T11:21:16Z</time>
      </trkpt>
      <trkpt lat="47.91595" lon="0.20163">
        <ele>46.2</ele>
        <time>2016-06-18T11:21:23Z</time>
      </trkpt>
      <trkpt lat="47.91604" lon="0.2017">
        <ele>46.4</ele>
        <time>2016-06-18T11:21:31Z</time>
      </trkpt>
      <trkpt lat="47.91614" lon="0.20176">
        <ele>46.9</ele>
        <time>2016-06-18T11:21:38Z</time>
      </trkpt>
      <trkpt lat="47.91622" lon="0.20183">
        <ele>46.6</ele>
        <time>2016-06-18T11:21:44Z</time>
      </trkpt>
      <trkpt lat="47.91627" lon="0.20193">
        <ele>46.6</ele>
        <time>2016-06-18T11:21:52Z</time>
      </trkpt>
      <trkpt lat="47.91633" lon="0.20206">
        <ele>46.1</ele>
        <time>2016-06-18T11:22:01Z</time>
      </trkpt>
      <trkpt lat="47.91637" lon="0.20219">
        <ele>46.2</ele>
        <time>2016-06-18T11:22:10Z</time>
      </trkpt>
      <trkpt lat="47.91643" lon="0.20232">
        <ele>46.2</ele>
        <time>2016-06-18T11:22:19Z</time>
      </trkpt>
      <trkpt lat="47.91649" lon="0.20243">
        <ele>46.6</ele>
        <time>2016-06-18T11:22:27Z</time>
      </trkpt>
      <trkpt lat="47.91656" lon="0.20255">
        <ele>45.8</ele>
        <time>2016-06-18T11:22:36Z</time>
      </trkpt>
      <trkpt lat="47.91664" lon="0.20263">
        <ele>46.2</ele>
        <time>2016-06-18T11:22:42Z</time>
      </trkpt>
      <trkpt lat="47.91672" lon="0.2027">
        <ele>46</ele>
        <time>2016-06-18T11:22:50Z</time>
      </trkpt>
      <trkpt lat="47.91682" lon="0.20273">
        <ele>46.2</ele>
        <time>2016-06-18T11:22:58Z</time>
      </trkpt>
      <trkpt lat="47.91692" lon="0.20273">
        <ele>46.5</ele>
        <time>2016-06-18T11:23:07Z</time>
      </trkpt>
      <trkpt lat="47.91701" lon="0.20272">
        <ele>46.1</ele>
        <time>2016-06-18T11:23:15Z</time>
      </trkpt>
      <trkpt lat="47.91711" lon="0.20273">
        <ele>46.5</ele>
        <time>2016-06-18T11:23:24Z</time>
      </trkpt>
      <trkpt lat="47.91721" lon="0.20275">
        <ele>45.9</ele>
        <time>2016-06-18T11:23:35Z</time>
      </trkpt>
      <trkpt lat="47.9173" lon="0.2028">
        <ele>45.9</ele>
        <time>2016-06-18T11:23:40Z</time>
      </trkpt>
      <trkpt lat="47.91738" lon="0.20287">
        <ele>46.4</ele>
        <time>2016-06-18T11:23:46Z</time>
      </trkpt>
      <trkpt lat="47.91745" lon="0.20296">
        <ele>46.2</ele>
        <time>2016-06-18T11:23:55Z</time>
      </trkpt>
      <trkpt lat="47.91752" lon="0.20307">
        <ele>46.4</ele>
        <time>2016-06-18T11:24:04Z</time>
      </trkpt>
      <trkpt lat="47.9176" lon="0.20315">
        <ele>46.6</ele>
        <time>2016-06-18T11:24:10Z</time>
      </trkpt>
      <trkpt lat="47.91767" lon="0.20325">
        <ele>46.4</ele>
        <time>2016-06-18T11:24:18Z</time>
      </trkpt>
      <trkpt lat="47.91775" lon="0.20332">
        <ele>46.6</ele>
        <time>2016-06-18T11:24:24Z</time>
      </trkpt>
      <trkpt lat="47.91783" lon="0.20342">
        <ele>47.8</ele>
        <time>2016-06-18T11:24:31Z</time>
      </trkpt>
      <trkpt lat="47.91787" lon="0.20354">
        <ele>46.7</ele>
        <time>2016-06-18T11:24:40Z</time>
      </trkpt>
      <trkpt lat="47.91795" lon="0.20361">
        <ele>46.2</ele>
        <time>2016-06-18T11:24:47Z</time>
      </trkpt>
      <trkpt lat="47.918" lon="0.20373">
        <ele>46.5</ele>
        <time>2016-06-18T11:24:57Z</time>
      </trkpt>
      <trkpt lat="47.91808" lon="0.20379">
        <ele>47.3</ele>
        <time>2016-06-18T11:25:02Z</time>
      </trkpt>
      <trkpt lat="47.91816" lon="0.20385">
        <ele>47.6</ele>
        <time>2016-06-18T11:25:09Z</time>
      </trkpt>
      <trkpt lat="47.91824" lon="0.20392">
        <ele>46.1</ele>
        <time>2016-06-18T11:25:17Z</time>
      </trkpt>
      <trkpt lat="47.91831" lon="0.20402">
        <ele>46.7</ele>
        <time>2016-06-18T11:25:24Z</time>
      </trkpt>
      <trkpt lat="47.91838" lon="0.20413">
        <ele>46.9</ele>
        <time>2016-06-18T11:25:34Z</time>
      </trkpt>
      <trkpt lat="47.91847" lon="0.20423">
        <ele>47.1</ele>
        <time>2016-06-18T11:25:43Z</time>
      </trkpt>
      <trkpt lat="47.91853" lon="0.20434">
        <ele>47.6</ele>
        <time>2016-06-18T11:25:52Z</time>
      </trkpt>
      <trkpt lat="47.9186" lon="0.20445">
        <ele>47.4</ele>
        <time>2016-06-18T11:26:00Z</time>
      </trkpt>
      <trkpt lat="47.91867" lon="0.20456">
        <ele>47.4</ele>
        <time>2016-06-18T11:26:10Z</time>
      </trkpt>
      <trkpt lat="47.91875" lon="0.20462">
        <ele>47.4</ele>
        <time>2016-06-18T11:26:16Z</time>
      </trkpt>
      <trkpt lat="47.91884" lon="0.20467">
        <ele>47.3</ele>
        <time>2016-06-18T11:26:24Z</time>
      </trkpt>
      <trkpt lat="47.91893" lon="0.20471">
        <ele>47.3</ele>
        <time>2016-06-18T11:26:32Z</time>
      </trkpt>
      <trkpt lat="47.91903" lon="0.20472">
        <ele>48</ele>
        <time>2016-06-18T11:26:40Z</time>
      </trkpt>
      <trkpt lat="47.91913" lon="0.20475">
        <ele>48.5</ele>
        <time>2016-06-18T11:26:47Z</time>
      </trkpt>
      <trkpt lat="47.91922" lon="0.20477">
        <ele>47.5</ele>
        <time>2016-06-18T11:26:55Z</time>
      </trkpt>
      <trkpt lat="47.91931" lon="0.20478">
        <ele>47.4</ele>
        <time>2016-06-18T11:27:03Z</time>
      </trkpt>
      <trkpt lat="47.91941" lon="0.20475">
        <ele>48</ele>
        <time>2016-06-18T11:27:11Z</time>
      </trkpt>
      <trkpt lat="47.91949" lon="0.2047">
        <ele>47.1</ele>
        <time>2016-06-18T11:27:18Z</time>
      </trkpt>
      <trkpt lat="47.91959" lon="0.20463">
        <ele>47.8</ele>
        <time>2016-06-18T11:27:26Z</time>
      </trkpt>
      <trkpt lat="47.91966" lon="0.20454">
        <ele>47.1</ele>
        <time>2016-06-18T11:27:34Z</time>
      </trkpt>
      <trkpt lat="47.91975" lon="0.20447">
        <ele>47</ele>
        <time>2016-06-18T11:27:41Z</time>
      </trkpt>
      <trkpt lat="47.91983" lon="0.20438">
        <ele>47.2</ele>
        <time>2016-06-18T11:27:49Z</time>
      </trkpt>
      <trkpt lat="47.91992" lon="0.20433">
        <ele>47.5</ele>
        <time>2016-06-18T11:27:58Z</time>
      </trkpt>
      <trkpt lat="47.92002" lon="0.20428">
        <ele>47.7</ele>
        <time>2016-06-18T11:28:06Z</time>
      </trkpt>
      <trkpt lat="47.92011" lon="0.20424">
        <ele>47.4</ele>
        <time>2016-06-18T11:28:14Z</time>
      </trkpt>
      <trkpt lat="47.9202" lon="0.20422">
        <ele>48</ele>
        <time>2016-06-18T11:28:21Z</time>
      </trkpt>
      <trkpt lat="47.9203" lon="0.2042">
        <ele>47.2</ele>
        <time>2016-06-18T11:28:29Z</time>
      </trkpt>
      <trkpt lat="47.9204" lon="0.20419">
        <ele>47.2</ele>
        <time>2016-06-18T11:28:37Z</time>
      </trkpt>
      <trkpt lat="47.92049" lon="0.20419">
        <ele>47.8</ele>
        <time>2016-06-18T11:28:44Z</time>
      </trkpt>
      <trkpt lat="47.92058" lon="0.2042">
        <ele>47.7</ele>
        <time>2016-06-18T11:28:51Z</time>
      </trkpt>
      <trkpt lat="47.92067" lon="0.20417">
        <ele>47.7</ele>
        <time>2016-06-18T11:28:58Z</time>
      </trkpt>
      <trkpt lat="47.92077" lon="0.20419">
        <ele>47.4</ele>
        <time>2016-06-18T11:29:05Z</time>
      </trkpt>
      <trkpt lat="47.92086" lon="0.20419">
        <ele>47.4</ele>
        <time>2016-06-18T11:29:13Z</time>
      </trkpt>
      <trkpt lat="47.92096" lon="0.20421">
        <ele>47.5</ele>
        <time>2016-06-18T11:29:21Z</time>
      </trkpt>
      <trkpt lat="47.92105" lon="0.20424">
        <ele>47.5</ele>
        <time>2016-06-18T11:29:27Z</time>
      </trkpt>
      <trkpt lat="47.92113" lon="0.2043">
        <ele>47.8</ele>
        <time>2016-06-18T11:29:35Z</time>
      </trkpt>
      <trkpt lat="47.92121" lon="0.20439">
        <ele>47.8</ele>
        <time>2016-06-18T11:29:44Z</time>
      </trkpt>
      <trkpt lat="47.9213" lon="0.20446">
        <ele>47.9</ele>
        <time>2016-06-18T11:29:52Z</time>
      </trkpt>
      <trkpt lat="47.92139" lon="0.20453">
        <ele>47.5</ele>
        <time>2016-06-18T11:29:59Z</time>
      </trkpt>
      <trkpt lat="47.92148" lon="0.20462">
        <ele>48</ele>
        <time>2016-06-18T11:30:07Z</time>
      </trkpt>
      <trkpt lat="47.92155" lon="0.2047">
        <ele>48.1</ele>
        <time>2016-06-18T11:30:15Z</time>
      </trkpt>
      <trkpt lat="47.92163" lon="0.20478">
        <ele>47.7</ele>
        <time>2016-06-18T11:30:24Z</time>
      </trkpt>
      <trkpt lat="47.92173" lon="0.20477">
        <ele>48.5</ele>
        <time>2016-06-18T11:32:28Z</time>
      </trkpt>
      <trkpt lat="47.92181" lon="0.20471">
        <ele>48.2</ele>
        <time>2016-06-18T11:32:36Z</time>
      </trkpt>
      <trkpt lat="47.92189" lon="0.20463">
        <ele>48.1</ele>
        <time>2016-06-18T11:32:44Z</time>
      </trkpt>
      <trkpt lat="47.92197" lon="0.20455">
        <ele>48.2</ele>
        <time>2016-06-18T11:32:52Z</time>
      </trkpt>
      <trkpt lat="47.92205" lon="0.20447">
        <ele>48.1</ele>
        <time>2016-06-18T11:32:59Z</time>
      </trkpt>
      <trkpt lat="47.92213" lon="0.20439">
        <ele>48.7</ele>
        <time>2016-06-18T11:33:07Z</time>
      </trkpt>
      <trkpt lat="47.92221" lon="0.2043">
        <ele>48.1</ele>
        <time>2016-06-18T11:33:14Z</time>
      </trkpt>
      <trkpt lat="47.92229" lon="0.20422">
        <ele>48.3</ele>
        <time>2016-06-18T11:33:22Z</time>
      </trkpt>
      <trkpt lat="47.92236" lon="0.20414">
        <ele>47.9</ele>
        <time>2016-06-18T11:33:30Z</time>
      </trkpt>
      <trkpt lat="47.92243" lon="0.20405">
        <ele>48.2</ele>
        <time>2016-06-18T11:33:40Z</time>
      </trkpt>
      <trkpt lat="47.9225" lon="0.20395">
        <ele>48.6</ele>
        <time>2016-06-18T11:33:47Z</time>
      </trkpt>
      <trkpt lat="47.92257" lon="0.20385">
        <ele>47.8</ele>
        <time>2016-06-18T11:33:56Z</time>
      </trkpt>
      <trkpt lat="47.92264" lon="0.20376">
        <ele>47.2</ele>
        <time>2016-06-18T11:34:05Z</time>
      </trkpt>
      <trkpt lat="47.9227" lon="0.20365">
        <ele>47.1</ele>
        <time>2016-06-18T11:34:12Z</time>
      </trkpt>
      <trkpt lat="47.92275" lon="0.20354">
        <ele>46.7</ele>
        <time>2016-06-18T11:34:20Z</time>
      </trkpt>
      <trkpt lat="47.92281" lon="0.20343">
        <ele>47.8</ele>
        <time>2016-06-18T11:34:28Z</time>
      </trkpt>
      <trkpt lat="47.92287" lon="0.20332">
        <ele>48.3</ele>
        <time>2016-06-18T11:34:35Z</time>
      </trkpt>
      <trkpt lat="47.92294" lon="0.20321">
        <ele>46.8</ele>
        <time>2016-06-18T11:34:44Z</time>
      </trkpt>
      <trkpt lat="47.92299" lon="0.20308">
        <ele>46.8</ele>
        <time>2016-06-18T11:34:54Z</time>
      </trkpt>
      <trkpt lat="47.92306" lon="0.20296">
        <ele>47</ele>
        <time>2016-06-18T11:35:02Z</time>
      </trkpt>
      <trkpt lat="47.92312" lon="0.20284">
        <ele>47.7</ele>
        <time>2016-06-18T11:35:10Z</time>
      </trkpt>
      <trkpt lat="47.92317" lon="0.20272">
        <ele>47.6</ele>
        <time>2016-06-18T11:35:18Z</time>
      </trkpt>
      <trkpt lat="47.92323" lon="0.2026">
        <ele>47.7</ele>
        <time>2016-06-18T11:35:26Z</time>
      </trkpt>
      <trkpt lat="47.92328" lon="0.20248">
        <ele>47.6</ele>
        <time>2016-06-18T11:35:35Z</time>
      </trkpt>
      <trkpt lat="47.92333" lon="0.20237">
        <ele>47.1</ele>
        <time>2016-06-18T11:35:44Z</time>
      </trkpt>
      <trkpt lat="47.92339" lon="0.20227">
        <ele>46.8</ele>
        <time>2016-06-18T11:35:50Z</time>
      </trkpt>
      <trkpt lat="47.92345" lon="0.20216">
        <ele>46.6</ele>
        <time>2016-06-18T11:35:59Z</time>
      </trkpt>
      <trkpt lat="47.92351" lon="0.20206">
        <ele>46.6</ele>
        <time>2016-06-18T11:36:07Z</time>
      </trkpt>
      <trkpt lat="47.92358" lon="0.20195">
        <ele>46.5</ele>
        <time>2016-06-18T11:36:16Z</time>
      </trkpt>
      <trkpt lat="47.92364" lon="0.20186">
        <ele>47</ele>
        <time>2016-06-18T11:36:24Z</time>
      </trkpt>
      <trkpt lat="47.92371" lon="0.20174">
        <ele>46.8</ele>
        <time>2016-06-18T11:36:32Z</time>
      </trkpt>
      <trkpt lat="47.92378" lon="0.20166">
        <ele>46.6</ele>
        <time>2016-06-18T11:36:39Z</time>
      </trkpt>
      <trkpt lat="47.92384" lon="0.20156">
        <ele>46.5</ele>
        <time>2016-06-18T11:36:46Z</time>
      </trkpt>
      <trkpt lat="47.9239" lon="0.20146">
        <ele>46</ele>
        <time>2016-06-18T11:36:54Z</time>
      </trkpt>
      <trkpt lat="47.92398" lon="0.20136">
        <ele>46.6</ele>
        <time>2016-06-18T11:37:00Z</time>
      </trkpt>
      <trkpt lat="47.92404" lon="0.20126">
        <ele>46</ele>
        <time>2016-06-18T11:37:06Z</time>
      </trkpt>
      <trkpt lat="47.9241" lon="0.20115">
        <ele>46.8</ele>
        <time>2016-06-18T11:37:14Z</time>
      </trkpt>
      <trkpt lat="47.92418" lon="0.20105">
        <ele>46.3</ele>
        <time>2016-06-18T11:37:22Z</time>
      </trkpt>
      <trkpt lat="47.92424" lon="0.20096">
        <ele>46.1</ele>
        <time>2016-06-18T11:37:30Z</time>
      </trkpt>
      <trkpt lat="47.9243" lon="0.20084">
        <ele>46.1</ele>
        <time>2016-06-18T11:37:37Z</time>
      </trkpt>
      <trkpt lat="47.92436" lon="0.20073">
        <ele>46</ele>
        <time>2016-06-18T11:37:46Z</time>
      </trkpt>
      <trkpt lat="47.92442" lon="0.20062">
        <ele>46.4</ele>
        <time>2016-06-18T11:37:54Z</time>
      </trkpt>
      <trkpt lat="47.92449" lon="0.20049">
        <ele>45.9</ele>
        <time>2016-06-18T11:38:02Z</time>
      </trkpt>
      <trkpt lat="47.92455" lon="0.20038">
        <ele>46.1</ele>
        <time>2016-06-18T11:38:49Z</time>
      </trkpt>
      <trkpt lat="47.92462" lon="0.20027">
        <ele>47.2</ele>
        <time>2016-06-18T11:38:58Z</time>
      </trkpt>
      <trkpt lat="47.92467" lon="0.20015">
        <ele>46.6</ele>
        <time>2016-06-18T11:39:05Z</time>
      </trkpt>
      <trkpt lat="47.92473" lon="0.20003">
        <ele>47</ele>
        <time>2016-06-18T11:39:12Z</time>
      </trkpt>
      <trkpt lat="47.9248" lon="0.19993">
        <ele>46.3</ele>
        <time>2016-06-18T11:39:22Z</time>
      </trkpt>
      <trkpt lat="47.92486" lon="0.19982">
        <ele>46.8</ele>
        <time>2016-06-18T11:39:30Z</time>
      </trkpt>
      <trkpt lat="47.92491" lon="0.19971">
        <ele>46.2</ele>
        <time>2016-06-18T11:39:38Z</time>
      </trkpt>
      <trkpt lat="47.92497" lon="0.1996">
        <ele>46.2</ele>
        <time>2016-06-18T11:39:46Z</time>
      </trkpt>
      <trkpt lat="47.92503" lon="0.19949">
        <ele>46</ele>
        <time>2016-06-18T11:39:54Z</time>
      </trkpt>
      <trkpt lat="47.92511" lon="0.1994">
        <ele>45.6</ele>
        <time>2016-06-18T11:40:03Z</time>
      </trkpt>
      <trkpt lat="47.92518" lon="0.19931">
        <ele>46</ele>
        <time>2016-06-18T11:40:11Z</time>
      </trkpt>
      <trkpt lat="47.92523" lon="0.1992">
        <ele>45.8</ele>
        <time>2016-06-18T11:40:19Z</time>
      </trkpt>
      <trkpt lat="47.9253" lon="0.19909">
        <ele>46</ele>
        <time>2016-06-18T11:40:27Z</time>
      </trkpt>
      <trkpt lat="47.92536" lon="0.19898">
        <ele>45.9</ele>
        <time>2016-06-18T11:40:42Z</time>
      </trkpt>
      <trkpt lat="47.92543" lon="0.19887">
        <ele>45.5</ele>
        <time>2016-06-18T11:40:50Z</time>
      </trkpt>
      <trkpt lat="47.92549" lon="0.19875">
        <ele>46.1</ele>
        <time>2016-06-18T11:40:59Z</time>
      </trkpt>
      <trkpt lat="47.92556" lon="0.19866">
        <ele>46.1</ele>
        <time>2016-06-18T11:41:06Z</time>
      </trkpt>
      <trkpt lat="47.92562" lon="0.19855">
        <ele>46.4</ele>
        <time>2016-06-18T11:41:14Z</time>
      </trkpt>
      <trkpt lat="47.92568" lon="0.19842">
        <ele>46.1</ele>
        <time>2016-06-18T11:41:22Z</time>
      </trkpt>
      <trkpt lat="47.92574" lon="0.19831">
        <ele>46.7</ele>
        <time>2016-06-18T11:41:30Z</time>
      </trkpt>
      <trkpt lat="47.92581" lon="0.1982">
        <ele>46.4</ele>
        <time>2016-06-18T11:41:38Z</time>
      </trkpt>
      <trkpt lat="47.92587" lon="0.19808">
        <ele>46.2</ele>
        <time>2016-06-18T11:41:46Z</time>
      </trkpt>
      <trkpt lat="47.92593" lon="0.19799">
        <ele>46.2</ele>
        <time>2016-06-18T11:41:53Z</time>
      </trkpt>
      <trkpt lat="47.926" lon="0.19787">
        <ele>46.3</ele>
        <time>2016-06-18T11:42:01Z</time>
      </trkpt>
      <trkpt lat="47.92605" lon="0.19776">
        <ele>46.3</ele>
        <time>2016-06-18T11:42:09Z</time>
      </trkpt>
      <trkpt lat="47.92611" lon="0.19765">
        <ele>45.9</ele>
        <time>2016-06-18T11:42:17Z</time>
      </trkpt>
      <trkpt lat="47.92616" lon="0.19753">
        <ele>46.1</ele>
        <time>2016-06-18T11:42:27Z</time>
      </trkpt>
      <trkpt lat="47.92623" lon="0.19742">
        <ele>45.8</ele>
        <time>2016-06-18T11:42:34Z</time>
      </trkpt>
      <trkpt lat="47.92629" lon="0.19731">
        <ele>46.4</ele>
        <time>2016-06-18T11:42:42Z</time>
      </trkpt>
      <trkpt lat="47.92635" lon="0.1972">
        <ele>45.9</ele>
        <time>2016-06-18T11:42:50Z</time>
      </trkpt>
      <trkpt lat="47.92641" lon="0.1971">
        <ele>46.3</ele>
        <time>2016-06-18T11:42:58Z</time>
      </trkpt>
      <trkpt lat="47.92648" lon="0.19699">
        <ele>46.8</ele>
        <time>2016-06-18T11:43:07Z</time>
      </trkpt>
      <trkpt lat="47.92653" lon="0.19686">
        <ele>45.9</ele>
        <time>2016-06-18T11:43:16Z</time>
      </trkpt>
      <trkpt lat="47.92658" lon="0.19673">
        <ele>45.7</ele>
        <time>2016-06-18T11:43:24Z</time>
      </trkpt>
      <trkpt lat="47.92665" lon="0.19661">
        <ele>45.9</ele>
        <time>2016-06-18T11:43:32Z</time>
      </trkpt>
      <trkpt lat="47.92669" lon="0.1965">
        <ele>45.2</ele>
        <time>2016-06-18T11:43:39Z</time>
      </trkpt>
      <trkpt lat="47.92674" lon="0.19638">
        <ele>45</ele>
        <time>2016-06-18T11:43:46Z</time>
      </trkpt>
      <trkpt lat="47.92679" lon="0.19625">
        <ele>44.8</ele>
        <time>2016-06-18T11:43:55Z</time>
      </trkpt>
      <trkpt lat="47.92683" lon="0.19612">
        <ele>45.4</ele>
        <time>2016-06-18T11:44:03Z</time>
      </trkpt>
      <trkpt lat="47.92689" lon="0.19599">
        <ele>45.6</ele>
        <time>2016-06-18T11:44:11Z</time>
      </trkpt>
      <trkpt lat="47.92694" lon="0.19587">
        <ele>44.9</ele>
        <time>2016-06-18T11:44:20Z</time>
      </trkpt>
      <trkpt lat="47.927" lon="0.19574">
        <ele>45.5</ele>
        <time>2016-06-18T11:44:28Z</time>
      </trkpt>
      <trkpt lat="47.92704" lon="0.19562">
        <ele>45.5</ele>
        <time>2016-06-18T11:44:34Z</time>
      </trkpt>
      <trkpt lat="47.92709" lon="0.19549">
        <ele>45.9</ele>
        <time>2016-06-18T11:44:41Z</time>
      </trkpt>
      <trkpt lat="47.92714" lon="0.19536">
        <ele>45.4</ele>
        <time>2016-06-18T11:44:49Z</time>
      </trkpt>
      <trkpt lat="47.92717" lon="0.19522">
        <ele>45.5</ele>
        <time>2016-06-18T11:44:59Z</time>
      </trkpt>
      <trkpt lat="47.92722" lon="0.1951">
        <ele>45.3</ele>
        <time>2016-06-18T11:45:07Z</time>
      </trkpt>
      <trkpt lat="47.92727" lon="0.19498">
        <ele>45.3</ele>
        <time>2016-06-18T11:45:15Z</time>
      </trkpt>
      <trkpt lat="47.92731" lon="0.19486">
        <ele>45.4</ele>
        <time>2016-06-18T11:45:23Z</time>
      </trkpt>
      <trkpt lat="47.92737" lon="0.19474">
        <ele>45.4</ele>
        <time>2016-06-18T11:45:31Z</time>
      </trkpt>
      <trkpt lat="47.92743" lon="0.19464">
        <ele>45.9</ele>
        <time>2016-06-18T11:46:06Z</time>
      </trkpt>
      <trkpt lat="47.92749" lon="0.19452">
        <ele>45.7</ele>
        <time>2016-06-18T11:46:14Z</time>
      </trkpt>
      <trkpt lat="47.92755" lon="0.19442">
        <ele>45.7</ele>
        <time>2016-06-18T11:46:22Z</time>
      </trkpt>
      <trkpt lat="47.92762" lon="0.1943">
        <ele>45.7</ele>
        <time>2016-06-18T11:46:29Z</time>
      </trkpt>
      <trkpt lat="47.9277" lon="0.19421">
        <ele>45.8</ele>
        <time>2016-06-18T11:46:36Z</time>
      </trkpt>
      <trkpt lat="47.92777" lon="0.19413">
        <ele>45.3</ele>
        <time>2016-06-18T11:46:44Z</time>
      </trkpt>
      <trkpt lat="47.92783" lon="0.19401">
        <ele>45.3</ele>
        <time>2016-06-18T11:46:52Z</time>
      </trkpt>
      <trkpt lat="47.9279" lon="0.19391">
        <ele>45.4</ele>
        <time>2016-06-18T11:47:01Z</time>
      </trkpt>
      <trkpt lat="47.92797" lon="0.19381">
        <ele>45.7</ele>
        <time>2016-06-18T11:47:10Z</time>
      </trkpt>
      <trkpt lat="47.92804" lon="0.19372">
        <ele>45.5</ele>
        <time>2016-06-18T11:47:17Z</time>
      </trkpt>
      <trkpt lat="47.9281" lon="0.1936">
        <ele>46</ele>
        <time>2016-06-18T11:47:26Z</time>
      </trkpt>
      <trkpt lat="47.92816" lon="0.1935">
        <ele>45.6</ele>
        <time>2016-06-18T11:47:34Z</time>
      </trkpt>
      <trkpt lat="47.92823" lon="0.19339">
        <ele>45</ele>
        <time>2016-06-18T11:47:43Z</time>
      </trkpt>
      <trkpt lat="47.9283" lon="0.19329">
        <ele>44.7</ele>
        <time>2016-06-18T11:47:50Z</time>
      </trkpt>
      <trkpt lat="47.92836" lon="0.19318">
        <ele>44.8</ele>
        <time>2016-06-18T11:47:57Z</time>
      </trkpt>
      <trkpt lat="47.92841" lon="0.19307">
        <ele>44.8</ele>
        <time>2016-06-18T11:48:05Z</time>
      </trkpt>
      <trkpt lat="47.92849" lon="0.19297">
        <ele>45.1</ele>
        <time>2016-06-18T11:48:15Z</time>
      </trkpt>
      <trkpt lat="47.92856" lon="0.19287">
        <ele>45.1</ele>
        <time>2016-06-18T11:48:22Z</time>
      </trkpt>
      <trkpt lat="47.92864" lon="0.19277">
        <ele>45.4</ele>
        <time>2016-06-18T11:48:30Z</time>
      </trkpt>
      <trkpt lat="47.9287" lon="0.19266">
        <ele>46.3</ele>
        <time>2016-06-18T11:48:38Z</time>
      </trkpt>
      <trkpt lat="47.92877" lon="0.19255">
        <ele>46.1</ele>
        <time>2016-06-18T11:48:47Z</time>
      </trkpt>
      <trkpt lat="47.92882" lon="0.19243">
        <ele>46.2</ele>
        <time>2016-06-18T11:48:55Z</time>
      </trkpt>
      <trkpt lat="47.92885" lon="0.19229">
        <ele>46.2</ele>
        <time>2016-06-18T11:49:02Z</time>
      </trkpt>
      <trkpt lat="47.92889" lon="0.19217">
        <ele>43.9</ele>
        <time>2016-06-18T11:50:11Z</time>
      </trkpt>
      <trkpt lat="47.92891" lon="0.19204">
        <ele>44.4</ele>
        <time>2016-06-18T11:50:18Z</time>
      </trkpt>
      <trkpt lat="47.9289" lon="0.1919">
        <ele>44.5</ele>
        <time>2016-06-18T11:50:31Z</time>
      </trkpt>
      <trkpt lat="47.92894" lon="0.19177">
        <ele>45.3</ele>
        <time>2016-06-18T11:50:39Z</time>
      </trkpt>
      <trkpt lat="47.92896" lon="0.19163">
        <ele>44.7</ele>
        <time>2016-06-18T11:50:47Z</time>
      </trkpt>
      <trkpt lat="47.92898" lon="0.19148">
        <ele>44.9</ele>
        <time>2016-06-18T11:50:54Z</time>
      </trkpt>
      <trkpt lat="47.92898" lon="0.19135">
        <ele>44.9</ele>
        <time>2016-06-18T11:51:00Z</time>
      </trkpt>
      <trkpt lat="47.929" lon="0.1912">
        <ele>44.5</ele>
        <time>2016-06-18T11:51:08Z</time>
      </trkpt>
      <trkpt lat="47.92902" lon="0.19105">
        <ele>44.9</ele>
        <time>2016-06-18T11:51:16Z</time>
      </trkpt>
      <trkpt lat="47.92906" lon="0.19092">
        <ele>44.9</ele>
        <time>2016-06-18T11:51:24Z</time>
      </trkpt>
      <trkpt lat="47.92909" lon="0.1908">
        <ele>43.9</ele>
        <time>2016-06-18T11:51:33Z</time>
      </trkpt>
      <trkpt lat="47.92912" lon="0.19067">
        <ele>43.7</ele>
        <time>2016-06-18T11:51:41Z</time>
      </trkpt>
      <trkpt lat="47.92914" lon="0.19054">
        <ele>44.9</ele>
        <time>2016-06-18T11:51:49Z</time>
      </trkpt>
      <trkpt lat="47.92916" lon="0.19039">
        <ele>44</ele>
        <time>2016-06-18T11:51:57Z</time>
      </trkpt>
      <trkpt lat="47.92918" lon="0.19026">
        <ele>44.2</ele>
        <time>2016-06-18T11:52:05Z</time>
      </trkpt>
      <trkpt lat="47.9292" lon="0.19011">
        <ele>44.5</ele>
        <time>2016-06-18T11:52:13Z</time>
      </trkpt>
      <trkpt lat="47.9292" lon="0.18997">
        <ele>45.2</ele>
        <time>2016-06-18T11:52:22Z</time>
      </trkpt>
      <trkpt lat="47.92918" lon="0.18984">
        <ele>45.4</ele>
        <time>2016-06-18T11:52:30Z</time>
      </trkpt>
      <trkpt lat="47.9292" lon="0.1897">
        <ele>45.7</ele>
        <time>2016-06-18T11:52:39Z</time>
      </trkpt>
      <trkpt lat="47.92919" lon="0.18956">
        <ele>45.1</ele>
        <time>2016-06-18T11:52:57Z</time>
      </trkpt>
      <trkpt lat="47.9292" lon="0.18942">
        <ele>45.1</ele>
        <time>2016-06-18T11:53:05Z</time>
      </trkpt>
      <trkpt lat="47.92923" lon="0.18928">
        <ele>44.8</ele>
        <time>2016-06-18T11:53:12Z</time>
      </trkpt>
      <trkpt lat="47.92928" lon="0.18916">
        <ele>44.1</ele>
        <time>2016-06-18T11:53:19Z</time>
      </trkpt>
      <trkpt lat="47.92931" lon="0.18903">
        <ele>43.5</ele>
        <time>2016-06-18T11:53:27Z</time>
      </trkpt>
      <trkpt lat="47.92932" lon="0.18889">
        <ele>42.5</ele>
        <time>2016-06-18T11:53:44Z</time>
      </trkpt>
      <trkpt lat="47.9293" lon="0.18875">
        <ele>42.7</ele>
        <time>2016-06-18T11:54:15Z</time>
      </trkpt>
      <trkpt lat="47.92925" lon="0.18864">
        <ele>42.7</ele>
        <time>2016-06-18T11:54:26Z</time>
      </trkpt>
      <trkpt lat="47.92919" lon="0.1885">
        <ele>42.9</ele>
        <time>2016-06-18T11:54:33Z</time>
      </trkpt>
      <trkpt lat="47.92914" lon="0.18838">
        <ele>42.1</ele>
        <time>2016-06-18T11:54:41Z</time>
      </trkpt>
      <trkpt lat="47.9291" lon="0.18826">
        <ele>41.6</ele>
        <time>2016-06-18T11:54:48Z</time>
      </trkpt>
      <trkpt lat="47.92903" lon="0.18813">
        <ele>42</ele>
        <time>2016-06-18T11:54:55Z</time>
      </trkpt>
      <trkpt lat="47.92897" lon="0.18802">
        <ele>42.4</ele>
        <time>2016-06-18T11:55:05Z</time>
      </trkpt>
      <trkpt lat="47.92893" lon="0.1879">
        <ele>42.3</ele>
        <time>2016-06-18T11:55:12Z</time>
      </trkpt>
      <trkpt lat="47.92886" lon="0.18778">
        <ele>42.1</ele>
        <time>2016-06-18T11:55:25Z</time>
      </trkpt>
      <trkpt lat="47.92876" lon="0.18774">
        <ele>41.1</ele>
        <time>2016-06-18T11:56:14Z</time>
      </trkpt>
      <trkpt lat="47.92879" lon="0.1876">
        <ele>41.2</ele>
        <time>2016-06-18T11:56:23Z</time>
      </trkpt>
      <trkpt lat="47.92887" lon="0.18751">
        <ele>41.7</ele>
        <time>2016-06-18T11:56:31Z</time>
      </trkpt>
      <trkpt lat="47.92889" lon="0.18738">
        <ele>41.1</ele>
        <time>2016-06-18T11:56:41Z</time>
      </trkpt>
      <trkpt lat="47.92893" lon="0.18725">
        <ele>41.9</ele>
        <time>2016-06-18T11:56:49Z</time>
      </trkpt>
      <trkpt lat="47.92897" lon="0.18711">
        <ele>41.6</ele>
        <time>2016-06-18T11:56:56Z</time>
      </trkpt>
      <trkpt lat="47.929" lon="0.18698">
        <ele>41.3</ele>
        <time>2016-06-18T11:57:03Z</time>
      </trkpt>
      <trkpt lat="47.92903" lon="0.18684">
        <ele>41.7</ele>
        <time>2016-06-18T11:57:11Z</time>
      </trkpt>
      <trkpt lat="47.92907" lon="0.18671">
        <ele>41.7</ele>
        <time>2016-06-18T11:57:18Z</time>
      </trkpt>
      <trkpt lat="47.92912" lon="0.18657">
        <ele>41.3</ele>
        <time>2016-06-18T11:57:25Z</time>
      </trkpt>
      <trkpt lat="47.92914" lon="0.18643">
        <ele>41.5</ele>
        <time>2016-06-18T11:57:34Z</time>
      </trkpt>
      <trkpt lat="47.92917" lon="0.18629">
        <ele>41.4</ele>
        <time>2016-06-18T11:57:42Z</time>
      </trkpt>
      <trkpt lat="47.92919" lon="0.18615">
        <ele>41.7</ele>
        <time>2016-06-18T11:57:49Z</time>
      </trkpt>
      <trkpt lat="47.92925" lon="0.18604">
        <ele>42.1</ele>
        <time>2016-06-18T11:57:55Z</time>
      </trkpt>
      <trkpt lat="47.92921" lon="0.1859">
        <ele>42.5</ele>
        <time>2016-06-18T11:58:03Z</time>
      </trkpt>
      <trkpt lat="47.92919" lon="0.18581">
        <ele>39.4</ele>
        <time>2016-06-18T12:04:41Z</time>
      </trkpt>
    </trkseg>
  </trk>
</gpx>